[[{"header":{"parameterUnit":"m.s-1","parameterCategory":1,"la1":30.6,"la2":28.766,"lo1":-90.7593,"lo2":-88.6598,"dy":0.0162,"dx":0.0183,"nx":116,"ny":114,"refTime":"2024-07-09T12:00:00:Z","depth":0,"parameterNumber":2,"parameterNumberName":"U-component_of_WINDS"},"data":[0.0,0.0,0.0,0.0,0.0,0.0,0.0,0.0,0.0,0.0,0.0,0.0,0.0,0.0,0.0,0.0,0.0,0.0,0.0,0.0,0.0,0.0,0.0,0.0,0.0,0.0,0.0,0.0,0.0,0.0,0.0,0.0,0.0,0.0,0.0,0.0,0.0,0.0,0.0,0.0,0.0,0.0,0.0,0.0,0.0,0.0,0.0,0.0,0.0,0.0,0.0,0.0,0.0,0.0,0.0,0.0,0.0,0.0,0.0,0.0,0.0,0.0,0.0,0.0,0.0,0.0,0.0,0.0,0.0,0.0,0.0,0.0,0.0,0.0,0.0,0.0,0.0,0.0,0.0,0.0,0.0,0.0,0.0,0.0,0.0,0.0,0.0,0.0,0.0,0.0,0.0,0.0,0.0,0.0,0.0,0.0,0.0,0.0,0.0,0.0,0.0,0.0,0.0,0.0,0.0,0.0,0.0,0.0,0.0,0.0,0.0,0.0,0.0,0.0,0.0,0.0,0.0,0.0,0.0,0.0,0.0,0.0,0.0,0.0,0.0,0.0,0.0,0.0,0.0,0.0,0.0,0.0,0.0,0.0,0.0,0.0,0.0,0.0,0.0,0.0,0.0,0.0,0.0,0.0,0.0,0.0,0.0,0.0,0.0,0.0,0.0,0.0,0.0,0.0,0.0,0.0,0.0,0.0,0.0,0.0,0.0,0.0,0.0,0.0,0.0,0.0,0.0,0.0,0.0,0.0,0.0,0.0,0.0,0.0,0.0,0.0,0.0,0.0,0.0,0.0,0.0,0.0,0.0,0.0,0.0,0.0,0.0,0.0,0.0,0.0,0.0,0.0,0.0,0.0,0.0,0.0,0.0,0.0,0.0,0.0,0.0,0.0,0.0,0.0,0.0,0.0,0.0,0.0,0.0,0.0,0.0,0.0,0.0,0.0,0.0,0.0,0.0,0.0,0.0,0.0,0.0,0.0,0.0,0.0,0.0,0.0,0.0,0.0,0.0,0.0,0.0,0.0,0.0,0.0,0.0,0.0,0.0,0.0,0.0,0.0,0.0,0.0,0.0,0.0,0.0,0.0,0.0,0.0,0.0,0.0,0.0,0.0,0.0,0.0,0.0,0.0,0.0,0.0,0.0,0.0,0.0,0.0,0.0,0.0,0.0,0.0,0.0,0.0,0.0,0.0,0.0,0.0,0.0,0.0,0.0,0.0,0.0,0.0,0.0,0.0,0.0,0.0,0.0,0.0,0.0,0.0,0.0,0.0,0.0,0.0,0.0,0.0,0.0,0.0,0.0,0.0,0.0,0.0,0.0,0.0,0.0,0.0,0.0,0.0,0.0,0.0,0.0,0.0,0.0,0.0,0.0,0.0,0.0,0.0,0.0,0.0,0.0,0.0,0.0,0.0,0.0,0.0,0.0,0.0,0.0,0.0,0.0,0.0,0.0,0.0,0.0,0.0,0.0,0.0,0.0,0.0,0.0,0.0,0.0,0.0,0.0,0.0,0.0,0.0,0.0,0.0,0.0,0.0,0.0,0.0,0.0,0.0,0.0,0.0,0.0,0.0,0.0,0.0,0.0,0.0,0.0,0.0,0.0,0.0,0.0,0.0,0.0,0.0,0.0,0.0,0.0,0.0,0.0,0.0,0.0,0.0,0.0,0.0,0.0,0.0,0.0,0.0,0.0,0.0,0.0,0.0,0.0,0.0,0.0,0.0,0.0,0.0,0.0,0.0,0.0,0.0,0.0,0.0,0.0,0.0,0.0,0.0,0.0,0.0,0.0,0.0,0.0,0.0,0.0,0.0,0.0,0.0,0.0,0.0,0.0,0.0,0.0,0.0,0.0,0.0,0.0,0.0,0.0,0.0,0.0,0.0,0.0,0.0,0.0,0.0,0.0,0.0,0.0,0.0,0.0,0.0,0.0,0.0,0.0,0.0,0.0,0.0,0.0,0.0,0.0,0.0,0.0,0.0,0.0,0.0,0.0,0.0,0.0,0.0,0.0,0.0,0.0,0.0,0.0,0.0,0.0,0.0,0.0,0.0,0.0,0.0,0.0,0.0,0.0,0.0,0.0,0.0,0.0,0.0,0.0,0.0,0.0,0.0,0.0,0.0,0.0,0.0,0.0,0.0,0.0,0.0,0.0,0.0,0.0,0.0,0.0,0.0,0.0,0.0,0.0,0.0,0.0,0.0,0.0,0.0,0.0,0.0,0.0,0.0,0.0,0.0,0.0,0.0,0.0,0.0,0.0,0.0,0.0,0.0,0.0,0.0,0.0,0.0,0.0,0.0,0.0,0.0,0.0,0.0,0.0,0.0,0.0,0.0,0.0,0.0,0.0,0.0,0.0,0.0,0.0,0.0,0.0,0.0,0.0,0.0,0.0,0.0,0.0,0.0,0.0,0.0,0.0,0.0,0.0,0.0,0.0,0.0,0.0,0.0,0.0,0.0,0.0,0.0,0.0,0.0,0.0,0.0,0.0,0.0,0.0,0.0,0.0,0.0,0.0,0.0,0.0,0.0,0.0,0.0,0.0,0.0,0.0,0.0,0.0,0.0,0.0,0.0,0.0,0.0,0.0,0.0,0.0,0.0,0.0,0.0,0.0,0.0,0.0,0.0,0.0,0.0,0.0,0.0,0.0,0.0,0.0,0.0,0.0,0.0,0.0,0.0,0.0,0.0,0.0,0.0,0.0,0.0,0.0,0.0,0.0,0.0,0.0,0.0,0.0,0.0,0.0,0.0,0.0,0.0,0.0,0.0,0.0,0.0,0.0,0.0,0.0,0.0,0.0,0.0,0.0,0.0,0.0,0.0,0.0,0.0,0.0,0.0,0.0,0.0,0.0,0.0,0.0,0.0,0.0,0.0,0.0,0.0,0.0,0.0,0.0,0.0,0.0,0.0,0.0,0.0,0.0,0.0,0.0,0.0,0.0,0.0,0.0,0.0,0.0,0.0,0.0,0.0,0.0,0.0,0.0,0.0,0.0,0.0,0.0,0.0,0.0,0.0,0.0,0.0,0.0,0.0,0.0,0.0,0.0,0.0,0.0,0.0,0.0,0.0,0.0,0.0,0.0,0.0,0.0,0.0,0.0,0.0,0.0,0.0,0.0,0.0,0.0,0.0,0.0,0.0,0.0,0.0,0.0,0.0,0.0,0.0,0.0,0.0,0.0,0.0,0.0,0.0,0.0,0.0,0.0,0.0,0.0,0.0,0.0,0.0,0.0,0.0,0.0,0.0,0.0,0.0,0.0,0.0,0.0,0.0,0.0,0.0,0.0,0.0,0.0,0.0,0.0,0.0,0.0,0.0,0.0,0.0,0.0,0.0,0.0,0.0,0.0,0.0,0.0,0.0,0.0,0.0,0.0,0.0,0.0,0.0,0.0,0.0,0.0,0.0,0.0,0.0,0.0,0.0,0.0,0.0,0.0,0.0,0.0,0.0,0.0,0.0,0.0,0.0,0.0,0.0,0.0,0.0,0.0,0.0,0.0,0.0,0.0,0.0,0.0,0.0,0.0,0.0,0.0,0.0,0.0,0.0,0.0,0.0,0.0,0.0,0.0,0.0,0.0,0.0,0.0,0.0,0.0,0.0,0.0,0.0,0.0,0.0,0.0,0.0,0.0,0.0,0.0,0.0,0.0,0.0,0.0,0.0,0.0,0.0,0.0,0.0,0.0,0.0,0.0,0.0,0.0,0.0,0.0,0.0,0.0,0.0,0.0,0.0,0.0,0.0,0.0,0.0,0.0,0.0,0.0,0.0,0.0,0.0,0.0,0.0,0.0,0.0,0.0,0.0,0.0,0.0,0.0,0.0,0.0,0.0,0.0,0.0,0.0,0.0,0.0,0.0,0.0,0.0,0.0,0.0,0.0,0.0,0.0,0.0,0.0,0.0,0.0,0.0,0.0,0.0,0.0,0.0,0.0,0.0,0.0,0.0,0.0,0.0,0.0,0.0,0.0,0.0,0.0,0.0,0.0,0.0,0.0,0.0,0.0,0.0,0.0,0.0,0.0,0.0,0.0,0.0,0.0,0.0,0.0,0.0,0.0,0.0,0.0,0.0,0.0,0.0,0.0,0.0,0.0,0.0,0.0,0.0,0.0,0.0,0.0,0.0,0.0,0.0,0.0,0.0,0.0,0.0,0.0,0.0,0.0,0.0,0.0,0.0,0.0,0.0,0.0,0.0,0.0,0.0,0.0,0.0,0.0,0.0,0.0,0.0,0.0,0.0,0.0,0.0,0.0,0.0,0.0,0.0,0.0,0.0,0.0,0.0,0.0,0.0,0.0,0.0,0.0,0.0,0.0,0.0,0.0,0.0,0.0,0.0,0.0,0.0,0.0,0.0,0.0,0.0,0.0,0.0,0.0,0.0,0.0,0.0,0.0,0.0,0.0,0.0,0.0,0.0,0.0,0.0,0.0,0.0,0.0,0.0,0.0,0.0,0.0,0.0,0.0,0.0,0.0,0.0,0.0,0.0,0.0,0.0,0.0,0.0,0.0,0.0,0.0,0.0,0.0,0.0,0.0,0.0,0.0,0.0,0.0,0.0,0.0,0.0,0.0,0.0,0.0,0.0,0.0,0.0,0.0,0.0,0.0,0.0,0.0,0.0,0.0,0.0,0.0,0.0,0.0,0.0,0.0,0.0,0.0,0.0,0.0,0.0,0.0,0.0,0.0,0.0,0.0,0.0,0.0,0.0,0.0,0.0,0.0,0.0,0.0,0.0,0.0,0.0,0.0,0.0,0.0,0.0,0.0,0.0,0.0,0.0,0.0,0.0,0.0,0.0,0.0,0.0,0.0,0.0,0.0,0.0,0.0,0.0,0.0,0.0,0.0,0.0,0.0,0.0,0.0,0.0,0.0,0.0,0.0,0.0,0.0,0.0,0.0,0.0,0.0,0.0,0.0,0.0,0.0,0.0,0.0,0.0,0.0,0.0,0.0,0.0,0.0,0.0,0.0,0.0,0.0,0.0,0.0,0.0,0.0,0.0,0.0,0.0,0.0,0.0,0.0,0.0,0.0,0.0,0.0,0.0,0.0,0.0,0.0,0.0,0.0,0.0,0.0,0.0,0.0,0.0,0.0,0.0,0.0,0.0,0.0,0.0,0.0,0.0,0.0,0.0,0.0,0.0,0.0,0.0,0.0,0.0,0.0,0.0,0.0,0.0,0.0,0.0,0.0,0.0,0.0,0.0,0.0,0.0,0.0,0.0,0.0,0.0,0.0,0.0,0.0,0.0,0.0,0.0,0.0,0.0,0.0,0.0,0.0,0.0,0.0,0.0,0.0,0.0,0.0,0.0,0.0,0.0,0.0,0.0,0.0,0.0,0.0,0.0,0.0,0.0,0.0,0.0,0.0,0.0,0.0,0.0,0.0,0.0,0.0,0.0,0.0,0.0,0.0,0.0,0.0,0.0,0.0,0.0,0.0,0.0,0.0,0.0,0.0,0.0,0.0,0.0,0.0,0.0,0.0,0.0,0.0,0.0,0.0,0.0,0.0,0.0,0.0,0.0,0.0,0.0,0.0,0.0,0.0,0.0,0.0,0.0,0.0,0.0,0.0,0.0,0.0,0.0,0.0,0.0,0.0,0.0,0.0,0.0,0.0,0.0,0.0,0.0,0.0,0.0,0.0,0.0,0.0,0.0,0.0,0.0,0.0,0.0,0.0,0.0,0.0,0.0,0.0,0.0,0.0,0.0,0.0,0.0,0.0,0.0,0.0,0.0,0.0,0.0,0.0,0.0,0.0,0.0,0.0,0.0,0.0,0.0,0.0,0.0,0.0,0.0,0.0,0.0,0.0,0.0,0.0,0.0,0.0,0.0,0.0,0.0,0.0,0.0,0.0,0.0,0.0,0.0,0.0,0.0,0.0,0.0,0.0,0.0,0.0,0.0,0.0,0.0,0.0,0.0,0.0,0.0,0.0,0.0,0.0,0.0,0.0,0.0,0.0,0.0,0.0,0.0,0.0,0.0,0.0,0.0,0.0,0.0,0.0,0.0,0.0,0.0,0.0,0.0,0.0,0.0,0.0,0.0,0.0,0.0,0.0,0.0,0.0,0.0,0.0,0.0,0.0,0.0,0.0,0.0,0.0,0.0,-2.2537,0.0,0.0,0.0,0.0,0.0,0.0,0.0,0.0,0.0,0.0,0.0,0.0,0.0,0.0,0.0,0.0,0.0,0.0,0.0,0.0,0.0,0.0,0.0,0.0,1.0769,1.098,1.1579,1.1531,1.1282,1.0851,0.0,0.0,0.0,0.0,0.0,-0.021,-0.2358,-0.3808,-0.4591,-0.5689,-0.6553,-0.7118,-0.4475,-0.3238,-0.328,0.0,0.0,0.0,0.0,0.0,0.0,0.0,0.0,0.0,0.0,0.0,0.0,0.0,0.0,0.0,0.0,0.0,0.0,0.0,0.0,0.0,0.0,0.0,0.0,0.0,0.0,0.0,0.0,0.0,0.0,0.0,0.0,0.0,0.0,0.0,0.0,0.0,0.0,0.0,0.0,0.0,0.0,0.0,0.0,0.0,0.0,0.0,0.0,0.0,0.0,0.0,0.0,0.0,0.0,0.0,0.0,0.0,0.0,0.0,0.0,0.0,0.0,0.0,0.0,0.0,0.0,0.0,0.0,0.0,0.0,0.0,-2.3043,0.0,0.0,0.0,0.0,0.0,0.0,0.0,0.0,0.0,0.0,0.0,0.0,0.0,0.0,0.0,0.0,0.0,0.0,0.0,0.0,0.0,1.0282,1.1196,1.1147,1.1404,1.2256,1.2248,1.2085,1.1878,0.0,0.0,0.0,0.0,-0.0308,-0.1071,-0.5956,-0.9005,-1.0089,-0.8929,-0.8239,-0.799,-0.7663,-0.7168,0.0,-0.6114,0.0,0.0,0.0,0.0,0.0,0.0,0.0,0.0,0.0,0.0,0.0,0.0,0.0,0.0,0.0,0.0,0.0,0.0,0.0,0.0,0.0,0.0,0.0,0.0,0.0,0.0,0.0,0.0,0.0,0.0,0.0,0.0,0.0,0.0,0.0,0.0,0.0,0.0,0.0,0.0,0.0,0.0,0.0,0.0,0.0,0.0,0.0,0.0,0.0,0.0,0.0,0.0,0.0,0.0,0.0,0.0,0.0,0.0,0.0,0.0,0.0,0.0,0.0,-2.4322,-2.4659,-2.5284,-2.4601,-2.4678,-2.5207,-2.3859,-2.3647,-2.4254,0.0,0.0,0.0,0.0,0.0,0.0,0.0,0.0,0.0,0.0,0.0,0.0,0.0,0.0,0.0,0.0,0.0,0.0,0.0,0.0,1.0573,1.1918,1.1835,1.201,1.2822,1.2421,1.2007,1.1744,0.0,0.0,0.0,0.156,-0.1891,-0.1441,-0.7895,-1.1001,-1.043,-0.9745,-0.9174,-0.8733,0.0,0.0,0.0,-0.6895,-0.6304,0.0,0.0,0.0,0.0,0.0,0.0,0.0,0.0,0.0,0.0,0.0,0.0,0.0,0.0,0.0,0.0,0.0,0.0,0.0,0.0,0.0,0.0,0.0,0.0,0.0,0.0,0.0,0.0,0.0,0.0,0.0,0.0,0.0,0.0,0.0,0.0,0.0,0.0,0.0,0.0,0.0,0.0,-1.5845,-1.7582,0.0,0.0,0.0,0.0,0.0,0.0,0.0,0.0,0.0,0.0,0.0,0.0,0.0,-2.5147,-2.4966,-2.5247,-2.5305,-2.5139,-2.5139,-2.5187,-2.5303,-2.5187,-2.5187,-2.5293,-2.5131,0.0,-2.5091,-2.4343,0.0,0.0,0.0,0.0,0.0,0.0,0.0,0.0,0.0,0.0,0.0,0.0,0.0,0.0,0.0,0.0,0.0,0.0,0.0,0.0,0.0,1.1215,1.1344,1.2297,1.1727,1.1096,0.0,0.0,0.0,0.6419,-0.1087,-0.6472,-0.92,-1.0843,-1.1324,-1.0606,-1.0755,-1.0214,0.0,0.0,0.0,0.0,-0.7663,-0.7063,0.0,0.0,0.0,0.0,0.0,0.0,0.0,0.0,0.0,0.0,0.0,0.0,0.0,0.0,0.0,0.0,0.0,0.0,0.0,0.0,0.0,0.0,0.0,0.0,0.0,0.0,0.0,0.0,0.0,0.0,0.0,0.0,0.0,0.0,0.0,0.0,0.0,0.0,0.0,0.0,0.0,-1.5198,-1.7145,-1.8753,-1.9719,-2.0687,0.0,0.0,0.0,0.0,0.0,0.0,0.0,0.0,0.0,-2.4938,-2.5313,-2.5488,-2.5408,-2.5447,-2.5447,-2.5401,-2.5401,-2.5401,-2.5401,-2.5401,-2.5401,-2.5408,-2.5447,-2.5441,-2.5395,-2.5109,-2.5234,-2.5554,0.0,0.0,0.0,0.0,-2.5703,-2.5703,0.0,0.0,0.0,0.0,0.0,0.0,0.0,0.0,0.0,0.0,0.0,0.0,1.0614,1.0257,1.0286,1.1169,0.0,0.0,0.0,0.0,0.0,0.5149,-0.2336,-0.8457,-1.2785,-1.2299,-1.1648,-1.0973,-1.1453,0.0,0.0,0.0,0.0,0.0,0.0,0.0,0.0,0.0,0.0,0.0,0.0,0.0,0.0,0.0,0.0,0.0,0.0,0.0,0.0,0.0,0.0,0.0,0.0,0.0,0.0,0.0,0.0,0.0,0.0,0.0,0.0,0.0,0.0,0.0,0.0,0.0,0.0,0.0,0.0,0.0,0.0,0.0,0.0,0.0,0.0,0.0,0.0,-1.6792,-1.8497,-2.0326,-2.1763,-2.2751,0.0,0.0,0.0,0.0,0.0,0.0,-2.4574,-2.5187,-2.5547,-2.5567,-2.5598,-2.5564,-2.5493,-2.5526,-2.5526,-2.5493,-2.5493,-2.5493,-2.5493,-2.5493,-2.5493,-2.5493,-2.5526,-2.5535,-2.5535,-2.557,-2.5601,-2.5605,-2.5662,-2.5703,-2.5703,-2.5703,-2.5703,-2.5703,0.0,0.0,0.0,0.0,0.0,0.0,0.0,0.0,0.0,0.0,0.0,0.8846,0.0,0.0,0.0,0.0,0.0,0.0,0.0,0.0,0.0,0.4897,-0.0891,-0.4767,-0.6243,-1.0707,0.0,0.0,0.0,0.0,0.0,0.0,0.0,0.0,0.0,0.0,0.0,0.0,0.0,0.0,0.0,0.0,0.0,0.0,0.0,0.0,0.0,0.0,0.0,0.0,0.0,0.0,0.0,0.0,0.0,0.0,0.0,0.0,0.0,0.0,0.0,0.0,0.0,0.0,0.0,0.0,0.0,0.0,0.0,0.0,0.0,0.0,0.0,0.0,0.0,0.0,0.0,0.0,0.0,-2.2815,-2.2817,0.0,0.0,0.0,0.0,-2.5111,-2.5337,-2.5399,-2.5343,-2.5496,-2.5564,-2.5517,-2.5564,-2.5564,-2.5493,-2.5561,-2.5561,-2.5493,-2.5493,-2.5493,-2.5493,-2.5493,-2.5493,-2.5493,-2.5564,-2.5598,-2.5598,-2.5601,-2.5601,-2.5605,-2.5662,-2.5703,-2.5703,-2.5703,-2.5703,-2.5703,0.0,0.0,0.0,0.9453,0.9169,0.8942,0.8942,0.871,0.8424,0.8161,0.8001,0.0,0.0,0.0,0.0,0.0,0.0,0.0,0.0,0.0,0.0,-0.2458,-0.4659,-0.721,-1.0294,-1.2743,-1.3126,0.0,0.0,0.0,0.0,0.0,0.0,0.0,0.0,0.0,0.0,0.0,0.0,0.0,0.0,0.0,0.0,0.0,0.0,0.0,0.0,0.0,0.0,0.0,0.0,0.0,0.0,0.0,0.0,0.0,0.0,0.0,0.0,0.0,0.0,0.0,0.0,0.0,0.0,0.0,0.0,0.0,0.0,0.0,0.0,0.0,0.0,0.0,0.0,0.0,0.0,0.0,0.0,-2.3239,-2.3847,0.0,-2.5116,-2.4995,-2.4986,-2.5284,-2.5383,-2.5428,-2.5451,-2.5554,-2.5605,-2.5633,-2.5659,-2.5659,-2.5633,-2.5659,-2.5659,-2.5633,-2.5633,-2.5633,-2.5633,-2.5633,-2.5633,-2.5633,-2.5659,-2.5661,-2.5661,-2.5661,-2.5661,-2.5661,-2.5683,-2.5703,-2.5703,-2.5703,-2.5703,-2.5703,0.9723,0.9497,0.0,0.9247,0.8859,0.8565,0.8565,0.8176,0.7807,0.7629,0.7388,0.0,0.0,0.0,0.0,0.0,0.0,0.0,0.0,0.0,-0.0295,-0.5908,-0.7523,-0.9636,-1.2511,-1.3146,0.0,0.0,0.0,0.0,0.0,0.0,0.0,0.0,0.0,0.0,0.0,0.0,0.0,0.0,0.0,0.0,-0.6366,0.0,0.0,0.0,0.0,0.0,0.0,0.0,0.0,0.0,0.0,0.0,0.0,0.0,0.0,0.0,0.0,0.0,0.0,0.0,0.0,0.0,0.0,0.0,0.0,0.0,0.0,0.0,0.0,0.0,0.0,0.0,0.0,0.0,0.0,0.0,-2.2813,-2.3827,-2.4569,-2.5088,-2.5274,-2.5303,-2.5303,-2.5303,-2.5383,-2.544,-2.5508,-2.5593,-2.5659,-2.5703,-2.5703,-2.5703,-2.5703,-2.5703,-2.5703,-2.5703,-2.5703,-2.5703,-2.5703,-2.5703,-2.5547,-2.5254,-2.5254,-2.5254,-2.5254,-2.5254,-2.543,-2.5703,-2.5703,-2.5703,-2.5703,-2.5703,-2.5703,-2.5703,0.9711,0.9433,0.9175,0.9109,0.8648,0.8303,0.8275,0.7761,0.7326,0.7195,0.0,0.0,0.0,0.0,0.0,0.0,0.0,0.0,0.0,0.0,0.0072,-0.4646,-0.8849,-1.1278,-1.1742,0.0,0.0,0.0,0.0,0.0,0.0,0.0,0.0,0.0,0.0,0.0,0.0,0.0,0.0,0.0,0.0,0.0,-0.6066,0.0,0.0,0.0,0.0,0.0,0.0,0.0,0.0,0.0,0.0,0.0,0.0,0.0,0.0,0.0,0.0,0.0,0.0,0.0,0.0,0.0,0.0,0.0,0.0,0.0,0.0,0.0,0.0,0.0,0.0,0.0,0.0,0.0,-2.2997,-2.3191,-2.368,-2.4681,-2.4898,-2.5077,-2.5274,-2.5303,-2.5303,-2.5303,-2.5421,-2.5493,-2.5493,-2.5633,-2.5703,-2.5703,-2.5703,-2.5703,-2.5703,-2.5703,-2.5703,-2.5703,-2.5703,-2.5703,-2.5703,-2.5664,-2.5195,-2.4394,-2.4375,-2.4355,-2.4355,-2.4355,-2.4863,-2.5664,-2.5684,-2.5703,-2.5703,-2.5703,-2.5703,-2.5703,0.957,0.9323,0.9081,0.8979,0.8514,0.8113,0.7961,0.7428,0.6904,0.0,0.0,0.0,0.0,0.0,0.0,0.0,0.0,0.0,0.0,0.0,0.0025,-0.3367,-0.6599,0.0,0.0,0.0,0.0,0.0,0.0,0.0,0.0,0.0,0.0,0.0,0.0,0.0,0.0,0.0,0.0,0.0,0.0,0.0,-0.6341,0.0,0.0,0.0,0.0,0.0,0.0,0.0,0.0,0.0,0.0,0.0,0.0,0.0,0.0,0.0,0.0,0.0,0.0,0.0,0.0,0.0,0.0,0.0,0.0,0.0,0.0,0.0,0.0,0.0,0.0,0.0,0.0,-2.2997,-2.2997,-2.3548,-2.415,-2.4723,-2.4828,-2.4975,-2.5264,-2.5303,-2.5303,-2.5303,-2.5421,-2.5493,-2.5493,-2.5633,-2.5703,-2.5703,-2.5703,-2.5703,-2.5703,-2.5703,-2.5703,-2.5703,-2.5703,-2.5703,-2.5684,-2.5059,-2.4629,-2.4355,-2.373,-2.3477,-2.3535,-2.3535,-2.4004,-2.4824,-2.5449,-2.5703,-2.5703,-2.5703,-2.5703,-2.5703,0.954,0.9314,0.9091,0.8936,0.8452,0.8034,0.7837,0.7211,0.6681,0.6406,0.0,0.0,0.0,0.0,0.0,0.0,0.0,0.0,0.1934,0.0776,-0.0598,0.0,0.0,0.0,0.0,0.0,0.0,0.0,0.0,0.0,0.0,0.0,0.0,0.0,0.0,0.0,0.0,0.0,0.0,0.0,0.0,0.0,-0.5484,-0.6661,-0.7159,-0.7259,-0.7511,-0.7792,-0.8168,-0.8787,0.0,0.0,0.0,0.0,0.0,0.0,0.0,0.0,0.0,0.0,0.0,0.0,0.0,0.0,0.0,0.0,0.0,0.0,0.0,0.0,0.0,0.0,0.0,0.0,-2.2648,-2.3511,-2.3511,-2.3914,-2.4339,-2.476,-2.4804,-2.4923,-2.5264,-2.5303,-2.5149,-2.4812,-2.4898,-2.4808,-2.4477,-2.4559,-2.4785,-2.5137,-2.5156,-2.5332,-2.5703,-2.5703,-2.5527,-2.5156,-2.5156,-2.498,-2.4629,-2.4102,-2.3672,0.0,-2.2812,-2.2617,-2.2656,-2.2656,-2.3144,0.0,0.0,0.0,0.0,0.0,-2.5703,-2.5703,0.9537,0.9357,0.9156,0.8929,0.8481,0.8061,0.7865,0.7197,0.6697,0.6638,0.0,0.0,0.0,0.0,0.0,0.0,0.0,0.0,0.0,0.0,0.0,-0.0918,0.0,0.0,0.0,0.0,0.0,0.0,0.0,0.0,0.0,0.0,0.0,0.0,0.0,0.0,0.0,0.0,0.0,0.0,0.0,0.0,-0.4161,-0.5337,-0.5838,-0.5958,-0.6464,-0.6996,-0.7557,-0.8173,0.0,0.0,0.0,0.0,0.0,0.0,0.0,0.0,0.0,0.0,0.0,0.0,0.0,0.0,0.0,0.0,0.0,0.0,0.0,0.0,0.0,0.0,0.0,0.0,-2.3676,-2.4171,-2.408,-2.4061,-2.421,-2.4614,-2.4577,-2.4657,-2.4995,-2.5014,-2.4716,-2.4014,-2.4019,-2.3752,-2.3037,0.0,0.0,0.0,0.0,-2.4922,-2.5684,-2.5703,-2.5254,-2.4394,-2.4394,-2.3984,-2.3184,-2.3047,-2.2578,-2.1894,-2.1797,-2.1758,-2.1758,-2.1758,-2.2266,-2.3125,-2.3945,-2.4258,-2.4375,-2.5195,-2.5586,-2.5703,0.9584,0.9433,0.926,0.8951,0.8583,0.8267,0.8075,0.768,0.7268,0.6891,0.6794,0.0,0.0,0.0,0.0,0.0,0.0,0.0,0.0,0.0,0.0,0.0,0.0,0.0,0.0,0.0,0.0,0.0,0.0,0.0,0.0,0.0,0.0,0.0,0.0,0.0,0.0,0.0,0.0,0.0,0.0,0.0,-0.4396,-0.4894,-0.536,-0.5808,-0.6224,-0.6512,-0.6939,-0.8313,-0.8584,-0.8694,-1.0528,0.0,0.0,0.0,0.0,0.0,0.0,0.0,0.0,0.0,0.0,0.0,0.0,0.0,0.0,0.0,0.0,0.0,0.0,0.0,0.0,-2.2997,-2.3676,-2.3969,-2.3327,-2.3235,-2.336,-2.3714,-2.3172,-2.2918,-2.3256,-2.3274,-2.3216,-2.3062,-2.3153,-2.3154,-2.3017,-2.3739,-2.4238,-2.4394,-2.5078,-2.5527,-2.5703,-2.5703,-2.5254,-2.4394,0.0,0.0,-2.3184,-2.2461,-2.2051,-2.1855,-2.1152,-2.0859,-2.0859,-2.0859,-2.1367,-2.2227,-2.3047,-2.3379,-2.3496,-2.4102,-2.4902,-2.5703,0.9768,0.9569,0.934,0.8962,0.8624,0.8335,0.8131,0.7826,0.7438,0.696,0.6908,0.0,0.0,0.0,0.0,0.0,0.0,0.0,0.0,0.0,0.0,0.0,0.0,0.0,0.0,0.0,0.0,0.0,0.0,0.0,0.0,0.0,0.0,0.0,0.0,0.0,0.0,0.0,0.0,0.0,0.0,0.0,-0.1992,-0.2769,-0.3513,-0.4227,-0.4551,-0.498,-0.5651,-0.6953,-0.7776,-0.8509,-1.0021,-1.1864,-1.3689,0.0,0.0,0.0,0.0,0.0,0.0,0.0,0.0,0.0,0.0,0.0,0.0,0.0,0.0,-2.1878,-2.2318,0.0,-2.3602,-2.3602,-2.3602,-2.3456,-2.307,-2.2263,-2.2029,-2.2811,-2.2531,-2.2424,-2.2775,-2.2793,-2.262,-2.2177,-2.2274,-2.2157,-2.1714,-2.2216,-2.2871,-2.3711,-2.4199,-2.4844,-2.5684,-2.5703,-2.5254,-2.4394,-2.3984,-2.3359,-2.2519,-2.1641,-2.125,-2.123,-2.0781,-2.0605,-2.0605,-2.0605,-2.0859,-2.1289,-2.1699,-2.2402,-2.3184,-2.3008,-2.3398,-2.416,0.9936,0.9699,0.9423,0.903,0.8679,0.8399,0.8238,0.7954,0.7576,0.7077,0.7026,0.6911,0.6633,0.6207,0.0,0.0,0.0,0.0,0.0,0.0,0.0,0.0,0.0,0.0,0.0,0.0,0.0,0.0,0.0,0.0,0.0,0.0,0.0,0.0,0.0,0.0,0.0,0.0,0.0,0.0,0.0,0.0,0.1152,0.0209,-0.1073,-0.238,-0.266,-0.3353,-0.4277,-0.5154,-0.6525,-0.8092,-0.921,-1.1622,-1.4244,-1.5193,-1.6493,0.0,0.0,0.0,0.0,0.0,0.0,0.0,0.0,0.0,-1.9987,-2.0786,-2.1922,-2.2776,-2.2776,-2.329,-2.3731,-2.3731,-2.3199,-2.2648,-2.2336,-2.1125,-2.0532,-2.1223,-2.1607,-2.1919,-2.2229,-2.2284,-2.2023,-2.1331,-2.1365,-2.1133,-2.0445,-2.0689,-2.1464,-2.2812,-2.3066,-2.3906,-2.543,-2.5449,-2.5019,-2.4141,-2.3496,-2.2656,-2.1621,-2.0918,-2.0605,-2.0605,-2.0605,-2.0605,-2.0605,-2.0605,-2.0605,-2.0605,-2.0605,-2.1465,-2.2617,-2.1914,-2.1894,-2.2461,0.9936,0.9776,0.9566,0.9223,0.8891,0.8669,0.8628,0.8438,0.8106,0.7517,0.7426,0.7223,0.6655,0.6336,0.6243,0.0,0.0,0.0,0.0,0.0,0.0,0.0,0.0,0.0,0.0,0.0,0.0,0.0,0.0,0.0,0.0,0.0,0.0,0.0,0.0,0.0,0.0,0.0,0.0,0.0,0.0,0.0,0.3626,0.3526,0.1573,-0.1177,-0.1732,-0.2445,-0.3211,-0.363,-0.5161,-0.7115,-0.8603,-1.1124,-1.3751,-1.5106,0.0,-1.8802,-1.9544,-1.9966,-2.0199,-2.025,-2.0057,-2.006,0.0,0.0,-2.0885,-2.1678,-2.1898,-2.1914,-2.1914,-2.2023,-2.2078,-2.2078,-2.2005,-2.14,-1.9913,-1.9546,-1.9011,-1.79,-1.9136,-2.0142,-2.0308,-2.0466,-2.0542,-2.0446,-2.0444,-2.0448,-2.0406,-2.1199,-2.177,-2.2031,-2.2734,-2.3574,-2.4531,-2.4551,-2.4102,-2.3242,-2.3203,-2.2344,-2.0742,-2.0644,-2.0605,-2.0605,-2.0605,-2.0605,-2.0605,-2.0605,-2.0605,-2.0605,-2.0605,-2.0723,-2.0879,-2.0781,-2.125,-2.1875,1.0094,0.9863,0.9657,0.9521,0.9157,0.8857,0.8767,0.8615,0.8316,0.7738,0.7665,0.7455,0.6828,0.6741,0.6817,0.7056,0.0,0.0,0.0,0.0,0.0,0.0,0.0,0.0,0.0,0.0,0.0,0.0,0.0,0.0,0.0,0.0,0.0,0.0,0.0,0.0,0.0,0.0,0.0,0.0,0.0,0.0,0.6672,0.6711,0.5605,0.3773,0.1533,0.0037,0.0,0.0,-0.3468,-0.5221,-0.7485,-0.9962,-1.2373,-1.393,-1.5784,0.0,-1.9039,-1.9881,-2.037,0.0,-2.0104,-2.0099,-2.0941,-2.0867,-2.0868,-2.1697,-2.1834,-2.1803,-2.1803,-2.1661,-2.1571,0.0,-2.0681,-1.9776,-1.921,-1.8315,-1.7548,-1.7069,-1.8186,-1.8881,-1.863,-1.8671,-1.8739,-1.8792,-1.9284,-1.9629,-1.969,-2.0553,-2.1319,-2.1875,-2.2227,-2.2793,-2.3633,-2.3633,-2.3477,-2.3144,-2.2676,-2.2051,-2.1348,-2.082,-2.0605,-2.0605,-2.0605,-2.0605,-2.0605,-2.0605,-2.0605,-2.0605,-2.0605,-2.0605,-2.0605,-2.0605,-2.082,-2.1094,1.0194,0.9976,0.9782,0.975,0.9458,0.9138,0.8911,0.8796,0.8538,0.7951,0.7882,0.7724,0.729,0.7194,0.7348,0.7912,0.8191,0.8297,0.0,0.0,0.0,0.0,0.0,0.0,0.0,0.0,0.0,0.0,0.0,0.0,0.0,0.0,0.0,0.0,0.0,0.0,0.0,0.0,0.0,0.0,0.0,0.0,0.9983,0.9896,0.9495,0.853,0.4994,0.2978,0.0,0.0,-0.1111,-0.3352,-0.5778,-0.8382,-1.099,-1.3038,-1.5042,-1.6949,-1.8633,-1.9522,0.0,-1.9914,-1.9694,-1.9533,-1.9807,-1.9676,-1.9675,-2.025,-2.0328,-2.0384,-2.0619,-2.0481,-2.0389,-2.0586,-1.9361,-1.8342,-1.8268,-1.7109,-1.6312,-1.6461,-1.7174,-1.7587,-1.7473,-1.7745,-1.7852,-1.7699,-1.8538,-1.9098,-1.9165,-2.001,-2.0783,-2.1482,-2.1523,-2.1934,-2.2754,-2.2773,-2.2793,-2.2832,-2.2207,-2.1777,-2.1523,-2.0898,-2.0605,-2.0605,-2.0605,-2.0605,-2.0605,-2.0605,-2.0605,-2.0605,-2.0605,-2.0605,-2.0605,-2.0605,-2.0605,-2.0605,1.0194,1.0091,0.9967,0.9904,0.9819,0.9617,0.9169,0.9078,0.884,0.8182,0.8088,0.8108,0.8156,0.7582,0.772,0.9032,0.8813,0.8751,0.9125,0.9392,0.0,0.0,0.0,0.0,0.0,0.0,0.0,0.0,0.0,0.0,0.0,0.0,0.0,0.0,0.0,0.0,0.0,0.0,0.0,0.0,0.0,0.0,1.3503,1.3103,1.2761,1.1938,0.7996,0.0,0.0,0.0,0.2061,-0.1744,-0.3313,-0.6327,0.0,-1.2819,-1.5533,0.0,0.0,0.0,-1.8864,-1.8923,-1.8799,-1.835,-1.7275,-1.7032,-1.6954,-1.6798,-1.6653,-1.6822,-1.7669,-1.7715,-1.7844,-1.857,-1.8039,-1.7276,-1.6497,-1.5849,-1.5438,-1.5438,-1.5653,-1.6134,0.0,-1.8115,-1.8439,-1.7663,-1.8467,-1.9033,-1.9093,-1.9938,-2.0455,-2.0547,-2.0603,-2.1055,-2.1934,-2.1934,-2.1934,-2.1934,-2.1914,-2.1465,-2.0644,-2.0605,-2.0605,-2.0605,-2.0605,-2.0605,-2.0605,-2.0605,-2.0605,-2.0605,-2.0605,-2.0605,-2.0605,-2.0605,-2.0605,-2.0605,1.0208,1.0121,1.0052,0.9967,0.9869,0.9695,0.935,0.9258,0.9068,0.8559,0.8144,0.0,0.0,0.0,0.0,0.0,0.8867,0.9043,0.9626,0.9405,0.0,0.0,0.0,0.0,0.0,0.0,0.0,0.0,0.0,0.0,0.0,0.0,0.0,0.0,0.0,0.0,0.0,0.0,0.0,0.0,0.0,0.0,1.6683,1.6876,1.6481,1.563,0.0,0.0,0.0,0.0,0.0,0.4683,0.3348,0.0,0.0,-0.7389,0.0,-1.6768,-1.6567,0.0,-1.7706,-1.7547,-1.7396,-1.7172,-1.679,-1.6631,-1.6504,-1.6246,-1.6519,-1.6832,-1.695,-1.7319,-1.7549,-1.7308,-1.6691,-1.6023,-1.5401,-1.4677,-1.4435,-1.5068,-1.5696,0.0,0.0,0.0,0.0,-1.7545,-1.8432,-1.9033,-1.9093,-1.9934,-2.0432,-2.0506,-2.0564,-2.0742,-2.1035,-2.0992,-2.0992,-2.1035,-2.1035,-2.0879,-2.0605,-2.0605,-2.0605,-2.0605,-2.0605,-2.0605,-2.0605,-2.0605,-2.0605,-2.0605,-2.0605,-2.0605,-2.0605,-2.0605,-2.0605,-2.0605,1.0194,1.0178,1.0121,1.0025,0.9916,0.0,0.0,0.0,0.0,0.0,0.0,0.0,0.0,0.0,0.0,0.0,0.0,0.9049,0.9861,0.0,0.0,0.0,0.0,0.0,0.0,0.0,0.0,0.0,0.0,0.0,0.0,0.0,0.0,0.0,0.0,0.0,0.0,0.0,0.0,0.0,0.0,0.0,1.988,1.9985,1.9418,0.0,0.0,0.0,0.0,0.0,0.0,0.0,0.0,0.0,0.0,0.0,-0.8992,-1.3407,-1.3895,-1.4995,-1.5968,-1.5716,-1.5805,-1.5762,-1.5086,-1.522,-1.5453,-1.5294,-1.5724,-1.6129,-1.6038,-1.6352,-1.6481,-1.6037,-1.5387,-1.4811,-1.4458,-1.3888,-1.3917,-1.5087,-1.585,-1.6637,0.0,0.0,0.0,-1.7414,-1.8517,-1.9175,-1.9001,-1.9823,-2.0337,-2.0429,-2.0486,-2.0537,-2.0537,-2.0482,-2.0506,-2.0564,-2.0564,-2.0585,-2.0605,-2.0605,-2.0605,-2.0605,-2.0605,-2.0605,-2.0605,-2.0605,-2.0605,-2.0605,-2.0605,-2.0605,-2.0605,-2.0605,-2.0605,-2.0605,1.0203,1.0199,1.0159,0.0,0.0,0.0,0.0,0.0,0.0,0.0,0.0,0.0,0.0,0.0,0.0,0.0,0.0,0.0,0.9782,0.0,0.0,0.0,0.0,0.0,1.184,1.2752,0.0,0.0,0.0,0.0,0.0,0.0,0.0,0.0,0.0,0.0,0.0,0.0,0.0,0.0,0.0,0.0,2.2785,2.2247,0.0,0.0,0.0,0.0,0.0,0.0,0.0,0.0,0.0,0.0,0.0,0.0,0.0,-0.817,-1.0801,-1.2539,-1.3546,-1.3369,-1.3935,-1.404,-1.224,-1.2842,-1.3815,-1.3815,-1.4213,-1.4638,-1.4886,0.0,-1.476,-1.478,-1.4218,-1.3785,-1.3705,-1.3479,-1.3869,0.0,0.0,0.0,0.0,0.0,0.0,-1.7331,0.0,-1.9511,-1.8869,-1.9641,-2.0164,-2.0282,-2.0357,-2.041,-2.041,-2.041,-2.0432,-2.0484,-2.0506,-2.0539,-2.0586,-2.0605,-2.0605,-2.0605,-2.0605,-2.0605,-2.0605,-2.0605,-2.0605,-2.0605,-2.0605,-2.0605,-2.0605,-2.0605,-2.0605,-2.0605,0.0,0.0,0.0,0.0,0.0,0.0,0.0,0.0,0.0,0.0,0.0,0.0,0.0,0.0,0.0,0.0,0.0,0.0,0.0,0.0,0.0,0.0,0.0,0.0,0.0,0.0,0.0,0.0,0.0,0.0,0.0,0.0,0.0,0.0,0.0,0.0,0.0,0.0,0.0,0.0,0.0,0.0,2.2061,0.0,0.0,0.0,0.0,0.0,0.0,0.0,0.0,0.0,0.0,0.764,0.3564,0.0,0.0,-0.6162,-0.6281,-0.7791,-0.9366,-0.9413,-1.0137,-1.0846,-1.08,-1.1629,-1.2439,-1.2535,-1.337,-1.4045,-1.3922,-1.4716,0.0,-1.4667,-1.4912,0.0,-1.377,-1.3569,0.0,-1.4837,0.0,-1.6208,-1.8031,-1.9105,0.0,0.0,-1.9736,-2.0337,-1.9601,-1.9905,-2.0115,-2.0145,-2.0318,-2.041,-2.041,-2.041,-2.0374,-2.0347,-2.0444,-2.0511,-2.0536,-2.0585,-2.0605,-2.0605,-2.0605,-2.0605,-2.0605,-2.0605,-2.0605,-2.0605,-2.0605,-2.0605,-2.0605,-2.0605,-2.0605,-2.0605,0.0,0.0,0.0,0.0,0.0,0.0,0.0,0.0,0.0,0.0,0.0,0.0,0.0,0.0,0.0,0.0,0.0,0.0,0.0,0.0,0.0,0.0,0.0,0.0,0.0,0.0,0.0,0.0,0.0,0.0,0.0,0.0,0.0,0.0,0.0,0.0,0.0,0.0,0.0,0.0,0.0,0.0,0.0,0.0,0.0,0.0,0.0,0.0,0.0,0.0,0.0,1.553,1.3341,1.0271,0.7231,0.6131,0.0,-0.2245,-0.3021,-0.4816,-0.6541,-0.679,-0.7641,-0.8578,-0.9166,-1.0066,-1.0996,-1.1895,-1.2638,-1.309,-1.2869,-1.3885,0.0,0.0,0.0,0.0,-1.3864,-1.3643,-1.3907,0.0,-1.5236,0.0,-1.7625,-1.8508,-1.8893,0.0,-1.9918,-2.0321,-1.9585,-1.9804,-2.0002,-2.0054,-2.0244,-2.0363,-2.0363,-2.0363,-2.0338,-2.0294,-2.039,-2.0429,-2.0467,-2.0506,-2.0537,-2.0543,0.0,-2.0541,-2.0605,-2.0565,-2.0565,-2.0605,-2.0605,-2.0605,-2.0605,-2.0605,-2.0605,-2.0605,0.0,0.0,0.0,0.0,0.0,0.0,0.0,0.0,0.0,0.8835,0.86,0.0,0.0,0.0,0.0,0.0,0.0,0.0,0.0,0.0,0.0,0.0,0.0,0.0,0.0,0.0,0.0,0.0,0.0,0.0,0.0,0.0,0.0,0.0,0.0,0.0,0.0,0.0,0.0,0.0,0.0,0.0,0.0,0.0,0.0,0.0,0.0,0.0,0.0,0.0,1.7164,1.5795,1.3684,1.1715,0.9799,0.775,0.5101,0.229,-0.0246,-0.246,-0.4164,-0.4662,-0.5586,-0.6581,-0.7308,-0.8208,-0.9371,-1.1148,0.0,-1.1873,-1.1766,-1.2697,-1.3244,-1.2654,0.0,-1.3566,-1.3882,-1.3666,-1.392,-1.5006,-1.5399,-1.613,-1.754,-1.7974,-1.8253,-1.8444,-1.924,-1.956,-1.9191,-1.9561,-1.9847,-2.0003,-2.0161,-2.0277,-2.0312,-2.0312,-2.0292,-2.0295,-2.0307,-2.0327,-2.0398,-2.0406,-2.0432,-2.0482,0.0,0.0,-2.0565,-2.0515,-2.0539,-2.0585,-2.0585,-2.0586,-2.0605,-2.0586,-2.0586,-2.0605,0.0,0.0,0.0,0.0,0.0,0.0,0.0,0.0,0.0,0.0,0.0,0.0,0.0,0.0,0.0,0.0,0.0,0.0,0.0,0.0,0.0,0.0,0.0,0.0,0.0,0.0,0.0,0.0,0.0,0.0,0.0,0.0,0.0,0.0,0.0,0.0,0.0,0.0,0.0,0.0,0.0,0.0,0.0,0.0,0.0,0.0,0.0,0.0,0.0,0.0,1.7314,1.4944,1.1939,1.0636,0.9827,0.7896,0.63,0.4826,0.3389,0.1499,-0.0327,-0.1335,-0.2416,-0.3547,-0.4944,-0.597,0.0,0.0,-0.98,-1.0481,-1.043,-1.1633,-1.254,-1.236,-1.3139,-1.3709,-1.3599,-1.3536,-1.3684,0.0,-1.4624,-1.5316,0.0,0.0,0.0,0.0,0.0,-1.7757,-1.8964,-1.9423,-1.975,-1.9984,-2.0031,-2.0124,-2.0304,-2.0312,-2.03,-2.0296,-2.0296,-2.0319,-2.0311,-2.037,-2.0414,-2.0422,-2.0414,0.0,-2.0435,-2.048,-2.051,-2.0513,-2.0513,-2.0542,-2.0586,-2.054,-2.0542,-2.0605,0.0,0.0,0.0,0.0,0.0,0.0,0.0,0.0,0.0,0.0,0.8129,0.8633,0.0,0.0,0.0,0.0,0.0,0.0,0.0,0.0,0.0,0.0,0.0,0.0,0.0,0.0,0.0,0.0,0.0,0.0,0.0,0.0,0.0,0.0,0.0,0.0,0.0,0.0,0.0,0.0,0.0,0.0,0.0,0.0,0.0,0.0,0.0,0.0,0.0,0.0,1.7299,1.4592,1.2395,1.09,0.9692,0.8251,0.6906,0.5637,0.4395,0.2935,0.158,0.0763,-0.0077,-0.1122,-0.2769,0.0,0.0,0.0,-0.7857,-0.8583,-0.883,-1.0176,0.0,-1.1197,-1.2272,-1.3284,-1.3709,-1.3743,0.0,-1.4631,-1.4653,-1.4819,0.0,0.0,0.0,0.0,0.0,-1.6517,-1.7383,-1.7917,-1.8316,-1.864,-1.9049,-1.9315,-1.9421,-1.9831,-2.0069,-2.0133,-2.0145,-2.02,-2.0301,-2.0328,-2.0349,-2.0342,-2.0344,0.0,-2.041,-2.0406,-2.0422,-2.0441,-2.0441,-2.0472,-2.0506,-2.0508,-2.0534,-2.0601,0.0,0.0,0.0,0.0,0.0,0.0,0.0,0.8422,0.829,0.7502,0.7694,0.8259,0.9177,0.9578,0.0,0.0,0.0,0.0,0.0,0.0,0.0,0.0,0.0,0.0,0.0,0.0,0.0,0.0,0.0,0.0,0.0,0.0,0.0,0.0,0.0,0.0,0.0,0.0,0.0,0.0,0.0,0.0,0.0,0.0,0.0,0.0,0.0,0.0,0.0,0.0,1.7007,1.4403,1.3206,1.1533,0.9792,0.8647,0.7481,0.6238,0.4758,0.3743,0.2929,0.2258,0.1729,0.095,-0.0682,-0.1551,0.0,0.0,-0.5899,-0.6626,-0.7169,-0.8468,-0.9523,0.0,-1.0845,-1.2156,-1.3309,-1.3496,-1.3842,0.0,-1.4607,0.0,0.0,0.0,0.0,0.0,0.0,0.0,-1.5974,-1.6499,-1.6929,-1.7208,-1.7877,-1.8332,-1.8534,-1.9205,-1.9687,-1.9963,-1.9963,-2.005,-2.0241,-2.0241,-2.0258,-2.0302,-2.0304,0.0,0.0,-2.033,-2.0327,-2.037,-2.037,-2.0398,-2.0395,-2.0438,-2.0511,-2.0599,0.0,0.0,0.0,0.0,0.0,0.0,0.0,0.8371,0.8115,0.8034,0.7592,0.7523,0.8166,0.8907,0.0,0.0,0.0,0.0,0.0,0.0,0.0,0.0,0.0,0.0,0.0,0.0,0.0,0.0,0.0,0.0,0.0,0.0,0.0,0.0,0.0,0.0,0.0,0.0,0.0,0.0,0.0,0.0,0.0,0.0,0.0,0.0,0.0,0.0,0.0,0.0,0.0,1.4097,1.3258,1.1949,1.0449,0.913,0.0,0.0,0.5713,0.4944,0.4426,0.3267,0.2949,0.2557,0.131,0.0,-0.0474,-0.2582,-0.3889,-0.4814,-0.5417,-0.6464,0.0,0.0,0.0,0.0,-1.1589,-1.2004,-1.2597,-1.3791,0.0,0.0,0.0,0.0,0.0,0.0,0.0,0.0,-1.5924,-1.6283,-1.652,-1.6675,-1.692,-1.7479,-1.8334,-1.8587,-1.9076,-1.9813,-1.9813,-1.989,-2.0031,-2.0031,-2.0124,-2.03,-2.0292,0.0,0.0,-2.0302,-2.0294,-2.0299,-2.0299,-2.0342,-2.0383,-2.0332,-2.0439,-2.0605,0.0,0.0,0.0,0.0,0.0,0.0,0.0,0.7964,0.788,0.7287,0.7096,0.7123,0.7347,0.7846,0.853,0.0,0.0,0.0,0.0,0.0,0.0,0.0,0.0,0.0,0.0,0.0,0.0,0.0,0.0,0.0,0.0,0.0,0.0,0.0,0.0,0.0,0.0,0.0,0.0,0.0,0.0,0.0,0.0,0.0,0.0,0.0,0.0,0.0,0.0,0.0,0.0,0.0,1.3772,1.2758,0.0,0.0,0.946,0.8475,0.7249,0.6247,0.5397,0.4658,0.4416,0.405,0.287,0.0,0.1104,-0.0698,-0.2284,-0.3554,-0.4109,-0.5144,-0.5998,0.0,-0.7098,-0.8112,-0.9207,-0.9701,-1.0606,-1.2373,-1.205,0.0,0.0,0.0,0.0,0.0,0.0,0.0,-1.3945,-1.418,-1.4432,-1.4725,-1.5168,-1.5714,-1.6365,-1.7252,-1.7979,-1.8545,-1.8996,-1.9267,-1.94,-1.94,-1.9593,-1.9944,-1.9944,0.0,0.0,-2.0292,-2.0306,-2.0306,-2.0306,-2.0314,-2.0405,-2.0901,-2.0803,-2.0574,0.0,0.0,0.0,0.0,0.0,0.0,0.7414,0.7518,0.7474,0.6838,0.6714,0.6744,0.6878,0.7117,0.7477,0.8037,0.0,0.0,0.0,0.0,0.0,0.0,0.0,0.0,0.0,0.0,0.0,0.0,0.0,0.0,0.0,0.0,0.0,0.0,0.0,0.0,0.0,0.0,0.0,0.0,0.0,0.0,0.0,0.0,0.0,0.0,0.0,0.0,0.0,0.0,0.0,0.0,0.0,0.0,0.0,0.0,1.0275,0.9201,0.8171,0.7227,0.6358,0.5815,0.5455,0.5014,0.0,0.3236,0.2178,0.0572,-0.1016,-0.2378,-0.3146,-0.4121,-0.4831,0.0,-0.5804,-0.6647,-0.7524,-0.8017,-0.8974,0.0,0.0,0.0,0.0,0.0,0.0,0.0,0.0,0.0,0.0,-1.2332,-1.2667,-1.3226,-1.3701,-1.423,-1.4789,-1.6081,-1.7011,-1.7535,-1.8341,-1.8819,-1.894,-1.894,-1.9154,-1.9495,0.0,0.0,0.0,-2.0115,-2.0188,-2.0331,-2.0562,-2.0658,-2.0743,-2.1459,-2.1434,-2.1145,0.0,0.0,0.0,0.0,0.0,0.0,0.0,0.7064,0.6887,0.7081,0.6571,0.6394,0.6845,0.6908,0.6837,0.6629,0.0,0.0,0.0,0.0,0.0,0.0,0.0,0.0,0.0,0.0,0.0,0.0,0.0,0.0,0.0,0.0,0.0,0.0,0.0,0.0,0.0,0.0,0.0,0.0,0.0,0.0,0.0,0.0,0.0,0.0,0.0,0.0,0.0,0.0,0.0,0.0,0.0,0.0,0.0,0.0,1.0771,0.9988,0.8188,0.7695,0.7471,0.6518,0.5829,0.5294,0.4974,0.3943,0.2694,0.1185,-0.0089,-0.1286,-0.2492,-0.3214,-0.3796,-0.4303,-0.479,-0.5561,-0.6842,-0.7374,0.0,0.0,0.0,0.0,0.0,0.0,0.0,0.0,0.0,0.0,0.0,-1.1208,-1.1723,-1.2575,-1.2806,-1.33,-1.4091,-1.5312,-1.6307,-1.7128,-1.8122,-1.8681,-1.8802,-1.8802,-1.8881,0.0,0.0,0.0,0.0,-1.9715,-1.9944,-2.0389,-2.1177,-2.1485,-2.1523,-2.1872,-2.2324,-2.2544,0.0,0.0,0.0,0.0,0.0,0.0,0.0,0.6591,0.6507,0.6305,0.6112,0.6153,0.6583,0.6505,0.6517,0.6785,0.0,0.0,0.0,0.0,0.0,0.0,0.0,0.0,0.0,0.0,0.0,0.0,0.0,0.0,0.0,0.0,0.0,0.0,0.0,0.0,0.0,0.0,0.0,0.0,0.0,0.0,0.0,0.0,0.0,0.0,0.0,0.0,0.0,0.0,0.0,0.0,0.0,0.0,0.0,1.0276,1.022,1.0277,0.9711,0.8809,0.7894,0.7315,0.6598,0.5839,0.5084,0.442,0.3533,0.1862,0.0888,-0.0177,-0.1781,-0.2586,-0.3194,-0.3883,0.0,0.0,0.0,0.0,0.0,0.0,0.0,0.0,0.0,0.0,0.0,0.0,0.0,0.0,0.0,-1.016,-1.0791,-1.1953,-1.2087,-1.2439,-1.3073,-1.4463,-1.5371,-1.5822,-1.7339,-1.8065,-1.8115,-1.7873,0.0,0.0,0.0,0.0,0.0,-1.9431,-1.9582,-1.9771,-2.0782,-2.1157,-2.1301,-2.2454,-2.2857,-2.2887,0.0,0.0,0.0,0.0,0.0,0.0,0.0,0.5893,0.5893,0.5638,0.5697,0.5892,0.6237,0.6162,0.6334,0.6931,0.0,0.0,0.0,0.0,0.0,0.0,0.0,0.0,0.0,0.0,0.0,0.0,0.0,0.0,0.0,0.0,0.0,0.0,0.0,0.0,0.0,0.0,0.0,0.0,0.0,0.0,1.5724,0.0,0.0,0.0,0.0,0.0,0.0,0.0,0.0,0.0,0.0,0.0,0.0,0.0,0.9298,0.9563,0.9491,0.8839,0.7974,0.727,0.6535,0.5779,0.491,0.4341,0.3619,0.2087,0.1274,0.035,-0.118,-0.2117,-0.2861,-0.3363,-0.3685,0.0,0.0,0.0,0.0,0.0,0.0,0.0,0.0,0.0,0.0,0.0,0.0,0.0,0.0,-0.8551,-0.9036,-0.9832,-1.0615,-1.1279,-1.1762,-1.3049,-1.4043,-1.4727,-1.6193,-1.7077,-1.7425,-1.7199,0.0,0.0,0.0,0.0,0.0,-1.8723,-1.9099,-1.9586,-2.0703,-2.134,-2.1802,-2.3321,-2.3803,-2.3885,0.0,0.0,0.0,0.0,0.0,0.0,0.0,0.0,0.0,0.0,0.5271,0.5549,0.5845,0.5867,0.6208,0.0,0.0,0.0,0.0,0.0,0.0,0.0,0.0,0.0,0.0,0.0,0.0,0.0,0.96,1.018,1.102,0.0,0.0,0.0,0.0,0.0,0.0,0.0,0.0,0.0,0.0,1.4712,0.0,0.0,0.0,0.0,0.0,0.0,0.0,0.0,0.0,0.0,0.0,0.0,0.0,0.0,0.0,0.0,0.0,0.7863,0.7663,0.6619,0.5887,0.5213,0.4561,0.384,0.0,0.2035,0.1209,0.0387,-0.0703,-0.1794,-0.2624,-0.279,0.0,0.0,0.0,0.0,0.0,0.0,0.0,0.0,0.0,0.0,0.0,0.0,0.0,0.0,0.0,-0.646,-0.6602,-0.6602,-0.8414,-0.9664,-1.0225,-1.1307,-1.244,-1.37,-1.4744,-1.5692,-1.6528,-1.657,0.0,0.0,0.0,0.0,0.0,-1.7608,-1.844,-1.9668,-2.0807,-2.1804,-2.2726,-2.4209,-2.4948,-2.5229,0.0,0.0,0.0,0.0,0.0,0.0,0.0,0.0,0.0,0.0,0.0,0.5045,0.547,0.5572,0.0,0.0,0.0,0.0,0.0,0.0,0.0,0.0,0.0,0.0,0.0,0.0,0.0,0.7737,0.7949,0.8461,0.9216,0.9431,0.0,0.0,0.0,0.0,0.0,0.0,0.0,0.0,1.3827,1.3252,0.0,0.0,0.0,0.0,0.9105,0.8416,0.0,0.0,0.0,0.0,0.0,0.0,0.0,0.0,0.6848,0.6855,0.6376,0.0,0.704,0.6875,0.5663,0.4495,0.0,0.3614,0.2644,0.1958,0.0,0.0492,-0.066,-0.1133,-0.1538,0.0,0.0,0.0,0.0,0.0,0.0,0.0,0.0,0.0,0.0,0.0,0.0,0.0,0.0,0.0,0.0,-0.4542,-0.4575,-0.4575,-0.503,-0.641,-0.8763,-1.034,-1.1288,-1.1628,-1.3046,-1.3833,-1.4042,-1.4193,0.0,0.0,0.0,0.0,-1.6871,-1.6105,-1.7035,-1.907,-1.9821,-2.0906,-2.2246,-2.3792,-2.4375,-2.4466,0.0,0.0,0.0,0.0,0.0,0.0,0.0,0.0,0.0,0.0,0.0,0.0,0.0,0.0,0.0,0.0,0.0,0.0,0.0,0.0,0.0,0.0,0.0,0.0,0.0,0.0,0.0,0.0,0.0,0.7907,0.0,0.0,0.0,0.0,0.0,0.0,0.0,0.0,0.0,0.0,1.2384,0.0,0.0,0.0,0.0,0.0,0.7907,0.7233,0.0,0.6256,0.5881,0.5629,0.0,0.0,0.0,0.0,0.5781,0.5745,0.5499,0.6026,0.6531,0.6066,0.5184,0.4316,0.3819,0.0,0.0,0.0,0.0,0.0,0.0,0.0,0.0,0.0,-0.2093,0.0,0.0,0.0,0.0,0.0,0.0,0.0,0.0,0.0,0.0,0.0,0.0,0.0,0.0,-0.2719,-0.2712,-0.2712,-0.3031,-0.4563,-0.7369,-0.8319,-0.9367,-1.0497,-1.1583,-1.2338,-1.2758,-1.3121,-1.3642,0.0,0.0,0.0,-1.5037,-1.4544,-1.5482,-1.7284,-1.8068,-1.9894,-2.2184,-2.3015,-2.2814,-2.2343,0.0,0.0,0.0,0.0,0.0,0.0,0.0,0.0,0.0,0.0,0.0,0.0,0.0,0.0,0.0,0.0,0.0,0.0,0.0,0.0,0.0,0.0,0.0,0.0,0.0,0.0,0.0,0.0,0.0,0.0,0.0,0.0,0.0,0.0,0.0,0.0,0.0,0.0,0.0,0.0,1.0899,0.0,0.0,0.0,0.0,0.0,0.0,0.0,0.0,0.5549,0.5141,0.4955,0.5177,0.0,0.0,0.0,0.0,0.0,0.4959,0.5468,0.58,0.4872,0.4537,0.4125,0.3122,0.0,0.0,0.0,0.0,0.0,0.0,-0.0407,0.0,0.0,0.0,0.0,0.0,0.0,0.0,0.0,0.0,0.0,0.0,0.0,0.0,0.0,0.0,0.0,0.0,-0.0936,-0.0903,-0.0903,-0.1422,-0.2872,-0.5203,-0.5645,-0.6915,-0.9014,-0.9543,-1.0233,-1.1003,-1.1546,-1.1885,0.0,0.0,0.0,-1.2231,-1.2291,-1.3353,-1.5,-1.573,-1.8283,-2.1617,-2.1956,-2.1084,-2.0109,0.0,0.0,0.0,0.0,0.0,0.0,0.0,0.0,0.0,0.0,0.0,0.0,0.0,0.0,0.0,0.0,0.0,0.0,0.0,0.0,0.0,0.0,0.0,0.0,0.0,0.0,0.0,0.0,0.0,0.0,0.7271,0.7067,0.7382,0.0,0.0,0.0,0.0,0.0,0.0,0.9508,0.9282,0.0,0.0,0.0,0.0,0.0,0.0,0.0,0.0,0.4266,0.4314,0.4488,0.4536,0.0,0.0,0.0,0.0,0.0,0.4397,0.4291,0.4238,0.4418,0.3721,0.2948,0.2773,0.0,0.0,0.0,0.0,0.0,0.0,0.0,0.0,0.0,0.0,0.0,0.0,0.0,0.0,0.0,0.0,0.0,0.0,0.0,0.0,0.0,0.0,0.0,0.0,0.0701,0.0903,0.0903,0.1165,0.0769,-0.0375,-0.273,-0.4128,-0.4525,-0.5045,-0.5355,-0.5542,-0.6049,-0.6747,0.0,0.0,-0.7229,-0.8601,-0.7433,-0.9409,-1.3073,-1.2636,-1.489,-1.8547,-2.0507,-2.0548,-2.0049,0.0,0.0,0.0,0.0,0.0,0.0,0.0,0.0,0.0,0.0,0.0,0.0,0.0,0.0,0.0,0.0,0.0,0.0,0.0,0.0,0.0,0.0,0.0,0.0,0.0,0.0,0.0,0.0,0.0,0.6667,0.6459,0.6813,0.7341,0.8015,0.0,0.0,0.0,0.0,0.0,0.8706,0.0,0.0,0.0,0.0,0.0,0.0,0.0,0.0,0.0,0.0,0.3354,0.3519,0.375,0.0,0.0,0.0,0.0,0.0,0.3181,0.2956,0.2846,0.296,0.267,0.2223,0.1908,0.0,0.0,0.0,0.0,0.0,0.0,0.0,0.0,0.0,0.0,0.0,0.0,0.0,0.0,0.0,0.0,0.0,0.0,0.0,0.0,0.0,0.0,0.0,0.0,0.0,0.2338,0.2338,0.2795,0.2849,0.2418,0.1077,-0.0295,-0.163,-0.1853,-0.1961,-0.2003,-0.3204,-0.4004,-0.4404,0.0,-0.5569,-0.6335,-0.5696,-0.7238,-1.0089,-1.1231,-1.3034,-1.5396,-1.8073,-1.914,-1.9528,0.0,0.0,0.0,0.0,0.0,0.0,0.0,0.0,0.0,0.0,0.0,0.0,0.0,0.0,0.0,0.0,0.0,0.0,0.0,0.0,0.0,0.0,0.0,0.0,0.0,0.0,0.0,0.6412,0.6391,0.6173,0.583,0.6782,0.7456,0.0,0.0,0.0,0.0,0.0,0.0,0.7838,0.0,0.0,0.0,0.0,0.0,0.0,0.0,0.0,0.0,0.0,0.0,0.0,0.0,0.0,0.0,0.3122,0.2829,0.2373,0.2186,0.1968,0.1705,0.1647,0.1712,0.1666,0.1164,0.0,0.0,0.0,0.0,0.0,0.0,0.0,0.0,0.0,0.0,0.0,0.0,0.0,0.0,0.0,0.0,0.0,0.0,0.0,0.0,0.0,0.0,0.0,0.0,0.0,0.3524,0.3524,0.4049,0.4386,0.4474,0.4568,0.3363,0.0876,0.095,0.0986,0.0945,-0.0245,-0.0814,-0.0856,-0.2169,-0.2699,-0.2744,-0.3138,-0.439,-0.6302,-0.8153,-1.0548,-1.3121,-1.4892,-1.67,-1.8491,0.0,0.0,0.0,0.0,0.0,0.0,0.0,0.0,0.0,0.0,0.0,0.0,0.0,0.0,0.0,0.0,0.0,0.0,0.0,0.0,0.0,0.0,0.0,0.0,0.0,0.687,0.6726,0.5583,0.5464,0.5456,0.5547,0.6553,0.6973,0.0,0.0,0.0,0.0,0.0,0.0,0.6631,0.6661,0.0,0.0,0.0,0.0,0.0,0.0,0.0,0.0,0.0,0.0,0.0,0.0,0.0,0.303,0.2823,0.2504,0.2191,0.2067,0.1506,0.1003,0.113,0.1176,0.0,0.0944,0.0466,0.0,0.0,0.0,0.0,0.0,0.0,0.0,0.0,0.0,0.0,0.0,0.0,0.0,0.0,0.0,0.0,0.0,0.0,0.0,0.0,0.0,0.0,0.0,0.0,0.0,0.4503,0.5255,0.5812,0.6116,0.6908,0.5995,0.3442,0.3822,0.3976,0.4014,0.4362,0.4554,0.4554,0.4429,0.4345,0.4236,0.2705,0.0697,-0.1328,-0.1003,-0.5769,-1.2681,-1.0746,-1.2806,-1.6638,0.0,0.0,0.0,0.0,0.0,0.0,0.0,0.0,0.0,0.0,0.0,0.0,0.0,0.0,0.0,0.0,0.0,0.0,0.0,0.0,0.0,0.0,0.0,0.4751,0.4181,0.5047,0.5258,0.4746,0.4704,0.4819,0.5074,0.5716,0.0,0.0,0.0,0.0,0.0,0.0,0.0,0.0,0.5968,0.5605,0.0,0.0,0.0,0.0,0.0,0.0,0.0,0.0,0.2199,0.0,0.0,0.0,0.0,0.0,0.1786,0.1257,0.1198,0.0773,0.0362,0.042,0.0434,0.0,0.0,-0.0214,-0.0542,0.0,0.0,0.0,0.0,0.0,0.0,0.0,0.0,0.0,0.0,0.0,0.0,0.0,0.0,0.0,0.0,0.0,0.0,0.0,0.0,0.0,0.0,0.0,0.0,0.6507,0.6815,0.7164,0.753,0.8036,0.7692,0.6509,0.7484,0.7966,0.7958,0.7738,0.7277,0.6624,0.5891,0.5209,0.4542,0.3527,0.1718,-0.0328,-0.01,-0.4182,-1.0205,-1.0043,-1.2221,-1.5354,0.0,0.0,0.0,0.0,0.0,0.0,0.0,0.0,0.0,0.0,0.0,0.0,0.0,0.0,0.0,0.0,0.0,0.0,0.0,0.0,0.0,0.0,0.0,0.3438,0.2767,0.335,0.3696,0.3785,0.3888,0.4042,0.4283,0.0,0.0,0.0,0.0,0.0,0.0,0.0,0.0,0.0,0.4891,0.4428,0.0,0.0,0.0,0.0,0.0,0.0,0.0,0.0,0.1926,0.0,0.0,0.0,0.0,0.0,0.0,0.066,0.0503,0.0243,0.0,0.0,0.0,0.0,0.0,-0.0376,0.0,0.0,0.0,0.0,0.0,0.0,0.0,0.0,0.0,0.0,0.0,0.0,0.0,0.0,0.0,0.0,0.0,0.0,0.0,0.0,0.0,0.0,0.0,0.0,0.0,0.0,0.783,0.807,0.8449,0.8972,0.908,0.8873,1.0509,1.0914,1.0205,0.9906,0.9389,0.8619,0.7865,0.7004,0.6133,0.5188,0.2885,0.0,0.0,-0.2944,-0.7336,-0.8159,-1.0246,-1.2916,0.0,0.0,0.0,0.0,0.0,0.0,0.0,0.0,0.0,0.0,0.0,0.0,0.0,0.0,0.0,0.0,0.0,0.0,0.0,0.0,0.0,0.0,0.0,0.1377,0.1966,0.1855,0.2088,0.2697,0.2965,0.3108,0.312,0.0,0.0,0.0,0.0,0.0,0.0,0.0,0.0,0.0,0.0,0.3001,0.2576,0.0,0.0,0.0,0.0,0.0,0.0,0.0,0.2211,0.2129,0.0,0.0,0.0,0.0,0.0545,0.0597,0.0123,0.0,0.0,0.0,0.0,0.0,0.0,0.0,0.0,0.0,0.0,0.0,0.0,0.0,0.0,0.0,0.0,0.0,0.0,0.0,0.0,0.0,0.0,0.0,0.0,0.0,0.0,0.0,0.0,0.0,0.0,0.0,0.0,0.0,0.8099,0.8477,0.8789,0.9802,1.0295,1.0339,1.2524,1.2409,1.0244,1.0809,1.1008,1.1008,1.1008,1.071,1.0153,0.8503,0.4741,0.005,0.0052,-0.1707,-0.4277,-0.4334,-0.6183,-0.8994,0.0,0.0,0.0,0.0,0.0,0.0,0.0,0.0,0.0,0.0,0.0,0.0,0.0,0.0,0.0,0.0,0.0,0.0,0.0,0.0,0.0,0.0,0.0,0.0,0.0,0.0,0.1669,0.2697,0.2783,0.2786,0.0,0.0,0.0,0.3045,0.0,0.0,0.0,0.0,0.0,0.0,0.0,0.2107,0.1678,0.0,0.0,0.0,0.0,0.0,0.0,0.0,0.0,0.0,0.0,0.0,0.0,0.0,0.0558,0.0162,0.004,0.0,0.0,0.0,0.0,0.0,0.0,0.0,0.0,0.0,0.0,0.0,0.0,0.0,0.0,0.0,0.0,0.0,0.0,0.0,0.0,0.0,0.0,0.0,0.0,0.0,0.0,0.0,0.0,0.0,0.0,0.0,0.0,0.0,0.8322,0.8546,0.9209,1.0154,1.0539,1.0306,1.2017,1.2749,1.2616,1.3154,1.2812,1.1766,1.1611,1.0781,0.9487,0.8724,0.7039,0.4836,0.4021,0.1222,-0.2247,-0.156,-0.4403,-0.8642,0.0,0.0,0.0,0.0,0.0,0.0,0.0,0.0,0.0,0.0,0.0,0.0,0.0,0.0,0.0,0.0,0.0,0.0,0.0,0.0,0.0,0.0,0.0,0.0,0.0,0.0652,0.0977,0.0,0.0,0.0,0.0,0.0,0.0,0.1931,0.0,0.0,0.0,0.0,0.0,0.0,0.0,0.0807,0.0364,0.0,0.0,0.0,0.0,0.0,0.0,0.0,0.0,0.0,0.0,0.0,0.0,0.1044,0.0545,0.0,0.0,0.0,0.0,0.0,0.0,0.0,0.0,0.0,0.0,0.0,0.0,0.0,0.0,0.0,0.0,0.0,0.0,0.0,0.0,0.0,0.0,0.0,0.0,0.0,0.0,0.0,0.0,0.0,0.0,0.0,0.0,0.0,0.0,0.0,0.8794,0.9027,0.9777,1.0829,1.1332,1.1271,1.2936,1.3969,1.4387,1.3866,1.3146,1.22,1.1513,1.0764,0.9999,0.9519,0.823,0.648,0.5944,0.3304,-0.0155,-0.0054,-0.275,-0.6549,0.0,0.0,0.1545,0.095,0.0,0.0,0.0,0.0,0.0,0.0,0.0,-0.0045,0.0,0.0,0.0,-0.009,0.0,0.0,0.0,0.0,0.0,0.0,0.0,0.0,0.0,0.0,0.0,0.0,0.0,0.0,0.0,0.0,0.0911,0.0738,0.0,0.0517,0.0,0.0,0.0,0.0,-0.0353,-0.0683,-0.1175,-0.088,0.0,0.0,0.0,0.0,0.0,0.0,0.0,0.0,0.0,0.0,0.0,0.1005,0.0477,0.0,0.0,0.0,0.0,0.0,0.0,0.0,0.0,0.0,0.0,0.0,0.0,0.0,0.0,0.0,0.0,0.0,0.0,0.0,0.0,0.0,0.0,0.0,0.0,0.0,0.0,0.0,0.0,0.0,0.0,0.0,0.0,0.0,0.0,0.9316,0.9369,0.9699,1.0347,1.1573,1.234,0.0,1.4587,1.549,1.5432,1.3578,1.2626,1.2378,1.0929,1.0651,1.1173,1.0557,0.8622,0.6113,0.637,0.4697,0.1993,0.0805,-0.109,-0.3364,0.0,0.0,0.0972,0.0578,0.0,0.0,0.0,0.0,0.0,0.0,-0.0179,-0.0313,-0.0313,-0.0558,0.0,-0.0715,-0.0715,0.0,0.0,0.0,0.0,0.0,0.0,0.0,0.0,0.0,0.0,0.0,0.0,0.0,0.0,0.0,0.0,-0.0512,0.0,-0.0862,0.0,0.0,0.0,0.0,-0.1464,-0.1665,-0.1914,-0.1499,-0.1455,0.0,0.0,0.0,0.0,0.0,0.0,0.0,0.1909,0.1497,0.0881,0.1155,0.0649,0.0,0.0,0.0,0.0,0.0,0.0,0.0,0.0,0.0,0.0,0.0,0.0,0.0,0.0,0.0,0.0,0.0,0.0,0.0,0.0,0.0,0.0,0.0,0.0,0.0,0.0,0.0,0.0,0.0,0.0,0.0,0.0,0.0,0.0,0.8926,0.9235,0.9581,0.9995,1.1476,1.2226,0.0,1.3954,1.4755,1.4724,1.4558,1.3671,1.2188,1.0856,1.0396,1.051,1.0351,0.9585,0.8389,0.7544,0.6148,0.4508,0.3652,0.1234,-0.1705,0.0,0.0,0.0,0.0,0.0,0.0,0.0,0.0,-0.0246,-0.0403,-0.0558,-0.0646,-0.0646,-0.0803,0.0,0.0,-0.109,-0.122,0.0,0.0,0.0,0.0,0.0,0.0,0.0,0.0,0.0,0.0,0.0,0.0,0.0,0.0,0.0,-0.1112,0.0,-0.1617,0.0,0.0,0.0,-0.2228,-0.2228,-0.2352,-0.2534,-0.24,-0.2263,-0.2018,-0.1482,0.0,0.0,0.0,0.0,0.0,0.0,0.0,0.1141,0.1122,0.098,0.0714,0.0143,0.0,0.0,0.0093,0.0,0.0,0.0,0.0,0.0,0.0,0.0,0.0,0.0,0.0,0.0,0.0,0.0,0.0,0.0,0.0,0.0,0.0,0.0,0.0,0.0,0.0,0.0,0.0,0.0,0.0,0.0,0.8717,0.8992,0.9304,0.9699,1.0034,1.0373,1.2095,1.3043,1.3217,1.4687,1.5166,1.4783,1.4554,1.3795,1.26,1.1964,1.1516,1.1191,1.0905,1.0321,0.9619,0.8895,0.727,0.5383,0.5098,0.2666,-0.0608,0.0,0.0,0.0,0.0,0.0,0.0,0.0,0.0,0.0,-0.087,-0.0981,-0.1048,-0.1048,-0.1159,-0.1311,0.0,0.0,0.0,-0.2263,0.0,0.0,0.0,0.0,0.0,0.0,0.0,0.0,0.0,0.0,0.0,0.0,0.0,0.0,-0.1394,0.0,0.0,0.0,0.0,-0.2875,-0.2935,-0.287,-0.2976,-0.3168,-0.3303,-0.2968,-0.2462,-0.2644,-0.2134,-0.1371,-0.0936,0.0,0.0,0.0,0.0,0.1182,0.0949,0.1179,0.1315,0.0392,0.0,0.0888,0.0317,0.0223,0.0,0.0,0.0,0.0,0.0,0.0,0.0,0.0,0.0,0.0,0.0,0.0,0.0,0.0,0.0,0.0,0.0,0.0,0.0,0.0,0.0,0.0,0.0,0.0,0.0,0.9289,0.9422,0.9581,0.979,1.026,1.0581,1.0825,1.2673,1.3755,1.4054,1.55,1.5887,1.527,1.4442,1.3723,1.3103,1.3179,1.2878,1.2325,1.1693,1.1067,1.0447,0.9958,0.8297,0.6123,0.5933,0.3745,0.077,0.0,0.0,0.0,0.0,0.0,0.0,0.0,0.0,0.0,0.0,-0.1358,-0.167,-0.167,-0.215,-0.2476,-0.2519,-0.2519,-0.2541,0.0,0.0,0.0,0.0,0.0,0.0,0.0,0.0,0.0,0.0,0.0,0.0,0.0,0.0,0.0,0.0,0.0,0.0,0.0,0.0,0.0,-0.3871,-0.354,-0.3715,-0.4159,-0.3799,-0.3509,-0.3276,-0.2866,-0.2371,-0.1845,-0.1373,-0.1171,0.0,0.0,0.0,0.0,0.0659,0.0595,0.0302,0.0,0.0,0.153,0.0,0.1089,0.1397,0.0,0.0,0.0,0.0,0.0,0.0,0.0,0.0,0.0,0.0,0.0,0.0,0.0,0.0,0.0,0.0,0.0,0.0,0.0,0.0,0.0,0.0,0.0,0.0,0.8871,0.9415,0.9662,0.9475,1.0373,1.0715,1.047,1.2043,1.2876,1.2938,1.4867,1.592,1.612,1.5271,1.4228,1.3185,1.319,1.3157,1.3022,1.2365,1.1864,1.1457,0.9963,0.9226,0.8767,0.6571,0.5044,0.3856,0.0,0.0,0.0,0.0,0.0,0.0,0.0,0.0,0.0,0.0,0.0,-0.2307,-0.2307,-0.2665,-0.2928,-0.2918,-0.3199,0.0,0.0,0.0,0.0,0.0,0.0,0.0,0.0,0.0,0.0,0.0,0.0,0.0,0.0,-0.223,-0.2158,0.0,0.0,0.0,0.0,0.0,0.0,-0.3775,-0.4024,-0.4548,-0.512,0.0,-0.4432,-0.4471,0.0,0.0,0.0,-0.2242,-0.1909,-0.1615,-0.1171,0.0,0.0,0.0,0.0684,0.0,0.141,0.1787,0.1951,0.0,0.1688,0.1823,0.0,0.0,0.0,0.0,0.0,0.0,0.0,0.0,0.0,0.0,0.0,0.0,0.0,0.0,0.0,0.0,0.0,0.0,0.0,0.0,0.0,0.0,0.0,0.9251,0.941,0.9687,0.9893,0.9957,1.057,1.0963,1.1125,1.2553,1.3642,1.4381,1.5272,1.58,1.6011,1.5623,1.5147,1.4598,1.363,1.3216,1.3159,1.2615,1.2294,1.2054,1.0757,0.9796,0.8993,0.7742,0.6051,0.4164,0.0,0.0,0.0,0.0,0.0,0.0,0.0,0.0,0.0,0.0,0.0,-0.2826,-0.2891,0.0,0.0,0.0,-0.3764,0.0,0.0,0.0,0.0,0.0,0.0,0.0,0.0,0.0,0.0,0.0,0.0,0.0,-0.2044,-0.2891,-0.2918,0.0,-0.2692,0.0,0.0,0.0,0.0,-0.3602,-0.4885,-0.5478,-0.5636,-0.5609,-0.5634,-0.5547,0.0,0.0,0.0,0.0,0.0,0.0,0.0,0.0,0.0,0.0,0.0,0.0,0.0,0.0,0.2565,0.2323,0.253,0.2694,0.0,0.0,0.0,0.0,0.0,0.0,0.0,0.0,0.0,0.0,0.0,0.0,0.0,0.0,0.0,0.0,0.0,0.0,0.0,0.0,0.0,0.0,0.0,0.9816,0.9893,0.997,1.0084,1.0285,1.075,1.1159,1.1498,1.2973,1.4315,1.5558,1.5734,1.5851,1.5926,1.5797,1.5773,1.5719,1.4173,1.3391,1.3163,1.2685,1.2508,1.2389,1.1383,1.0253,0.9098,0.8656,0.6892,0.4532,0.0,0.0,0.0,0.0,0.0,0.0,0.0,0.0,0.0,0.0,0.0,-0.3169,-0.3431,-0.3688,-0.3965,-0.4211,-0.4264,0.0,0.0,0.0,0.0,0.0,0.0,0.0,0.0,0.0,0.0,0.0,0.0,0.0,-0.2654,-0.2724,-0.2972,-0.3426,-0.3447,-0.3481,-0.3501,0.0,0.0,-0.3726,-0.6442,-0.6601,-0.541,-0.7179,-0.7204,-0.6289,0.0,0.0,0.0,0.0,0.0,0.0,0.0,0.0,-0.1052,0.0,0.0,0.0,0.0,0.2766,0.0,0.318,0.0,0.0,0.0,0.0,0.0,0.0,0.0,0.0,0.0,0.0,0.0,0.0,0.0,0.0,0.0,0.0,0.0,0.0,0.0,0.0,0.0,0.0,0.0,0.0,0.0,0.9567,0.9867,1.021,1.0235,0.9944,1.0808,1.1173,1.0944,1.2781,1.418,1.514,1.5829,1.6201,1.6274,1.5821,1.5669,1.5751,1.4822,1.3967,1.3163,1.2685,1.2508,1.2389,1.1383,1.0629,0.9979,0.8886,0.7613,0.626,0.0,0.0,0.0,0.0,0.0,0.0,0.0,0.0,0.0,0.0,0.0,0.0,0.0,-0.4244,-0.4386,-0.4313,0.0,0.0,0.0,0.0,0.0,0.0,0.0,0.0,0.0,0.0,0.0,0.0,0.0,-0.3408,-0.3217,-0.3205,-0.3305,-0.3526,-0.4271,-0.4688,-0.4844,-0.4841,0.0,0.0,-0.6233,-0.752,0.0,-0.796,-0.8246,-0.8784,0.0,0.0,0.0,0.0,0.0,0.0,0.0,-0.1999,-0.1082,0.0107,0.1481,0.0,0.0,0.0,0.0,0.4288,0.4698,0.0,0.0,0.0,0.0,0.0,0.0,0.0,0.0,0.0,0.0,0.0,0.0,0.0,0.0,0.0,0.0,0.0,0.0,0.0,0.0,0.0,0.0,0.0,0.0,0.0,0.9905,1.0021,1.011,1.021,1.0543,1.0936,1.1424,1.2458,1.3286,1.3879,1.4576,1.4912,1.49,1.5169,1.5484,1.5744,1.462,1.3769,1.3198,1.3012,1.2768,1.2437,1.1763,1.0998,1.0088,0.923,0.8201,0.7002,0.0,0.0,0.0,-0.4346,0.0,-0.3299,-0.3477,0.0,0.0,0.0,0.0,0.0,0.0,0.0,0.0,0.0,0.0,0.0,0.0,0.0,0.0,0.0,0.0,0.0,0.0,0.0,0.0,0.0,0.0,0.0,0.0,-0.349,-0.3509,-0.3549,-0.4393,-0.502,0.0,0.0,0.0,-0.6031,0.0,0.0,-1.0256,0.0,-0.9868,0.0,0.0,0.0,0.0,0.0,0.0,0.0,0.0,-0.2299,-0.091,0.014,0.1484,0.0,0.2629,0.0,0.0,0.0,0.0,0.0,0.0,0.0,0.0,0.0,0.0,0.0,0.0,0.0,0.0,0.0,0.0,0.0,0.0,0.0,0.0,0.0,0.0,0.0,0.0,0.0,0.0,0.0,0.0,0.0,0.9905,0.9905,1.0097,1.0556,1.0556,1.1006,1.1858,1.252,1.2958,1.3204,1.3891,1.4137,1.4005,1.4544,1.4984,1.5308,1.433,1.3648,1.3163,1.2873,1.2544,1.221,1.1553,1.0743,0.9932,0.9527,0.8542,0.7301,-0.4025,-0.5332,-0.6199,-0.5398,-0.4747,-0.4316,-0.4337,-0.4328,0.0,0.0,0.0,0.0,0.0,0.0,0.0,0.0,0.0,0.0,0.0,0.0,0.0,0.0,0.0,0.0,0.0,0.0,0.0,0.0,0.0,0.0,0.0,0.0,-0.3506,-0.3527,-0.3786,-0.4344,-0.5212,0.0,-0.7657,-0.7693,0.0,-0.8758,-1.0521,0.0,0.0,0.0,-1.0339,-1.0074,0.0,-0.7538,0.0,0.0,0.0,-0.2612,-0.0671,-0.0168,0.1158,0.0,0.0,0.0,0.0,0.0,0.0,0.0,0.0,0.0,0.0,0.0,0.0,0.0,0.0,0.0,0.0,0.0,0.0,0.0,0.0,0.0,0.0,0.0,0.0,0.0,0.0,0.0,0.0,0.0,0.0,0.9905,0.9905,0.9905,1.0198,1.0849,1.0897,1.1324,1.2149,1.2888,1.323,1.3135,1.3891,1.4065,1.3719,1.3963,1.4213,1.4421,1.4046,1.3589,1.3104,1.221,1.1811,1.17,1.0736,1.0,0.9563,0.9819,0.8783,0.7244,-0.4805,-0.5248,-0.5747,-0.6342,-0.5572,-0.488,-0.4878,-0.4889,0.0,0.0,0.0,0.0,0.0,0.0,0.0,0.0,0.0,0.0,0.0,0.0,0.0,0.0,0.0,0.0,0.0,0.0,0.0,0.0,0.0,0.0,0.0,0.0,0.0,0.0,-0.4068,-0.442,-0.4856,-0.5687,0.0,0.0,-0.7695,-0.8736,0.0,0.0,0.0,0.0,0.0,-1.0849,-1.003,0.0,-0.8236,-0.676,0.0,0.0,0.0,-0.0636,0.064,0.0,0.2321,0.0,0.0,0.0,0.0,0.0,0.0,0.0,0.0,0.0,0.0,0.0,0.0,0.0,0.0,0.0,0.0,0.0,0.0,0.0,0.0,0.0,0.0,0.0,0.0,0.0,0.0,0.0,0.9542,0.9905,0.9905,0.9905,0.997,1.0173,1.0656,1.1015,1.1256,1.1889,1.2066,1.1843,1.2524,1.2539,1.1964,1.2886,1.3099,1.2781,1.3224,1.3006,1.2428,1.269,1.2389,1.1774,1.1479,1.084,1.0049,0.9725,0.9182,0.8467,-0.5243,-0.5674,-0.6137,-0.6647,-0.6222,-0.5703,-0.5369,0.0,0.0,0.0,0.0,0.0,0.0,0.0,0.0,0.0,0.0,0.0,0.0,0.0,0.0,0.0,0.0,0.0,0.0,0.0,0.0,0.0,0.0,0.0,0.0,0.0,0.0,0.0,-0.4455,-0.4741,-0.5026,-0.547,0.0,0.0,-0.7868,0.0,0.0,-1.2181,-1.3192,0.0,0.0,0.0,-1.0623,-1.0101,-0.8981,0.0,0.0,-0.4553,-0.369,-0.1999,-0.0539,0.0,0.0,0.0,0.0,0.0,0.0,0.0,0.0,0.8126,0.0,0.0,0.0,0.0,0.0,0.0,0.0,0.0,0.0,0.0,0.0,0.0,0.0,0.0,0.0,0.0,0.0,0.0,0.0,0.9596,0.9782,0.9905,0.9905,0.9905,0.997,1.0084,1.0496,1.0763,1.0897,1.1256,1.1324,1.1141,1.1518,1.1493,1.1106,1.2021,1.2081,1.1494,1.2043,1.2203,1.2123,1.2651,1.2445,1.1774,1.1542,1.0992,1.0244,0.9677,0.9258,0.88,0.0,-0.6429,-0.7071,-0.6813,-0.686,-0.6696,-0.5922,0.0,0.0,0.0,0.0,0.0,0.0,0.0,0.0,0.0,0.0,0.0,0.0,0.0,0.0,0.0,-0.694,-0.6704,0.0,0.0,0.0,0.0,0.0,0.0,0.0,0.0,0.0,0.0,-0.4873,-0.52,-0.5469,-0.5944,0.0,-0.7143,-0.8031,-0.8188,0.0,0.0,-1.2821,0.0,-1.174,-1.1284,-1.102,-1.0118,-0.9401,0.0,0.0,-0.6239,-0.5037,-0.3951,-0.2162,0.0,0.0,0.1791,0.0,0.0,0.0,0.0,0.6563,0.7748,0.8283,0.0,0.0,0.0,0.0,0.0,0.0,0.0,0.0,0.0,0.0,0.0,0.0,0.0,0.0,0.0,0.0,1.057,1.0411,1.0697,1.028,0.9968,0.9905,0.9905,1.0046,1.0322,1.0434,1.0581,1.0849,1.092,1.092,1.0849,1.0849,1.0825,1.0804,1.1292,1.1123,1.0542,1.0784,1.1259,1.1905,1.22,1.2101,1.1737,1.1282,1.0764,1.0244,0.9765,0.9199,0.861,-0.6562,-0.7133,-0.769,-0.8262,-0.8112,-0.7728,-0.7147,0.0,0.0,0.0,0.0,0.0,0.0,0.0,0.0,0.0,0.0,0.0,0.0,0.0,0.0,0.0,-0.7689,-0.7317,0.0,0.0,0.0,0.0,0.0,0.0,0.0,0.0,0.0,0.0,-0.5137,-0.547,-0.5764,-0.6556,0.0,-0.7508,-0.7704,0.0,-0.9039,-1.0131,-1.054,-1.0527,-1.0324,-1.0219,-1.0123,-0.9894,-1.0099,-1.0257,0.0,0.0,-0.676,-0.5976,0.0,-0.2313,-0.1164,0.0639,0.2407,0.3129,0.0,0.0,0.5562,0.6527,0.7277,0.0,0.0,0.0,0.0,0.0,0.0,0.0,0.0,0.0,0.0,0.0,0.0,0.0,0.0,0.0,0.0,1.0905,1.0876,1.0937,1.0702,1.037,0.9931,0.9905,0.9919,0.9995,1.0521,1.0691,1.0508,1.0973,1.0973,1.0508,1.0508,1.036,1.011,1.0212,1.016,1.0031,1.0092,1.0305,1.063,1.1475,1.1826,1.1774,1.17,1.1105,1.0283,1.0166,0.9518,0.8733,-0.7019,-0.7562,-0.8016,-0.8267,-0.8464,-0.8334,0.0,0.0,0.0,0.0,0.0,0.0,0.0,0.0,0.0,0.0,0.0,0.0,0.0,0.0,0.0,-0.7901,-0.7901,-0.7705,-0.7247,-0.6668,0.0,0.0,0.0,0.0,0.0,0.0,0.0,0.0,0.0,-0.6309,-0.6484,0.0,-0.7486,-0.767,-0.7869,0.0,-0.9069,-0.9669,-0.9884,-0.9902,-0.9894,-0.9912,-0.9954,-1.0263,-1.0757,0.0,0.0,-0.9201,-0.8528,0.0,-0.549,-0.3654,-0.2336,-0.0561,0.1368,0.3292,0.0,0.0,0.0,0.6587,0.6135,0.6147,0.0,0.0,0.0,0.0,0.0,0.0,0.0,0.0,0.0,0.0,0.0,0.0,0.0,0.0,0.0,1.2033,1.1584,1.1314,1.1223,1.091,1.0345,1.0307,1.0194,0.9905,1.0223,1.0323,1.0135,1.0445,1.0445,1.0135,1.0135,1.0072,0.9905,0.9905,0.9905,0.9905,0.9897,1.0015,1.0247,1.0755,1.0998,1.1104,1.1307,1.0954,1.0283,1.0,0.9399,0.8717,-0.7313,-0.7881,-0.8334,-0.822,-0.8733,-0.8886,0.0,0.0,0.0,0.0,0.0,0.0,0.0,0.0,0.0,0.0,0.0,0.0,0.0,0.0,0.0,-0.8093,-0.7975,-0.79,-0.7895,-0.7371,0.0,0.0,0.0,0.0,0.0,0.0,0.0,0.0,0.0,0.0,0.0,0.0,0.0,-0.7725,0.0,-0.8441,-0.8859,-0.9351,-0.9692,-0.9923,-1.0048,-1.0007,-0.9984,-1.0619,0.0,-1.1606,-1.0822,-1.0462,0.0,0.0,0.0,0.0,0.0,0.0,0.0,0.0,0.0,0.414,0.0,0.0,0.0,0.5518,0.0,0.0,0.0,0.0,0.0,0.0,0.0,0.0,0.0,0.0,0.0,0.0,0.0,0.0,0.0,1.3408,1.2617,1.1952,1.1914,1.1613,1.0906,1.0756,1.0493,1.0069,1.0033,0.997,0.9905,0.997,0.997,0.9905,0.9905,0.9905,0.9905,0.9905,0.9879,0.979,0.9712,0.9743,0.984,0.9933,1.0019,1.0182,1.0678,1.0654,1.0244,0.9795,0.9239,0.8692,-0.7681,-0.8181,-0.8862,-0.9557,-0.9736,0.0,0.0,0.0,0.0,0.0,0.0,0.0,0.0,0.0,0.0,0.0,0.0,0.0,-0.8786,0.0,0.0,-0.8788,-0.821,-0.7894,-0.7891,-0.8548,0.0,0.0,0.0,0.0,0.0,0.0,-0.735,-0.7037,-0.7073,0.0,0.0,0.0,-0.7695,0.0,-0.7754,-0.8184,0.0,-0.8438,-0.8985,-0.9983,-1.0562,-1.0409,-0.9965,0.0,-1.1296,-1.2164,0.0,-1.1507,-1.1145,0.0,0.0,0.0,0.0,0.0,0.0,0.0,0.246,0.0,0.0,0.0,0.3713,0.6293,0.0,0.0,0.0,0.0,0.0,0.0,0.0,0.0,0.0,0.0,0.0,0.0,0.0,0.0,0.0,0.0,1.4161,1.3085,1.301,1.2559,1.1538,1.0998,1.0669,1.0606,1.0444,1.021,0.9905,1.0185,1.0185,0.9905,0.9905,0.9905,0.9905,0.9888,0.9743,0.9422,0.9089,0.8767,0.8528,0.8914,0.9075,0.9249,1.0137,1.0379,1.0283,1.0235,0.9558,0.8733,-0.7877,-0.8514,-0.916,-0.9284,0.0,0.0,-0.9277,-0.937,0.0,0.0,0.0,0.0,0.0,0.0,0.0,0.0,0.0,-1.4055,0.0,0.0,0.0,-1.1514,-1.1239,-1.1096,-1.1075,-1.0384,-0.9817,0.0,-0.9066,0.0,0.0,0.0,-0.8275,-0.8148,-0.8195,0.0,-0.8125,0.0,-0.8153,0.0,0.0,0.0,0.0,-0.7893,-0.7873,-0.8012,-0.8291,-0.9059,-0.9972,0.0,-1.1051,0.0,0.0,0.0,0.0,0.0,0.0,0.0,0.0,0.0,0.0,0.0,0.0,0.0,0.291,0.0,0.3042,0.0,0.0,0.0,0.0,0.0,0.0,0.0,0.0,0.0,0.0,0.0,0.0,0.0,0.0,0.0,0.0,0.0,0.0,0.0,0.0,1.3697,1.2605,1.2284,1.1858,1.1236,1.0797,1.0504,1.0383,1.0212,1.0046,0.9905,0.9905,0.9905,0.9905,0.9617,0.9269,0.8874,0.87,0.8518,0.8301,0.849,0.8603,0.8714,0.9341,0.986,1.0244,0.9961,0.9359,0.8659,-0.8647,0.0,0.0,0.0,0.0,-1.0836,-0.9553,-1.0207,-1.0801,0.0,0.0,0.0,-1.0137,-1.2111,0.0,0.0,-1.6554,-1.779,0.0,0.0,-1.3489,-1.3684,-1.4269,0.0,0.0,-1.2275,-1.1468,0.0,0.0,0.0,0.0,0.0,0.0,-0.8921,0.0,-0.8826,-0.8271,0.0,0.0,-0.7588,-0.8179,-0.7952,-0.7276,-0.7424,-0.7125,-0.6627,-0.6947,-0.7892,-0.9105,-0.9847,-1.0586,0.0,-1.1141,0.0,0.0,0.0,0.0,0.0,-0.8342,0.0,0.0,0.0,0.0,0.0,0.0,0.0,0.0,0.0,0.0,0.0,0.0,0.0,0.0,0.0,0.0,0.0,0.0,0.0,0.0,0.0,0.0,0.0,0.0,0.0,0.0,0.0,0.0,0.0,1.3213,1.3017,1.2613,1.1839,1.0982,1.0553,1.0553,0.9929,0.9607,0.9607,0.9607,0.9646,0.9696,0.9351,0.8946,0.8502,0.8331,0.8238,0.8148,0.8148,0.8248,0.844,0.8711,0.9287,0.9923,0.9594,0.909,0.8463,-1.0412,-1.0285,0.0,0.0,0.0,-1.1049,-1.0608,-1.1335,-1.1693,0.0,0.0,0.0,0.0,0.0,0.0,0.0,0.0,-1.7811,-1.7811,0.0,-1.3717,-1.4433,-1.6513,-1.6308,0.0,-1.41,-1.3589,-1.1765,0.0,0.0,0.0,0.0,0.0,0.0,0.0,-0.9003,-0.7826,-0.7835,-0.7548,-0.7118,-0.7157,-0.6859,-0.6497,0.0,-0.6967,-0.674,-0.7854,0.0,0.0,-0.837,-0.9821,0.0,0.0,0.0,0.0,0.0,0.0,0.0,0.0,0.0,0.0,-0.4792,0.0,0.0,0.0,0.0,0.0574,0.0,0.0,0.0,0.0,0.0,0.0,0.0,0.0,0.0,0.0,0.0,0.0,0.0,0.0,0.0,0.0,0.0,0.0,0.0,0.0,0.0,1.3179,1.2612,1.2351,1.2371,1.0973,1.0212,1.0212,0.9287,0.8844,0.8844,0.8844,0.8971,0.9228,0.9204,0.8956,0.8474,0.7967,0.7725,0.7725,0.7725,0.7988,0.8411,0.843,0.8662,0.9081,0.9391,0.8885,0.8012,0.0,0.0,0.0,0.0,0.0,-1.2303,-1.284,-1.3216,0.0,0.0,0.0,0.0,0.0,-1.2406,-1.348,0.0,0.0,-1.7786,-1.7786,-1.6857,0.0,0.0,0.0,-1.7639,0.0,0.0,-1.3747,-1.3642,-1.2171,0.0,0.0,0.0,0.0,0.0,0.0,-0.9631,0.0,0.0,0.0,0.0,0.0,-0.6197,-0.5981,0.0,0.0,-0.6223,-0.6926,-0.6926,0.0,-0.7167,-0.8412,-0.9755,-0.989,-1.0599,-1.128,-1.0573,-1.0222,0.0,0.0,0.0,-0.7302,-0.6363,0.0,0.0,0.0,0.0,0.0,0.0,0.0,0.0,0.0,0.0,0.0,0.0,0.0,0.0,0.0,0.0,0.0,0.0,0.0,0.0,0.0,0.0,0.0,0.0,1.4942,0.0,0.0,1.3157,1.2735,1.2429,1.1274,1.0535,1.0267,0.9586,0.9204,0.9072,0.9072,0.9278,0.9639,0.9018,0.8446,0.797,0.7782,0.7695,0.7695,0.7695,0.7783,0.7978,0.8262,0.8291,0.8197,0.8812,0.8613,0.795,-1.2323,0.0,0.0,0.0,0.0,0.0,0.0,0.0,0.0,0.0,-1.3836,0.0,-1.3396,0.0,-1.3427,0.0,-1.6661,-1.7803,-1.7807,-1.7783,0.0,-1.6244,-1.7223,0.0,0.0,0.0,-1.5218,-1.5741,0.0,-1.2119,0.0,0.0,0.0,0.0,0.0,0.0,-0.9521,0.0,-0.8401,0.0,0.0,-0.579,0.0,0.0,-0.5333,-0.5694,0.0,-0.6589,-0.6616,-0.6766,-0.7438,-0.83,-0.8851,-0.9621,-1.0189,-0.9654,-0.9659,-0.9734,-0.9486,-0.8613,0.0,-0.8973,-0.8644,0.0,-0.6466,0.0,0.0,0.0,0.0,0.0,0.0,0.0,0.0,0.0,0.0,0.0,0.0,0.0,0.0,0.0,0.0,0.0,0.0,0.0,1.5045,1.4982,0.0,0.0,0.0,0.0,1.2751,1.2424,1.1322,1.0608,1.0341,0.936,0.8799,0.8655,0.8655,0.8811,0.9108,0.8304,0.7743,0.7406,0.7316,0.7264,0.7264,0.7264,0.7264,0.7292,0.7611,0.7525,0.7363,0.8114,0.8015,0.7446,0.0,0.0,0.0,0.0,-1.4044,0.0,0.0,0.0,-1.4269,0.0,-1.3836,-1.3329,-1.3396,-1.4195,-1.4366,-1.3469,-1.5959,-1.7579,-1.7582,-1.7768,0.0,0.0,-1.8317,-1.8239,-1.9201,0.0,0.0,0.0,0.0,0.0,0.0,0.0,0.0,0.0,-1.0873,0.0,-0.9369,-0.828,-0.7535,-0.6958,-0.6198,-0.5672,-0.534,-0.5238,-0.5132,-0.5202,-0.6176,-0.6535,-0.6626,-0.6967,-0.689,-0.6747,-0.7514,-0.853,-0.9325,-0.8609,-0.8609,-0.9022,-0.9792,-0.887,-0.853,-1.1936,0.0,0.0,0.0,0.0,-0.693,0.0,0.0,0.0,0.0,0.0,0.0,0.0,0.0,0.0,0.0,0.0,0.0,0.0,0.0,0.0,0.0,1.3761,1.3961,1.3767,1.3747,0.0,0.0,0.0,1.2288,1.2351,1.1073,1.0385,1.0399,0.8664,0.775,0.7695,0.7695,0.7695,0.7695,0.713,0.6895,0.6895,0.6622,0.6488,0.6488,0.6488,0.6488,0.6488,0.6488,0.6488,0.6548,0.7287,0.7153,0.6673,-1.5902,-1.6567,-1.7045,0.0,-1.6976,-1.6786,0.0,0.0,0.0,0.0,-1.4174,-1.3379,-1.3396,-1.3616,-1.3667,-1.343,-1.4086,0.0,0.0,0.0,0.0,-1.8222,-1.7934,-1.7916,-1.8162,-2.0119,0.0,-1.7799,0.0,0.0,-1.1527,0.0,0.0,0.0,0.0,0.0,-0.9986,-0.8887,-0.7542,-0.6183,-0.5652,-0.5247,0.0,0.0,-0.4818,-0.4793,-0.5309,-0.5745,-0.6043,-0.5738,-0.6265,-0.7035,-0.6932,-0.7254,-0.7748,-0.8193,-0.8323,-0.8529,-0.9618,-0.8839,-0.7604,-0.7282,-0.6575,-0.5728,0.0,0.0,0.0,0.0,0.0,0.0,0.0,0.0,0.0,0.0,0.0,0.0,0.0,0.0,0.0,0.0,0.0,0.0,0.0,1.2505,1.2883,1.2827,1.2996,0.0,0.0,0.0,0.0,1.1824,1.0835,1.0323,1.0341,0.9221,0.8327,0.7695,0.7695,0.7695,0.7666,0.6937,0.6703,0.6895,0.6622,0.6488,0.6488,0.6488,0.6488,0.6488,0.6488,0.6305,0.6121,0.6761,0.7071,0.7165,-1.7422,0.0,0.0,-1.9756,0.0,0.0,-1.7696,0.0,0.0,-1.5503,-1.4147,0.0,-1.3379,-1.3108,-1.2922,-1.2922,-1.3193,0.0,-1.3401,0.0,0.0,-1.7772,-1.7803,-1.7795,-1.7812,-1.8903,0.0,-1.6932,0.0,0.0,-1.1776,0.0,0.0,0.0,0.0,-1.1552,0.0,-0.8559,-0.7059,-0.5769,-0.5426,0.0,0.0,-0.4755,-0.4578,-0.433,-0.4571,-0.504,-0.5491,-0.5208,-0.5922,-0.6935,-0.6871,-0.6852,-0.692,-0.7404,-0.7496,-0.7591,-0.8265,-0.8119,-0.735,-0.5552,-0.4641,-0.4071,-0.3603,-0.5479,-0.7175,0.0,0.0,0.0,0.0,0.0,0.0,0.0,0.0,0.0,0.0,0.0,0.0,0.0,0.0,0.0,0.9315,1.043,1.1361,1.2052,1.1872,0.0,0.0,0.0,0.0,1.2149,1.0944,1.0318,1.0293,0.9047,0.8175,0.7695,0.7695,0.7695,0.7666,0.6759,0.6473,0.6704,0.6183,0.5975,0.5975,0.5975,0.5975,0.5975,0.5975,0.582,0.5705,0.6158,0.6571,0.6886,-1.8653,0.0,0.0,0.0,0.0,0.0,0.0,-1.7233,0.0,-1.5098,0.0,-1.3039,-1.3008,-1.2432,-1.2094,-1.2246,0.0,-1.3294,-1.3395,-1.3392,-1.4531,-1.7099,-1.7213,-1.741,-1.7786,-1.6499,0.0,0.0,0.0,0.0,0.0,0.0,0.0,0.0,0.0,0.0,0.0,-0.7805,-0.6463,-0.5617,-0.5391,-0.493,-0.4376,-0.4599,-0.4285,-0.3758,-0.395,-0.4435,-0.5009,-0.5076,-0.5673,-0.647,-0.6808,-0.6674,-0.6415,-0.6403,-0.65,-0.6599,-0.6602,-0.7047,-0.7129,-0.5512,-0.4992,-0.4646,-0.3712,-0.3506,-0.317,-0.2032,-0.2205,-0.2131,0.0,0.0,0.0,0.0,0.0,0.0,0.0,0.0,0.0,0.0,0.0,0.0,0.0,0.8396,0.9873,1.1065,1.0853,0.0,0.0,0.0,0.0,1.2575,1.1094,0.0,0.9634,0.0,0.744,0.7539,0.7539,0.751,0.7471,0.6468,0.6136,0.6366,0.5617,0.5309,0.5309,0.5309,0.5309,0.5309,0.5309,0.5309,0.5342,0.5564,0.5845,0.6182,0.0,0.0,0.0,0.0,0.0,-1.8566,-1.7565,-1.632,-1.499,-1.3573,-1.3358,-1.2721,-1.1096,-1.0808,-1.1079,-1.1893,-1.2297,0.0,0.0,0.0,0.0,-1.4151,-1.4173,-1.5304,-1.7748,-1.6475,-1.5801,0.0,-1.5798,-1.5545,0.0,0.0,0.0,0.0,0.0,0.0,-0.757,-0.7459,0.0,-0.5379,-0.532,-0.4805,-0.4078,-0.4125,-0.3633,-0.2977,-0.3449,-0.3965,-0.4514,-0.4943,-0.5222,-0.5384,-0.5449,-0.5419,-0.5361,-0.5368,-0.5942,-0.6589,-0.6602,-0.6112,-0.5518,-0.5185,-0.444,-0.373,-0.3552,-0.3497,-0.3186,-0.2029,-0.1886,-0.2011,-0.2208,0.0,0.0,0.0,0.0,0.0,0.0,0.0,0.0,0.0,0.0,0.0,0.0,0.0,0.9443,0.8846,0.0,0.0,0.0,0.0,0.0,0.0,1.0444,0.0,0.0,0.0,0.6059,0.67,0.67,0.6592,0.637,0.5716,0.5645,0.5975,0.5491,0.5309,0.5309,0.5309,0.5309,0.5309,0.5309,0.5309,0.5322,0.5337,0.5538,0.5865,0.0,0.0,0.0,0.0,0.0,0.0,0.0,-1.505,0.0,-1.3427,-1.2844,-1.2141,-1.1274,-1.0536,-1.046,-1.1403,-1.1975,-1.2601,-1.3345,-1.3239,-1.3218,-1.3393,-1.3391,0.0,-1.773,-1.7181,-1.6505,-1.5802,-1.5783,-1.5795,0.0,0.0,0.0,0.0,0.0,-0.9056,0.0,0.0,0.0,-0.5754,-0.5428,-0.4802,-0.3995,-0.3618,-0.3162,-0.2745,-0.3144,-0.3556,-0.4012,-0.4827,-0.5096,-0.5088,-0.5108,-0.5107,-0.5211,-0.572,-0.6217,-0.6602,-0.6602,-0.5874,-0.4963,-0.4409,-0.3874,-0.3508,-0.3494,-0.3506,-0.3343,-0.2803,-0.2212,-0.169,-0.1367,-0.161,0.0,0.0,0.0,0.0,0.0,0.0,0.0,0.0,0.0,0.0,0.0,0.0,0.0,0.0,0.0,0.0,0.0,0.0,0.0,0.0,0.0,0.0,0.0,0.0,0.0,0.6295,0.6441,0.6441,0.6295,0.5636,0.5545,0.5875,0.5294,0.5137,0.5309,0.5309,0.5309,0.5309,0.5309,0.5309,0.5309,0.5309,0.5371,0.5551,0.0,-2.2588,0.0,0.0,-2.0009,0.0,-1.5599,-1.3952,-1.2954,-1.3129,-1.2111,-1.1366,-1.1368,-1.0238,-0.9845,-1.0695,-1.1466,-1.2237,-1.2958,-1.2899,-1.2929,-1.3158,-1.3322,-1.4499,-1.6821,-1.7476,-1.7147,0.0,-1.579,0.0,0.0,0.0,-1.3847,-1.2484,0.0,0.0,0.0,0.0,-0.6765,-0.6287,-0.54,-0.465,-0.4005,-0.3358,-0.2865,-0.2546,-0.2757,-0.3046,-0.3449,-0.4311,-0.4665,-0.4753,-0.4764,-0.4755,-0.4918,-0.571,-0.6249,-0.6604,-0.6604,-0.5697,-0.4561,-0.3714,-0.3488,-0.3508,-0.3499,-0.3498,-0.349,-0.3496,-0.2595,-0.1502,-0.0563,-0.2056,0.0,0.0,0.0,0.0,0.0,0.0,0.0,0.0,0.0,0.0,0.0,0.0,0.0,0.0,0.0,0.0,0.0,0.0,0.0,0.0,0.0,0.6438,0.5547,0.0,0.6241,0.0,0.6136,0.6204,0.6125,0.5538,0.5414,0.5648,0.5048,0.4973,0.5309,0.5309,0.5309,0.5309,0.5309,0.5309,0.5309,0.5309,0.5309,0.5342,0.0,0.0,0.0,0.0,0.0,0.0,0.0,-1.3374,-1.1797,-1.1409,-1.0901,-1.0351,-0.9713,-0.8975,-0.8837,-0.9586,-1.0283,-1.0978,-1.1722,-1.2314,-1.2546,-1.2415,-1.3032,-1.3517,-1.3816,-1.6424,-1.7147,0.0,0.0,-1.5797,0.0,0.0,-1.3254,-1.0399,0.0,0.0,0.0,-0.6983,-0.6959,-0.6759,-0.4884,-0.4061,-0.3968,-0.358,-0.2813,-0.1891,-0.1924,-0.228,-0.2788,-0.288,-0.325,-0.3646,-0.3645,-0.3662,-0.3656,-0.3766,-0.5126,-0.6587,-0.6587,-0.5146,-0.3622,-0.3529,-0.3494,-0.3499,-0.3506,-0.3506,-0.3491,-0.349,-0.2595,-0.1766,-0.165,-0.2256,-0.2178,0.0,0.0,0.0,0.0,0.0,0.0,0.0,0.0,0.0,0.0,0.0,0.0,0.0,0.0,0.0,0.0,0.0,0.0,0.9171,0.0,0.6301,0.6396,0.5757,0.5418,0.5365,0.5397,0.5253,0.4957,0.4872,0.4879,0.4906,0.4814,0.4973,0.5309,0.5309,0.5309,0.5309,0.5309,0.5309,0.5309,0.5309,0.5309,0.5316,0.0,0.0,0.0,0.0,0.0,0.0,0.0,-1.2394,-1.1721,-1.1535,-1.0715,-1.0053,-0.9842,-0.8858,-0.8562,-0.9416,-1.0109,-1.0816,-1.154,-1.2075,-1.24,-1.2473,-1.2451,-1.2733,-1.3388,-1.5495,-1.633,0.0,0.0,0.0,0.0,0.0,0.0,0.0,0.0,-0.8237,-0.6026,-0.6719,-0.6213,-0.4845,-0.3701,-0.323,-0.3172,-0.2665,-0.221,-0.1794,-0.1811,-0.1711,-0.1667,-0.2033,-0.2751,-0.3506,-0.3493,-0.3494,-0.3502,-0.3495,-0.4544,-0.5563,-0.4906,-0.4139,-0.3345,-0.2662,-0.2486,-0.2538,-0.2794,-0.2934,-0.3052,-0.3128,-0.2426,-0.1808,-0.1809,-0.1992,-0.1676,0.0,0.0,0.0,0.0,0.0,0.0,0.0,0.0,0.0,0.0,0.0,0.0,0.0,0.0,0.6987,0.6981,0.0,0.0,0.882,0.0,0.6612,0.6501,0.5848,0.5458,0.5309,0.5097,0.492,0.4794,0.4476,0.4409,0.4568,0.495,0.517,0.5309,0.5309,0.5309,0.5309,0.5309,0.5309,0.5309,0.5309,0.5309,0.5309,-2.1078,0.0,-1.8302,0.0,-1.357,-1.1805,-1.1805,-1.1805,-1.1805,-1.1805,-1.0426,-0.9526,-0.9809,-0.8758,-0.8355,-0.9109,-0.978,-1.043,-1.1057,-1.1612,-1.203,-1.2204,-1.1846,0.0,-1.2909,-1.4813,-1.5791,-1.5814,-1.4387,0.0,0.0,-1.2837,0.0,0.0,-0.8865,-0.7346,-0.5497,-0.5851,-0.5055,-0.3563,-0.294,-0.2701,-0.258,-0.1638,-0.1279,-0.1275,-0.1272,-0.1228,-0.1183,-0.1372,-0.1676,-0.2025,-0.2567,-0.2729,-0.274,-0.2746,-0.3403,-0.3921,-0.2983,-0.2867,-0.2815,-0.2005,-0.188,-0.206,-0.2402,-0.2606,-0.2724,-0.2832,-0.228,-0.1801,-0.1804,-0.1811,-0.1402,-0.02,0.0,0.0,0.0,0.0,0.0,0.0,0.344,0.3574,0.4184,0.0,0.0,0.0,0.0,0.6445,0.7494,0.0,0.0,0.0,0.0,0.0,0.0,0.5878,0.5484,0.5309,0.5063,0.4894,0.4787,0.4322,0.4208,0.4436,0.493,0.5197,0.5309,0.5309,0.5309,0.5309,0.5309,0.5309,0.5309,0.5309,0.5309,0.5309,-1.9107,-1.9022,-1.8302,-1.6182,-1.357,-1.1805,-1.1805,-1.1805,-1.1805,-1.1805,-0.9765,-0.8544,-0.9136,-0.8424,-0.8049,-0.8385,-0.9017,-0.9549,-0.9902,-1.0781,-1.1296,0.0,0.0,-1.1395,-1.1806,-1.4415,-1.579,-1.5802,0.0,0.0,-1.1798,-1.1137,-1.0031,-0.8584,-0.7515,-0.6609,-0.5808,-0.4271,-0.3614,-0.3563,-0.2927,-0.2685,-0.2503,-0.0706,-0.0028,-0.0025,-0.0025,-0.0788,-0.1661,-0.087,0.0443,0.1419,-0.0372,-0.094,-0.0939,-0.0926,-0.1367,-0.1713,-0.11,-0.1362,-0.1811,-0.1811,-0.2103,-0.2445,-0.2654,-0.2697,-0.2707,-0.2699,-0.2228,-0.1792,-0.1798,-0.1801,-0.1407,-0.0199,0.0,0.0,0.0,0.0,0.0,0.0,0.309,0.2937,0.3534,0.0,0.0,0.0,0.0,0.0,0.8599,0.0,0.0,0.7636,0.6955,0.0,0.6203,0.5611,0.5316,0.5309,0.5309,0.5124,0.4794,0.4509,0.4402,0.4422,0.4688,0.498,0.5309,0.5309,0.5309,0.5309,0.5309,0.5309,0.5309,0.5309,0.5309,0.5309,-1.7551,-1.7145,-1.6016,-1.3524,-1.2358,-1.1805,-1.1805,-1.1066,-1.0494,-1.0494,-0.898,-0.7884,-0.783,-0.7957,-0.823,0.0,-0.9117,-0.9381,0.0,-0.9999,-1.0279,-1.0279,-1.0262,-1.055,-1.1162,-1.2426,-1.3389,-1.4028,0.0,0.0,0.0,-1.0127,-0.9024,-0.7507,-0.7148,-0.6222,-0.4865,-0.4517,-0.3757,-0.2725,-0.2025,-0.1381,-0.0809,-0.0218,0.0,0.0,0.0,-0.0257,-0.0411,0.0678,0.1004,0.0911,0.0465,0.033,0.033,0.033,-0.011,-0.0531,-0.033,-0.0418,-0.064,-0.0905,-0.1084,-0.1218,-0.1419,-0.1466,-0.1513,-0.1655,-0.1314,-0.1021,-0.1161,-0.0847,-0.0443,-0.0053,0.0,0.0,0.0,0.0,0.0,0.0,0.1712,0.1399,0.0,0.3718,0.0,0.0,0.0,0.0,0.0,0.0,0.0,0.0,0.6126,0.0,0.6196,0.5605,0.5309,0.5309,0.4802,0.4387,0.4071,0.4482,0.4668,0.4688,0.501,0.519,0.5309,0.5309,0.5309,0.5309,0.5309,0.5309,0.5309,0.5309,0.5309,0.5309,-1.616,-1.5902,-1.4959,-1.2269,-1.14,-1.1089,-1.1089,-1.0396,-0.9905,-0.9905,-0.8871,-0.7827,-0.7028,-0.7486,0.0,-0.8627,-0.8834,-0.897,-0.9108,-0.9416,-0.9626,-0.9626,-0.9626,-0.9814,-1.0207,0.0,0.0,-1.1118,-1.0157,-0.9462,-0.901,-0.8641,-0.7755,-0.6355,-0.6085,-0.5245,-0.4061,-0.3921,-0.33,-0.236,-0.1747,-0.0903,0.0066,0.0771,0.0999,0.1005,0.1024,0.1021,0.1118,0.1804,0.1874,0.1658,0.1451,0.155,0.1607,0.1056,0.069,0.0446,0.0356,0.0289,0.0156,-0.0156,-0.0311,-0.0444,-0.0668,-0.0714,-0.0758,-0.0936,-0.0781,-0.0603,-0.0559,-0.0252,0.0,0.0,0.0,0.0,0.0,0.0,0.0,0.0,0.0,0.0,0.0,0.3875,0.0,0.0,0.0,0.0,0.0,0.0,0.0,0.5781,0.5522,0.0,0.5615,0.5228,0.5023,0.5017,0.4408,0.3962,0.3638,0.4106,0.4416,0.4581,0.4788,0.4959,0.5055,0.5214,0.5182,0.5055,0.5214,0.5309,0.5309,0.5309,0.5309,0.5329,-1.4927,-1.5083,0.0,0.0,-1.0688,0.0,-0.9905,-0.9905,-0.988,-0.9764,-0.9104,-0.8086,-0.6661,-0.7018,-0.7577,-0.8127,0.0,0.0,0.0,-0.8962,-0.9127,-0.9115,-0.9127,-0.9086,-0.8949,-0.8798,-0.8368,-0.7633,-0.8262,-0.8006,-0.6961,-0.6939,-0.6319,-0.5206,-0.4494,-0.3869,-0.3396,-0.2702,-0.236,-0.2221,-0.1816,-0.0947,0.0301,0.1981,0.264,0.2705,0.2705,0.2704,0.268,0.2633,0.3059,0.3494,0.2649,0.2734,0.2836,0.1409,0.1114,0.1227,0.1048,0.0824,0.0624,0.0489,0.0266,0.0,-0.0245,-0.0311,-0.0356,-0.0468,-0.0512,-0.0402,0.0,0.0024,0.0,0.0,0.0,0.0,0.0,0.0,0.0,0.0,0.0,0.0,0.0,0.3922,0.3728,0.0,0.0,0.0,0.0,0.0,0.4519,0.5015,0.5007,0.4841,0.457,0.4564,0.4538,0.45,0.4151,0.3814,0.3481,0.3511,0.3789,0.4193,0.4193,0.4319,0.4602,0.5023,0.4953,0.4602,0.5055,0.5214,0.5214,0.5246,0.5246,0.5292,0.0,0.0,-1.111,-1.0477,-1.0084,-0.9905,-0.9905,-0.9905,-0.949,-0.8382,-0.755,-0.6892,-0.6548,-0.6644,-0.6781,-0.6917,-0.7149,-0.7358,-0.7425,-0.7531,-0.7482,-0.7161,-0.7463,-0.755,-0.7434,-0.7772,-0.7571,-0.6803,-0.7193,-0.7145,-0.6613,-0.6444,-0.5733,-0.46,-0.394,-0.3375,-0.2835,-0.1828,-0.1175,-0.0689,-0.0289,0.049,0.1406,0.1573,0.206,0.2697,0.2697,0.2714,0.2896,0.4193,0.4723,0.4791,0.4394,0.3874,0.3206,0.2182,0.1916,0.196,0.1916,0.1523,0.113,0.1086,0.0889,0.0667,0.0601,0.0601,0.0579,0.0557,0.0334,0.0267,0.0625,0.0311,0.0,0.0,0.0,0.0,0.0,0.0,0.0,0.0,0.3242,0.3655,0.3818,0.387,0.3767,0.0,0.0,0.0,0.0,0.3278,0.3571,0.4233,0.3908,0.3869,0.4156,0.4151,0.3951,0.3616,0.3891,0.3764,0.3355,0.3712,0.3939,0.404,0.404,0.4071,0.4151,0.4253,0.4248,0.4151,0.4253,0.4318,0.4344,0.4666,0.4762,0.4863,-1.2419,-1.0729,-0.9384,-0.9384,-0.9081,-0.8722,-0.8391,-0.8646,-0.835,-0.6798,-0.6221,-0.5813,-0.5401,-0.5674,-0.5767,-0.5394,-0.6212,-0.6785,-0.6785,-0.682,-0.6738,-0.6518,-0.6493,-0.6471,-0.6413,-0.6889,-0.676,-0.5941,-0.5861,-0.5895,-0.6078,-0.5296,-0.4468,-0.3488,-0.2694,-0.2017,-0.1496,-0.0576,0.0073,0.0525,0.0893,0.1504,0.2206,0.1996,0.226,0.2688,0.2688,0.2691,0.2955,0.4722,0.5299,0.5276,0.5116,0.4975,0.4641,0.3506,0.2853,0.2517,0.251,0.2276,0.1993,0.184,0.1554,0.1316,0.1319,0.1185,0.105,0.0914,0.0758,0.07,0.0938,0.0906,0.0729,0.0464,0.0881,0.1235,0.1236,0.1334,0.0,0.3219,0.3363,0.339,0.3439,0.3509,0.3483,0.3347,0.0,0.0,0.3088,0.292,0.3014,0.3482,0.3356,0.3425,0.3691,0.3691,0.3462,0.3035,0.327,0.327,0.3035,0.3303,0.3499,0.3691,0.3691,0.3691,0.3691,0.3923,0.3858,0.3691,0.3923,0.3993,0.4026,0.4248,0.4312,0.4394,-1.0498,-0.9417,-0.8646,-0.8518,-0.8009,-0.7366,-0.6652,-0.7008,-0.6807,-0.5302,-0.5151,-0.4858,-0.4026,-0.4584,-0.4706,-0.3951,-0.5199,-0.6037,-0.6114,-0.6167,-0.6175,-0.6114,-0.5814,-0.5552,-0.5421,-0.5872,-0.5651,-0.4683,-0.4187,-0.4341,-0.5072,-0.3826,-0.2876,-0.2231,-0.1145,-0.0413,0.0,0.0777,0.1309,0.1617,0.1976,0.2487,0.303,0.2926,0.2907,0.2929,0.3041,0.3082,0.3328,0.4812,0.5311,0.5286,0.5295,0.5779,0.612,0.51,0.407,0.3193,0.3033,0.3,0.2891,0.242,0.2044,0.1806,0.1794,0.1588,0.1319,0.1092,0.1013,0.1045,0.1217,0.1536,0.1643,0.1226,0.1979,0.2648,0.2751,0.0,0.3064,0.3129,0.3094,0.3142,0.3262,0.3116,0.3086,0.3317,0.3029,0.2917,0.0,0.2784,0.274,0.2941,0.3097,0.3196,0.3196,0.3196,0.3035,0.2712,0.2712,0.2712,0.2712,0.2712,0.2874,0.3196,0.3196,0.3196,0.3229,0.363,0.356,0.3261,0.3663,0.3798,0.3793,0.3858,0.3891,0.395,-0.9281,-0.8675,-0.7983,-0.7251,-0.7376,-0.7405,-0.6848,-0.6144,-0.5327,-0.4344,-0.4403,-0.4301,-0.3658,-0.3956,-0.3978,-0.344,-0.3653,-0.3953,-0.4366,-0.4706,-0.4738,-0.4403,-0.4636,-0.4428,-0.3718,-0.4151,-0.3593,-0.1923,-0.1815,-0.2098,-0.2722,-0.2266,-0.1729,-0.1095,-0.004,0.0553,0.078,0.1655,0.2396,0.3042,0.3482,0.4009,0.4482,0.4,0.3786,0.3906,0.4631,0.4887,0.4953,0.5203,0.5309,0.5308,0.5303,0.5392,0.5715,0.685,0.602,0.4574,0.3656,0.3407,0.3174,0.2146,0.184,0.1803,0.1806,0.1762,0.1714,0.167,0.1576,0.1557,0.1806,0.1737,0.1789,0.235,0.2286,0.2395,0.2972,0.0,0.2895,0.3246,0.311,0.3053,0.3115,0.3095,0.3041,0.2985,0.2815,0.2702,0.2592,0.2544,0.2685,0.3056,0.2884,0.2779,0.2779,0.2779,0.2746,0.2712,0.2712,0.2712,0.2712,0.2712,0.2746,0.2779,0.2779,0.2779,0.2812,0.2878,0.2845,0.2812,0.2878,0.2911,0.2944,0.3298,0.3425,0.3521,-0.7973,-0.7881,-0.7492,-0.6452,-0.6279,-0.6158,-0.57,-0.5174,-0.4654,-0.4274,-0.3802,-0.3245,-0.2636,-0.2794,-0.2721,-0.2258,-0.2225,-0.2225,-0.2225,-0.3037,-0.3431,-0.3245,-0.32,-0.2671,-0.1555,-0.2188,-0.1914,-0.0593,0.0037,0.0229,-0.0037,-0.024,-0.0168,0.0214,0.1243,0.172,0.1833,0.2832,0.3432,0.3736,0.4343,0.4829,0.5205,0.497,0.4915,0.5061,0.5224,0.5305,0.5293,0.5317,0.5286,0.5439,0.6328,0.6597,0.6728,0.7472,0.6066,0.4137,0.3641,0.349,0.3368,0.2859,0.225,0.1807,0.1807,0.1963,0.2058,0.184,0.1919,0.2053,0.209,0.2218,0.2375,0.2666,0.2728,0.0,0.0,0.2904,0.2946,0.2975,0.2957,0.2904,0.2774,0.2761,0.2703,0.2526,0.2452,0.2411,0.234,0.2337,0.2423,0.2597,0.2869,0.2907,0.2712,0.2712,0.2712,0.2712,0.2712,0.2712,0.2712,0.2712,0.2712,0.2712,0.2712,0.2712,0.2712,0.2712,0.2712,0.2712,0.2712,0.2712,0.2712,0.2907,0.2973,0.3041,-0.6898,-0.688,-0.6602,-0.5683,-0.5199,-0.4764,-0.4375,-0.4215,-0.406,-0.3861,-0.3074,-0.2288,-0.1607,-0.1632,-0.1462,-0.0901,-0.0836,-0.0668,-0.0267,-0.1159,-0.1781,-0.1981,-0.1573,-0.0878,0.0034,-0.0429,-0.0323,0.0414,0.1554,0.203,0.1915,0.1495,0.1385,0.1522,0.247,0.293,0.301,0.3975,0.4467,0.4577,0.5141,0.5551,0.5843,0.5908,0.6027,0.6125,0.5799,0.5525,0.5301,0.5293,0.5533,0.606,0.7299,0.7708,0.7708,0.7696,0.6169,0.4329,0.3689,0.3501,0.3505,0.3503,0.2848,0.2194,0.2194,0.2445,0.2541,0.2141,0.235,0.2557,0.2348,0.273,0.2997,0.274,0.0,0.0,0.0,0.293,0.2988,0.2761,0.2774,0.271,0.2506,0.2452,0.2357,0.2221,0.2177,0.2157,0.2157,0.2157,0.2174,0.2207,0.2789,0.2993,0.2712,0.2712,0.2712,0.2712,0.2712,0.2712,0.2712,0.2712,0.2712,0.2712,0.2712,0.2712,0.2712,0.2712,0.2712,0.2712,0.2712,0.2712,0.2716,0.272,0.2734,0.2771,-0.6357,-0.5535,-0.4782,-0.4692,-0.4339,-0.3918,-0.3468,-0.3399,-0.3106,-0.2282,-0.212,-0.1727,-0.0868,-0.0801,-0.0434,0.0468,0.0568,0.0735,0.1136,0.107,0.0666,-0.0166,0.0383,0.0573,0.0286,0.0829,0.1274,0.1658,0.2581,0.2768,0.2364,0.2506,0.2567,0.261,0.3639,0.4165,0.4314,0.4808,0.5416,0.6041,0.6101,0.6434,0.6892,0.6894,0.6915,0.6919,0.6869,0.6187,0.5303,0.5284,0.6275,0.7558,0.7668,0.7708,0.7687,0.7701,0.7545,0.6813,0.4221,0.3493,0.3491,0.3499,0.3439,0.3387,0.3387,0.3408,0.3309,0.2913,0.3052,0.3112,0.2742,0.3138,0.338,0.2803,0.0,0.0,0.2917,0.291,0.2917,0.2896,0.2685,0.2506,0.2516,0.2333,0.2221,0.2211,0.208,0.2028,0.2028,0.2028,0.2067,0.2204,0.2447,0.26,0.2712,0.2712,0.2712,0.2712,0.2712,0.2712,0.2712,0.2712,0.2712,0.2712,0.2712,0.2712,0.2712,0.2712,0.2712,0.2712,0.2712,0.2712,0.27,0.2842,0.2893,0.2913,-0.5097,-0.4825,-0.4403,-0.3565,-0.3073,-0.2666,-0.2138,-0.1834,-0.1561,-0.1232,-0.0698,-0.0199,0.0133,0.0401,0.0668,0.1036,0.107,0.1271,0.1709,0.1798,0.1616,0.1018,0.129,0.1515,0.1666,0.163,0.1925,0.2611,0.3149,0.3308,0.3147,0.3694,0.3944,0.3949,0.462,0.4928,0.4995,0.5556,0.6115,0.6706,0.7105,0.7419,0.7699,0.7676,0.7393,0.698,0.6984,0.6723,0.6242,0.5524,0.6385,0.7517,0.6529,0.6226,0.6204,0.6199,0.6204,0.5968,0.4897,0.4079,0.3501,0.3503,0.3491,0.3511,0.3511,0.3511,0.3462,0.3312,0.3295,0.3262,0.3103,0.3414,0.3684,0.3545,0.0,0.3816,0.3625,0.3438,0.3251,0.3041,0.271,0.241,0.2221,0.2127,0.2033,0.1964,0.1899,0.1869,0.1869,0.1869,0.2008,0.2321,0.223,0.2324,0.2568,0.2568,0.262,0.2712,0.2712,0.2712,0.2712,0.2712,0.2712,0.2712,0.2712,0.2712,0.2712,0.2712,0.2712,0.2712,0.2712,0.274,0.2829,0.289,0.2964,0.3025,-0.4243,-0.3971,-0.3496,-0.2396,-0.183,-0.1345,-0.069,-0.0385,-0.017,-0.0067,0.0501,0.0936,0.1103,0.1338,0.1585,0.1782,0.1786,0.1972,0.2326,0.2658,0.2601,0.208,0.2217,0.2513,0.303,0.2586,0.2644,0.3239,0.3499,0.3594,0.3612,0.4101,0.4557,0.4923,0.5168,0.5379,0.5518,0.6192,0.6651,0.7058,0.7848,0.8203,0.8237,0.7891,0.7426,0.7111,0.7772,0.8049,0.7936,0.7137,0.724,0.7495,0.6403,0.6037,0.6044,0.6044,0.6043,0.5949,0.5427,0.4705,0.3974,0.3603,0.3508,0.3497,0.3505,0.3506,0.3513,0.3505,0.3518,0.3487,0.3319,0.3552,0.3745,0.3715,0.3865,0.3918,0.3759,0.3492,0.3223,0.3006,0.2604,0.2259,0.2028,0.1967,0.1892,0.1809,0.1869,0.1935,0.1935,0.1935,0.2009,0.2196,0.2082,0.213,0.2414,0.2458,0.2561,0.2712,0.2712,0.2712,0.2712,0.2712,0.2712,0.2712,0.2712,0.2712,0.2712,0.2712,0.2712,0.2712,0.2712,0.2774,0.2913,0.2957,0.3028,0.3175,-0.3975,-0.2918,-0.1783,-0.1195,-0.0696,-0.0115,0.0763,0.0902,0.0992,0.1281,0.1306,0.1509,0.195,0.2017,0.2267,0.2861,0.291,0.2971,0.3113,0.3782,0.3882,0.313,0.3229,0.3596,0.4213,0.3803,0.3595,0.3623,0.3604,0.3648,0.3626,0.3626,0.4211,0.5303,0.5315,0.553,0.5936,0.6697,0.701,0.7093,0.8228,0.8716,0.8569,0.7466,0.7044,0.7323,0.9519,1.0312,1.0281,1.0281,0.9139,0.7714,0.7714,0.7721,0.7727,0.7685,0.7702,0.736,0.5755,0.5304,0.5024,0.3823,0.3519,0.35,0.3501,0.3506,0.3506,0.3506,0.3761,0.3842,0.3386,0.3535,0.3558,0.3176,0.3122,0.3122,0.3122,0.2878,0.2719,0.2704,0.2281,0.2011,0.2008,0.1895,0.1803,0.1803,0.2044,0.2193,0.2193,0.2193,0.2084,0.1803,0.193,0.2057,0.2207,0.241,0.2561,0.2712,0.2712,0.2712,0.2712,0.2712,0.2712,0.2712,0.2712,0.2712,0.2712,0.2712,0.2712,0.2716,0.2716,0.2778,0.293,0.3069,0.3179,0.3329,-0.2435,-0.1732,-0.1014,-0.0329,0.0204,0.0732,0.1445,0.1794,0.205,0.2137,0.2389,0.276,0.3353,0.339,0.3631,0.4253,0.4294,0.4376,0.4496,0.4692,0.4764,0.4642,0.4664,0.4782,0.4952,0.512,0.4918,0.4388,0.5458,0.5972,0.6004,0.5976,0.6153,0.6483,0.6512,0.6559,0.669,0.6908,0.7473,0.8206,0.856,0.9129,0.9795,0.9446,0.9301,0.9397,1.0058,1.0303,1.0309,1.0305,0.9963,0.9544,0.9526,0.9531,0.9291,0.8075,0.7716,0.7584,0.7127,0.6999,0.6626,0.5147,0.4126,0.3498,0.3512,0.3503,0.3499,0.3503,0.3579,0.3676,0.3763,0.3871,0.3936,0.3988,0.4019,0.4019,0.4019,0.3505,0.3154,0.3255,0.2681,0.2327,0.2476,0.2452,0.2437,0.2437,0.2502,0.2546,0.2546,0.2324,0.2172,0.2084,0.2025,0.2057,0.2207,0.241,0.2561,0.2712,0.2712,0.2712,0.2712,0.2712,0.2712,0.2712,0.2712,0.2712,0.2712,0.2712,0.2744,0.2842,0.2842,0.2995,0.3182,0.3266,0.3378,0.3517,-0.0688,-0.0175,0.0397,0.1076,0.1413,0.1789,0.2305,0.2656,0.2912,0.3085,0.3309,0.3694,0.4309,0.4342,0.4528,0.4922,0.5016,0.5206,0.5515,0.552,0.5669,0.5942,0.599,0.5867,0.5653,0.5669,0.5658,0.562,0.6551,0.7213,0.7674,0.7209,0.6987,0.6994,0.7007,0.7482,0.8291,0.8307,0.8189,0.8103,0.8972,0.9739,1.0283,1.0283,1.0283,1.0283,1.0283,1.0283,1.0293,1.0286,1.0301,1.0298,1.0288,1.0312,1.0057,0.8762,0.8038,0.7707,0.7691,0.7687,0.7463,0.6491,0.5217,0.4216,0.4218,0.4034,0.3842,0.3861,0.3758,0.3754,0.3958,0.3898,0.3854,0.4028,0.403,0.403,0.403,0.3559,0.3252,0.3336,0.2856,0.2572,0.2691,0.2697,0.274,0.2853,0.2762,0.2697,0.2697,0.2394,0.215,0.2044,0.2061,0.2117,0.2207,0.2442,0.262,0.2712,0.2712,0.2712,0.2712,0.2712,0.2712,0.2712,0.2712,0.2712,0.2712,0.2712,0.2771,0.291,0.291,0.3051,0.3306,0.3351,0.3449,0.3581,0.0975,0.1468,0.2051,0.2583,0.2763,0.2903,0.3343,0.3451,0.3645,0.4074,0.4129,0.436,0.4941,0.5023,0.5098,0.5262,0.5397,0.5696,0.6221,0.6307,0.6562,0.7063,0.7147,0.695,0.6508,0.5895,0.611,0.7188,0.7181,0.7701,0.8697,0.7709,0.7278,0.743,0.7397,0.8593,1.0526,1.0368,0.9139,0.7462,0.9476,1.0312,1.0283,1.0283,1.0283,1.0283,1.0283,1.0283,1.0283,1.0283,1.0283,1.0283,1.0283,1.0316,1.0193,0.9648,0.873,0.7927,0.7849,0.7723,0.7586,0.7507,0.6382,0.5309,0.5299,0.488,0.4469,0.4468,0.4277,0.4094,0.4039,0.3788,0.3586,0.3586,0.3586,0.3572,0.3546,0.3303,0.314,0.3138,0.2896,0.274,0.2762,0.2762,0.2875,0.3089,0.2875,0.2719,0.2654,0.2367,0.2084,0.1803,0.2053,0.2211,0.2211,0.2533,0.2712,0.2712,0.2712,0.2712,0.2712,0.2712,0.2712,0.2712,0.2712,0.2712,0.2712,0.2712,0.2778,0.2927,0.2927,0.3072,0.3329,0.3329,0.3459,0.3581,0.1604,0.2093,0.2541,0.2672,0.3078,0.3558,0.4081,0.416,0.4406,0.4956,0.5035,0.525,0.5847,0.5931,0.6115,0.654,0.6603,0.6683,0.681,0.728,0.7579,0.7704,0.8103,0.8427,0.8602,0.8092,0.8142,0.8789,0.8666,0.8625,0.8716,0.886,0.9551,1.0606,1.0588,1.1252,1.2256,1.0863,1.0007,0.9649,1.0099,1.0309,1.0283,1.0283,1.0283,1.0283,1.0283,1.0283,1.0283,1.0283,1.0283,1.0283,1.0283,1.0312,1.028,1.014,0.9944,0.9577,0.8911,0.7759,0.6618,0.5976,0.555,0.5285,0.5297,0.5189,0.5096,0.5102,0.5049,0.4877,0.44,0.4255,0.4215,0.4215,0.4215,0.4135,0.3931,0.3605,0.341,0.3419,0.3181,0.3089,0.3309,0.333,0.3266,0.3111,0.3046,0.2805,0.2324,0.2237,0.2084,0.1803,0.2053,0.2211,0.2211,0.2533,0.2712,0.2712,0.2712,0.2712,0.2712,0.2712,0.2712,0.2712,0.2712,0.2712,0.2712,0.2712,0.2835,0.3076,0.3076,0.3263,0.3531,0.3531,0.3551,0.3581,0.2679,0.3117,0.351,0.351,0.3997,0.4487,0.4783,0.4822,0.5043,0.5653,0.5739,0.5959,0.6513,0.6562,0.6683,0.6979,0.6979,0.7105,0.7405,0.7447,0.7614,0.787,0.8349,0.881,0.929,0.9676,0.9768,0.9592,0.9412,0.9455,0.9723,0.9942,1.0426,1.1176,1.1895,1.2463,1.2832,1.1935,1.1558,1.1502,1.1097,1.0682,1.0309,1.0309,1.0302,1.0283,1.0283,1.0283,1.0283,1.0283,1.0283,1.0283,1.0283,1.0283,1.0283,1.0316,1.0153,0.9886,0.942,0.859,0.7559,0.619,0.5588,0.5289,0.5289,0.5299,0.5307,0.5283,0.5295,0.5149,0.4678,0.4496,0.4402,0.4402,0.4402,0.4302,0.4032,0.3842,0.3686,0.3518,0.3372,0.3351,0.3485,0.3506,0.3442,0.3309,0.3046,0.2762,0.2459,0.2172,0.1968,0.1889,0.209,0.2241,0.234,0.2567,0.2712,0.2712,0.2712,0.2712,0.2712,0.2712,0.2712,0.2712,0.2712,0.2712,0.2712,0.2712,0.2856,0.3082,0.3082,0.331,0.3581,0.3581,0.3581,0.3581,0.3751,0.418,0.4565,0.4565,0.4957,0.5346,0.5437,0.5437,0.5653,0.6264,0.6349,0.652,0.6937,0.7105,0.7189,0.7266,0.7189,0.7384,0.7953,0.7609,0.7631,0.8204,0.8724,0.9292,0.9787,1.0812,1.1028,1.0288,1.0266,1.0484,1.0995,1.0876,1.0821,1.0839,1.2151,1.2777,1.2903,1.292,1.2828,1.2692,1.2077,1.1344,1.0577,1.0363,1.0318,1.0291,1.0291,1.0292,1.0283,1.0283,1.0283,1.0283,1.0283,1.0283,1.0283,1.0283,1.0029,0.9709,0.9709,0.9531,0.8964,0.7503,0.6439,0.5735,0.5705,0.5484,0.5313,0.5295,0.5401,0.5385,0.5064,0.485,0.4739,0.4658,0.4658,0.4529,0.4187,0.4146,0.3988,0.3625,0.3539,0.3506,0.3506,0.3506,0.3505,0.3508,0.3023,0.273,0.2725,0.218,0.192,0.202,0.2171,0.2333,0.2513,0.2637,0.2712,0.2712,0.2712,0.2712,0.2712,0.2712,0.2712,0.2712,0.2712,0.2712,0.2712,0.2712,0.2856,0.3082,0.3082,0.331,0.3581,0.3581,0.3581,0.3581,0.4303,0.4783,0.5173,0.5173,0.526,0.548,0.6002,0.6093,0.6264,0.681,0.6894,0.6937,0.6979,0.7447,0.7946,0.8431,0.8028,0.7906,0.823,0.8708,0.9139,0.9448,1.0543,1.1376,1.1803,1.1426,1.1453,1.1899,1.2273,1.2184,1.1661,1.1661,1.1652,1.1634,1.1871,1.2299,1.2898,1.2899,1.2606,1.2148,1.2579,1.2353,1.1644,1.0668,1.0299,1.0306,1.0306,1.0312,1.0287,1.0287,1.0318,1.0283,1.0283,1.0283,1.0283,1.0283,1.0244,1.0195,1.0195,0.9658,0.9152,0.968,0.8603,0.743,0.7388,0.6309,0.5314,0.5308,0.5846,0.6211,0.5822,0.602,0.6101,0.5755,0.5695,0.5464,0.4785,0.4694,0.4489,0.3998,0.3681,0.3506,0.3506,0.3506,0.3497,0.3501,0.3115,0.288,0.2878,0.2416,0.2157,0.2181,0.2347,0.2462,0.2513,0.2637,0.2712,0.2712,0.2712,0.2712,0.2712,0.2712,0.2712,0.2712,0.2712,0.2712,0.2712,0.2712,0.2856,0.3082,0.3082,0.331,0.3581,0.3581,0.3581,0.3581,0.4913,0.5394,0.5787,0.5787,0.6039,0.6337,0.6598,0.6641,0.6725,0.6979,0.6979,0.6979,0.6979,0.7389,0.7823,0.8224,0.8364,0.8646,0.9054,0.942,0.9843,1.0275,1.1094,1.1582,1.1771,1.2006,1.2282,1.2588,1.2415,1.2344,1.2403,1.2412,1.2412,1.2403,1.2403,1.2608,1.2881,1.2881,1.2764,1.2531,1.279,1.2759,1.2423,1.1934,1.1768,1.1733,1.1733,1.1446,1.102,1.0806,1.0565,1.0283,1.0283,1.0283,1.0283,1.0283,1.0283,1.0283,1.0283,1.0022,0.982,1.0184,0.9738,0.9181,0.9159,0.7846,0.6659,0.6632,0.669,0.6612,0.6283,0.6183,0.6098,0.5913,0.5703,0.5387,0.4876,0.4807,0.4655,0.4262,0.4095,0.3991,0.3991,0.3991,0.3995,0.3993,0.3688,0.3508,0.3499,0.2914,0.2637,0.2706,0.2571,0.2524,0.2609,0.2682,0.2712,0.2712,0.2712,0.2712,0.2712,0.2712,0.2712,0.2712,0.2712,0.2712,0.2712,0.2712,0.2856,0.3082,0.3082,0.331,0.3581,0.3581,0.3581,0.3581]},{"header":{"parameterUnit":"m.s-1","parameterCategory":1,"la1":30.6,"la2":28.766,"lo1":-90.7593,"lo2":-88.6598,"dy":0.0162,"dx":0.0183,"nx":116,"ny":114,"refTime":"2024-07-09T12:00:00:Z","depth":0,"parameterNumber":3,"parameterNumberName":"V-component_of_WINDS"},"data":[0.0,0.0,0.0,0.0,0.0,0.0,0.0,0.0,0.0,0.0,0.0,0.0,0.0,0.0,0.0,0.0,0.0,0.0,0.0,0.0,0.0,0.0,0.0,0.0,0.0,0.0,0.0,0.0,0.0,0.0,0.0,0.0,0.0,0.0,0.0,0.0,0.0,0.0,0.0,0.0,0.0,0.0,0.0,0.0,0.0,0.0,0.0,0.0,0.0,0.0,0.0,0.0,0.0,0.0,0.0,0.0,0.0,0.0,0.0,0.0,0.0,0.0,0.0,0.0,0.0,0.0,0.0,0.0,0.0,0.0,0.0,0.0,0.0,0.0,0.0,0.0,0.0,0.0,0.0,0.0,0.0,0.0,0.0,0.0,0.0,0.0,0.0,0.0,0.0,0.0,0.0,0.0,0.0,0.0,0.0,0.0,0.0,0.0,0.0,0.0,0.0,0.0,0.0,0.0,0.0,0.0,0.0,0.0,0.0,0.0,0.0,0.0,0.0,0.0,0.0,0.0,0.0,0.0,0.0,0.0,0.0,0.0,0.0,0.0,0.0,0.0,0.0,0.0,0.0,0.0,0.0,0.0,0.0,0.0,0.0,0.0,0.0,0.0,0.0,0.0,0.0,0.0,0.0,0.0,0.0,0.0,0.0,0.0,0.0,0.0,0.0,0.0,0.0,0.0,0.0,0.0,0.0,0.0,0.0,0.0,0.0,0.0,0.0,0.0,0.0,0.0,0.0,0.0,0.0,0.0,0.0,0.0,0.0,0.0,0.0,0.0,0.0,0.0,0.0,0.0,0.0,0.0,0.0,0.0,0.0,0.0,0.0,0.0,0.0,0.0,0.0,0.0,0.0,0.0,0.0,0.0,0.0,0.0,0.0,0.0,0.0,0.0,0.0,0.0,0.0,0.0,0.0,0.0,0.0,0.0,0.0,0.0,0.0,0.0,0.0,0.0,0.0,0.0,0.0,0.0,0.0,0.0,0.0,0.0,0.0,0.0,0.0,0.0,0.0,0.0,0.0,0.0,0.0,0.0,0.0,0.0,0.0,0.0,0.0,0.0,0.0,0.0,0.0,0.0,0.0,0.0,0.0,0.0,0.0,0.0,0.0,0.0,0.0,0.0,0.0,0.0,0.0,0.0,0.0,0.0,0.0,0.0,0.0,0.0,0.0,0.0,0.0,0.0,0.0,0.0,0.0,0.0,0.0,0.0,0.0,0.0,0.0,0.0,0.0,0.0,0.0,0.0,0.0,0.0,0.0,0.0,0.0,0.0,0.0,0.0,0.0,0.0,0.0,0.0,0.0,0.0,0.0,0.0,0.0,0.0,0.0,0.0,0.0,0.0,0.0,0.0,0.0,0.0,0.0,0.0,0.0,0.0,0.0,0.0,0.0,0.0,0.0,0.0,0.0,0.0,0.0,0.0,0.0,0.0,0.0,0.0,0.0,0.0,0.0,0.0,0.0,0.0,0.0,0.0,0.0,0.0,0.0,0.0,0.0,0.0,0.0,0.0,0.0,0.0,0.0,0.0,0.0,0.0,0.0,0.0,0.0,0.0,0.0,0.0,0.0,0.0,0.0,0.0,0.0,0.0,0.0,0.0,0.0,0.0,0.0,0.0,0.0,0.0,0.0,0.0,0.0,0.0,0.0,0.0,0.0,0.0,0.0,0.0,0.0,0.0,0.0,0.0,0.0,0.0,0.0,0.0,0.0,0.0,0.0,0.0,0.0,0.0,0.0,0.0,0.0,0.0,0.0,0.0,0.0,0.0,0.0,0.0,0.0,0.0,0.0,0.0,0.0,0.0,0.0,0.0,0.0,0.0,0.0,0.0,0.0,0.0,0.0,0.0,0.0,0.0,0.0,0.0,0.0,0.0,0.0,0.0,0.0,0.0,0.0,0.0,0.0,0.0,0.0,0.0,0.0,0.0,0.0,0.0,0.0,0.0,0.0,0.0,0.0,0.0,0.0,0.0,0.0,0.0,0.0,0.0,0.0,0.0,0.0,0.0,0.0,0.0,0.0,0.0,0.0,0.0,0.0,0.0,0.0,0.0,0.0,0.0,0.0,0.0,0.0,0.0,0.0,0.0,0.0,0.0,0.0,0.0,0.0,0.0,0.0,0.0,0.0,0.0,0.0,0.0,0.0,0.0,0.0,0.0,0.0,0.0,0.0,0.0,0.0,0.0,0.0,0.0,0.0,0.0,0.0,0.0,0.0,0.0,0.0,0.0,0.0,0.0,0.0,0.0,0.0,0.0,0.0,0.0,0.0,0.0,0.0,0.0,0.0,0.0,0.0,0.0,0.0,0.0,0.0,0.0,0.0,0.0,0.0,0.0,0.0,0.0,0.0,0.0,0.0,0.0,0.0,0.0,0.0,0.0,0.0,0.0,0.0,0.0,0.0,0.0,0.0,0.0,0.0,0.0,0.0,0.0,0.0,0.0,0.0,0.0,0.0,0.0,0.0,0.0,0.0,0.0,0.0,0.0,0.0,0.0,0.0,0.0,0.0,0.0,0.0,0.0,0.0,0.0,0.0,0.0,0.0,0.0,0.0,0.0,0.0,0.0,0.0,0.0,0.0,0.0,0.0,0.0,0.0,0.0,0.0,0.0,0.0,0.0,0.0,0.0,0.0,0.0,0.0,0.0,0.0,0.0,0.0,0.0,0.0,0.0,0.0,0.0,0.0,0.0,0.0,0.0,0.0,0.0,0.0,0.0,0.0,0.0,0.0,0.0,0.0,0.0,0.0,0.0,0.0,0.0,0.0,0.0,0.0,0.0,0.0,0.0,0.0,0.0,0.0,0.0,0.0,0.0,0.0,0.0,0.0,0.0,0.0,0.0,0.0,0.0,0.0,0.0,0.0,0.0,0.0,0.0,0.0,0.0,0.0,0.0,0.0,0.0,0.0,0.0,0.0,0.0,0.0,0.0,0.0,0.0,0.0,0.0,0.0,0.0,0.0,0.0,0.0,0.0,0.0,0.0,0.0,0.0,0.0,0.0,0.0,0.0,0.0,0.0,0.0,0.0,0.0,0.0,0.0,0.0,0.0,0.0,0.0,0.0,0.0,0.0,0.0,0.0,0.0,0.0,0.0,0.0,0.0,0.0,0.0,0.0,0.0,0.0,0.0,0.0,0.0,0.0,0.0,0.0,0.0,0.0,0.0,0.0,0.0,0.0,0.0,0.0,0.0,0.0,0.0,0.0,0.0,0.0,0.0,0.0,0.0,0.0,0.0,0.0,0.0,0.0,0.0,0.0,0.0,0.0,0.0,0.0,0.0,0.0,0.0,0.0,0.0,0.0,0.0,0.0,0.0,0.0,0.0,0.0,0.0,0.0,0.0,0.0,0.0,0.0,0.0,0.0,0.0,0.0,0.0,0.0,0.0,0.0,0.0,0.0,0.0,0.0,0.0,0.0,0.0,0.0,0.0,0.0,0.0,0.0,0.0,0.0,0.0,0.0,0.0,0.0,0.0,0.0,0.0,0.0,0.0,0.0,0.0,0.0,0.0,0.0,0.0,0.0,0.0,0.0,0.0,0.0,0.0,0.0,0.0,0.0,0.0,0.0,0.0,0.0,0.0,0.0,0.0,0.0,0.0,0.0,0.0,0.0,0.0,0.0,0.0,0.0,0.0,0.0,0.0,0.0,0.0,0.0,0.0,0.0,0.0,0.0,0.0,0.0,0.0,0.0,0.0,0.0,0.0,0.0,0.0,0.0,0.0,0.0,0.0,0.0,0.0,0.0,0.0,0.0,0.0,0.0,0.0,0.0,0.0,0.0,0.0,0.0,0.0,0.0,0.0,0.0,0.0,0.0,0.0,0.0,0.0,0.0,0.0,0.0,0.0,0.0,0.0,0.0,0.0,0.0,0.0,0.0,0.0,0.0,0.0,0.0,0.0,0.0,0.0,0.0,0.0,0.0,0.0,0.0,0.0,0.0,0.0,0.0,0.0,0.0,0.0,0.0,0.0,0.0,0.0,0.0,0.0,0.0,0.0,0.0,0.0,0.0,0.0,0.0,0.0,0.0,0.0,0.0,0.0,0.0,0.0,0.0,0.0,0.0,0.0,0.0,0.0,0.0,0.0,0.0,0.0,0.0,0.0,0.0,0.0,0.0,0.0,0.0,0.0,0.0,0.0,0.0,0.0,0.0,0.0,0.0,0.0,0.0,0.0,0.0,0.0,0.0,0.0,0.0,0.0,0.0,0.0,0.0,0.0,0.0,0.0,0.0,0.0,0.0,0.0,0.0,0.0,0.0,0.0,0.0,0.0,0.0,0.0,0.0,0.0,0.0,0.0,0.0,0.0,0.0,0.0,0.0,0.0,0.0,0.0,0.0,0.0,0.0,0.0,0.0,0.0,0.0,0.0,0.0,0.0,0.0,0.0,0.0,0.0,0.0,0.0,0.0,0.0,0.0,0.0,0.0,0.0,0.0,0.0,0.0,0.0,0.0,0.0,0.0,0.0,0.0,0.0,0.0,0.0,0.0,0.0,0.0,0.0,0.0,0.0,0.0,0.0,0.0,0.0,0.0,0.0,0.0,0.0,0.0,0.0,0.0,0.0,0.0,0.0,0.0,0.0,0.0,0.0,0.0,0.0,0.0,0.0,0.0,0.0,0.0,0.0,0.0,0.0,0.0,0.0,0.0,0.0,0.0,0.0,0.0,0.0,0.0,0.0,0.0,0.0,0.0,0.0,0.0,0.0,0.0,0.0,0.0,0.0,0.0,0.0,0.0,0.0,0.0,0.0,0.0,0.0,0.0,0.0,0.0,0.0,0.0,0.0,0.0,0.0,0.0,0.0,0.0,0.0,0.0,0.0,0.0,0.0,0.0,0.0,0.0,0.0,0.0,0.0,0.0,0.0,0.0,0.0,0.0,0.0,0.0,0.0,0.0,0.0,0.0,0.0,0.0,0.0,0.0,0.0,0.0,0.0,0.0,0.0,0.0,0.0,0.0,0.0,0.0,0.0,0.0,0.0,0.0,0.0,0.0,0.0,0.0,0.0,0.0,0.0,0.0,0.0,0.0,0.0,0.0,0.0,0.0,0.0,0.0,0.0,0.0,0.0,0.0,0.0,0.0,0.0,0.0,0.0,0.0,0.0,0.0,0.0,0.0,0.0,0.0,0.0,0.0,0.0,0.0,0.0,0.0,0.0,0.0,0.0,0.0,0.0,0.0,0.0,0.0,0.0,0.0,0.0,0.0,0.0,0.0,0.0,0.0,0.0,0.0,0.0,0.0,0.0,0.0,0.0,0.0,0.0,0.0,0.0,0.0,0.0,0.0,0.0,0.0,0.0,0.0,0.0,0.0,0.0,0.0,0.0,0.0,0.0,0.0,0.0,0.0,0.0,0.0,0.0,0.0,0.0,0.0,0.0,0.0,0.0,0.0,0.0,0.0,0.0,0.0,0.0,0.0,0.0,0.0,0.0,0.0,0.0,0.0,0.0,0.0,0.0,0.0,0.0,0.0,0.0,0.0,0.0,0.0,0.0,0.0,0.0,0.0,0.0,0.0,0.0,0.0,0.0,0.0,0.0,0.0,0.0,0.0,0.0,0.0,0.0,0.0,0.0,0.0,0.0,0.0,0.0,0.0,0.0,0.0,0.0,0.0,0.0,0.0,0.0,0.0,0.0,0.0,0.0,0.0,0.0,0.0,0.0,0.0,0.0,0.0,0.0,0.0,0.0,0.0,0.0,0.0,0.0,0.0,0.0,0.0,0.0,0.0,0.0,0.0,0.0,0.0,0.0,0.0,0.0,0.0,0.0,0.0,0.0,0.0,0.0,0.0,0.0,0.0,0.0,0.0,0.0,0.0,0.0,0.0,0.0,0.0,0.0,0.0,0.0,0.0,0.0,0.0,0.0,0.0,0.0,0.0,0.0,0.0,0.0,0.0,0.0,0.0,0.0,0.0,0.0,0.0,0.0,0.0,0.0,0.0,0.0,0.0,0.0,0.0,0.0,0.0,0.0,0.0,0.0,0.0,0.0,0.0,0.0,0.0,0.0,0.0,0.0,0.0,0.0,0.0,0.0,0.0,0.0,0.0,0.0,0.0,0.0,0.0,0.0,0.0,0.0,0.0,0.0,0.0,0.0,0.0,0.0,0.0,0.433,0.0,0.0,0.0,0.0,0.0,0.0,0.0,0.0,0.0,0.0,0.0,0.0,0.0,0.0,0.0,0.0,0.0,0.0,0.0,0.0,0.0,0.0,0.0,0.0,-0.505,-0.6055,-0.6385,-0.659,-0.6745,-0.6813,0.0,0.0,0.0,0.0,0.0,-0.8767,-0.8649,-0.8759,-0.9059,-0.82,-0.781,-0.7836,-0.7268,-0.7537,-0.849,0.0,0.0,0.0,0.0,0.0,0.0,0.0,0.0,0.0,0.0,0.0,0.0,0.0,0.0,0.0,0.0,0.0,0.0,0.0,0.0,0.0,0.0,0.0,0.0,0.0,0.0,0.0,0.0,0.0,0.0,0.0,0.0,0.0,0.0,0.0,0.0,0.0,0.0,0.0,0.0,0.0,0.0,0.0,0.0,0.0,0.0,0.0,0.0,0.0,0.0,0.0,0.0,0.0,0.0,0.0,0.0,0.0,0.0,0.0,0.0,0.0,0.0,0.0,0.0,0.0,0.0,0.0,0.0,0.0,0.0,0.0,0.4063,0.0,0.0,0.0,0.0,0.0,0.0,0.0,0.0,0.0,0.0,0.0,0.0,0.0,0.0,0.0,0.0,0.0,0.0,0.0,0.0,0.0,-0.0471,-0.1723,-0.3488,-0.4724,-0.5014,-0.5136,-0.5508,-0.6283,0.0,0.0,0.0,0.0,-0.9409,-0.9589,-0.8586,-0.8471,-0.9285,-0.7559,-0.6553,-0.627,-0.6545,-0.7168,0.0,-0.9281,0.0,0.0,0.0,0.0,0.0,0.0,0.0,0.0,0.0,0.0,0.0,0.0,0.0,0.0,0.0,0.0,0.0,0.0,0.0,0.0,0.0,0.0,0.0,0.0,0.0,0.0,0.0,0.0,0.0,0.0,0.0,0.0,0.0,0.0,0.0,0.0,0.0,0.0,0.0,0.0,0.0,0.0,0.0,0.0,0.0,0.0,0.0,0.0,0.0,0.0,0.0,0.0,0.0,0.0,0.0,0.0,0.0,0.0,0.0,0.0,0.0,0.0,0.0,0.4234,0.4348,0.4515,0.4338,0.4351,0.4501,0.4046,0.401,0.4168,0.0,0.0,0.0,0.0,0.0,0.0,0.0,0.0,0.0,0.0,0.0,0.0,0.0,0.0,0.0,0.0,0.0,0.0,0.0,0.0,-0.0531,-0.1914,0.0698,0.1956,0.0504,-0.0108,-0.0761,-0.1624,0.0,0.0,0.0,-0.7755,-0.6995,-0.8729,-0.7427,-0.6643,-0.6454,-0.5542,-0.5164,-0.5299,0.0,0.0,0.0,-0.844,-0.9435,0.0,0.0,0.0,0.0,0.0,0.0,0.0,0.0,0.0,0.0,0.0,0.0,0.0,0.0,0.0,0.0,0.0,0.0,0.0,0.0,0.0,0.0,0.0,0.0,0.0,0.0,0.0,0.0,0.0,0.0,0.0,0.0,0.0,0.0,0.0,0.0,0.0,0.0,0.0,0.0,0.0,0.0,0.5806,0.64,0.0,0.0,0.0,0.0,0.0,0.0,0.0,0.0,0.0,0.0,0.0,0.0,0.0,0.3646,0.4402,0.3773,0.3782,0.4433,0.4433,0.4498,0.4519,0.4498,0.4498,0.446,0.3756,0.0,0.4368,0.3475,0.0,0.0,0.0,0.0,0.0,0.0,0.0,0.0,0.0,0.0,0.0,0.0,0.0,0.0,0.0,0.0,0.0,0.0,0.0,0.0,0.0,0.2563,0.4612,0.6367,0.6235,0.6406,0.0,0.0,0.0,-0.3725,-0.367,-0.4616,-0.6808,-0.5436,-0.4662,-0.4557,-0.4455,-0.4574,0.0,0.0,0.0,0.0,-0.7832,-0.9204,0.0,0.0,0.0,0.0,0.0,0.0,0.0,0.0,0.0,0.0,0.0,0.0,0.0,0.0,0.0,0.0,0.0,0.0,0.0,0.0,0.0,0.0,0.0,0.0,0.0,0.0,0.0,0.0,0.0,0.0,0.0,0.0,0.0,0.0,0.0,0.0,0.0,0.0,0.0,0.0,0.0,0.5233,0.5571,0.6184,0.5561,0.511,0.0,0.0,0.0,0.0,0.0,0.0,0.0,0.0,0.0,0.2456,0.2215,0.2454,0.3176,0.2843,0.2843,0.3231,0.3231,0.3231,0.3231,0.3231,0.3231,0.3176,0.2843,0.2899,0.3118,0.2307,0.1986,0.1899,0.0,0.0,0.0,0.0,0.0,0.0,0.0,0.0,0.0,0.0,0.0,0.0,0.0,0.0,0.0,0.0,0.0,0.0,0.3423,0.4328,0.6427,0.9925,0.0,0.0,0.0,0.0,0.0,0.4556,0.1495,-0.1151,-0.3217,-0.2727,-0.285,-0.3645,-0.3556,0.0,0.0,0.0,0.0,0.0,0.0,0.0,0.0,0.0,0.0,0.0,0.0,0.0,0.0,0.0,0.0,0.0,0.0,0.0,0.0,0.0,0.0,0.0,0.0,0.0,0.0,0.0,0.0,0.0,0.0,0.0,0.0,0.0,0.0,0.0,0.0,0.0,0.0,0.0,0.0,0.0,0.0,0.0,0.0,0.0,0.0,0.0,0.0,0.5456,0.5567,0.6263,0.5477,0.494,0.0,0.0,0.0,0.0,0.0,0.0,0.2366,0.2093,0.173,0.1396,0.1174,0.1452,0.2174,0.2009,0.2009,0.2174,0.2174,0.2174,0.2174,0.2174,0.2174,0.2174,0.2009,0.1898,0.1898,0.134,0.1118,0.1006,0.028,0.0,0.0,0.0,0.0,0.0,0.0,0.0,0.0,0.0,0.0,0.0,0.0,0.0,0.0,0.0,0.0,0.5263,0.0,0.0,0.0,0.0,0.0,0.0,0.0,0.0,0.0,1.2198,0.7388,0.4162,0.2878,0.0866,0.0,0.0,0.0,0.0,0.0,0.0,0.0,0.0,0.0,0.0,0.0,0.0,0.0,0.0,0.0,0.0,0.0,0.0,0.0,0.0,0.0,0.0,0.0,0.0,0.0,0.0,0.0,0.0,0.0,0.0,0.0,0.0,0.0,0.0,0.0,0.0,0.0,0.0,0.0,0.0,0.0,0.0,0.0,0.0,0.0,0.0,0.0,0.0,0.0,0.0,0.0,0.0,0.0,0.7139,0.5848,0.0,0.0,0.0,0.0,0.4484,0.3111,0.2558,0.3224,0.1895,0.1452,0.212,0.1452,0.1452,0.2174,0.1507,0.1507,0.2174,0.2174,0.2174,0.2174,0.2174,0.2174,0.2174,0.1452,0.1174,0.1174,0.1118,0.1118,0.1006,0.028,0.0,0.0,0.0,0.0,0.0,0.0,0.0,0.0,0.3819,0.4276,0.4606,0.4606,0.4953,0.5315,0.5609,0.5867,0.0,0.0,0.0,0.0,0.0,0.0,0.0,0.0,0.0,0.0,1.0337,0.9046,0.6902,0.3696,0.2304,0.0688,0.0,0.0,0.0,0.0,0.0,0.0,0.0,0.0,0.0,0.0,0.0,0.0,0.0,0.0,0.0,0.0,0.0,0.0,0.0,0.0,0.0,0.0,0.0,0.0,0.0,0.0,0.0,0.0,0.0,0.0,0.0,0.0,0.0,0.0,0.0,0.0,0.0,0.0,0.0,0.0,0.0,0.0,0.0,0.0,0.0,0.0,0.0,0.0,0.0,0.0,0.0,0.0,0.6609,0.5835,0.0,0.4882,0.4576,0.4406,0.4515,0.3511,0.2841,0.2619,0.1619,0.1006,0.0783,0.0504,0.0504,0.0783,0.0504,0.0504,0.0783,0.0783,0.0783,0.0783,0.0783,0.0783,0.0783,0.0504,0.0392,0.0392,0.0392,0.0392,0.0392,0.0112,0.0,0.0,0.0,0.0,0.0,0.3066,0.3598,0.0,0.4386,0.4886,0.5274,0.5274,0.5725,0.6155,0.6374,0.6652,0.0,0.0,0.0,0.0,0.0,0.0,0.0,0.0,0.0,1.1266,0.9688,0.9983,0.8266,0.4156,0.3461,0.0,0.0,0.0,0.0,0.0,0.0,0.0,0.0,0.0,0.0,0.0,0.0,0.0,0.0,0.0,0.0,-1.3969,0.0,0.0,0.0,0.0,0.0,0.0,0.0,0.0,0.0,0.0,0.0,0.0,0.0,0.0,0.0,0.0,0.0,0.0,0.0,0.0,0.0,0.0,0.0,0.0,0.0,0.0,0.0,0.0,0.0,0.0,0.0,0.0,0.0,0.0,0.0,0.6812,0.6385,0.5842,0.5218,0.457,0.4519,0.4519,0.4519,0.3511,0.273,0.2232,0.1285,0.0504,0.0,0.0,0.0,0.0,0.0,0.0,0.0,0.0,0.0,0.0,0.0,0.0,0.0,0.0,0.0,0.0,0.0,0.0,0.0,0.0,0.0,0.0,0.0,0.0,0.0,0.3039,0.3763,0.4401,0.4666,0.5325,0.5814,0.5821,0.6398,0.6921,0.7195,0.0,0.0,0.0,0.0,0.0,0.0,0.0,0.0,0.0,0.0,1.1074,1.1013,1.0499,0.8498,0.4774,0.0,0.0,0.0,0.0,0.0,0.0,0.0,0.0,0.0,0.0,0.0,0.0,0.0,0.0,0.0,0.0,0.0,-1.4378,0.0,0.0,0.0,0.0,0.0,0.0,0.0,0.0,0.0,0.0,0.0,0.0,0.0,0.0,0.0,0.0,0.0,0.0,0.0,0.0,0.0,0.0,0.0,0.0,0.0,0.0,0.0,0.0,0.0,0.0,0.0,0.0,0.0,0.8427,0.7816,0.7183,0.6671,0.5977,0.5273,0.457,0.4519,0.4519,0.4519,0.3065,0.2174,0.2174,0.0783,0.0,0.0,0.0,0.0,0.0,0.0,0.0,0.0,0.0,0.0,0.0,0.0,0.0,0.0,0.0,0.0,0.0,0.0,0.0,0.0,0.0,0.0,0.0,0.0,0.0,0.0,0.3342,0.4029,0.4677,0.4952,0.5609,0.6142,0.6276,0.6927,0.7502,0.0,0.0,0.0,0.0,0.0,0.0,0.0,0.0,0.0,0.0,0.0,1.1328,1.1367,1.0982,0.0,0.0,0.0,0.0,0.0,0.0,0.0,0.0,0.0,0.0,0.0,0.0,0.0,0.0,0.0,0.0,0.0,0.0,0.0,-1.5216,0.0,0.0,0.0,0.0,0.0,0.0,0.0,0.0,0.0,0.0,0.0,0.0,0.0,0.0,0.0,0.0,0.0,0.0,0.0,0.0,0.0,0.0,0.0,0.0,0.0,0.0,0.0,0.0,0.0,0.0,0.0,0.0,0.8427,0.8427,0.8397,0.7964,0.674,0.6421,0.5823,0.4625,0.4519,0.4519,0.4519,0.3065,0.2174,0.2174,0.0783,0.0,0.0,0.0,0.0,0.0,0.0,0.0,0.0,0.0,0.0,0.0,0.0,0.0,0.0,0.0,0.0,0.0,0.0,0.0,0.0,0.0,0.0,0.0,0.0,0.0,0.0,0.3425,0.405,0.4657,0.503,0.5701,0.6277,0.646,0.718,0.7753,0.7982,0.0,0.0,0.0,0.0,0.0,0.0,0.0,0.0,0.995,1.0753,1.141,0.0,0.0,0.0,0.0,0.0,0.0,0.0,0.0,0.0,0.0,0.0,0.0,0.0,0.0,0.0,0.0,0.0,0.0,0.0,0.0,0.0,-1.538,-1.7129,-1.6969,-1.5837,-1.6108,-1.58,-1.5122,-1.4269,0.0,0.0,0.0,0.0,0.0,0.0,0.0,0.0,0.0,0.0,0.0,0.0,0.0,0.0,0.0,0.0,0.0,0.0,0.0,0.0,0.0,0.0,0.0,0.0,0.8243,0.8557,0.8557,0.8704,0.8262,0.675,0.6588,0.6041,0.4625,0.4519,0.4491,0.4375,0.3002,0.217,0.2141,0.075,0.0,0.0,0.0,0.0,0.0,0.0,0.0,0.0,0.0,0.0,0.0,0.0,0.0,0.0,0.0,0.0,0.0,0.0,0.0,0.0,0.0,0.0,0.0,0.0,0.0,0.0,0.3377,0.39,0.4441,0.5001,0.5694,0.6242,0.6426,0.7166,0.7739,0.7841,0.0,0.0,0.0,0.0,0.0,0.0,0.0,0.0,0.0,0.0,0.0,1.1996,0.0,0.0,0.0,0.0,0.0,0.0,0.0,0.0,0.0,0.0,0.0,0.0,0.0,0.0,0.0,0.0,0.0,0.0,0.0,0.0,-1.5263,-1.7321,-1.7076,-1.5726,-1.6305,-1.6381,-1.6022,-1.4897,0.0,0.0,0.0,0.0,0.0,0.0,0.0,0.0,0.0,0.0,0.0,0.0,0.0,0.0,0.0,0.0,0.0,0.0,0.0,0.0,0.0,0.0,0.0,0.0,0.8617,0.8798,0.8764,0.8758,0.8218,0.6768,0.6528,0.5977,0.4576,0.4467,0.4358,0.418,0.2949,0.213,0.2015,0.0,0.0,0.0,0.0,0.0,0.0,0.0,0.0,0.0,0.0,0.0,0.0,0.0,0.0,0.0,0.0,0.0,0.0,0.0,0.0,0.0,0.0,0.0,0.0,0.0,0.0,0.0,0.33,0.3763,0.422,0.4962,0.5574,0.6034,0.6224,0.6735,0.7205,0.762,0.768,0.0,0.0,0.0,0.0,0.0,0.0,0.0,0.0,0.0,0.0,0.0,0.0,0.0,0.0,0.0,0.0,0.0,0.0,0.0,0.0,0.0,0.0,0.0,0.0,0.0,0.0,0.0,0.0,0.0,0.0,0.0,-1.5989,-1.7066,-1.713,-1.6632,-1.6648,-1.6117,-1.5404,-1.5311,-1.4868,-1.4257,-1.3783,0.0,0.0,0.0,0.0,0.0,0.0,0.0,0.0,0.0,0.0,0.0,0.0,0.0,0.0,0.0,0.0,0.0,0.0,0.0,0.0,0.8427,0.8617,0.8724,0.849,0.8457,0.7987,0.6577,0.6263,0.5608,0.4205,0.4104,0.4094,0.4066,0.2792,0.2026,0.2014,0.0725,0.0,0.0,0.0,0.0,0.0,0.0,0.0,0.0,0.0,0.0,0.0,0.0,0.0,0.0,0.0,0.0,0.0,0.0,0.0,0.0,0.0,0.0,0.0,0.0,0.0,0.0,0.2481,0.3225,0.3989,0.4942,0.5547,0.5973,0.6183,0.6596,0.7058,0.753,0.7605,0.0,0.0,0.0,0.0,0.0,0.0,0.0,0.0,0.0,0.0,0.0,0.0,0.0,0.0,0.0,0.0,0.0,0.0,0.0,0.0,0.0,0.0,0.0,0.0,0.0,0.0,0.0,0.0,0.0,0.0,0.0,-1.5655,-1.6547,-1.6525,-1.6054,-1.6412,-1.6164,-1.5631,-1.5526,-1.5262,-1.4888,-1.4513,-1.3469,-1.2058,0.0,0.0,0.0,0.0,0.0,0.0,0.0,0.0,0.0,0.0,0.0,0.0,0.0,0.0,0.8017,0.8123,0.0,0.8591,0.8591,0.8591,0.8537,0.8397,0.8158,0.7532,0.6326,0.609,0.5487,0.4118,0.4019,0.3988,0.391,0.2735,0.1987,0.19,0.0679,0.0,0.0,0.0,0.0,0.0,0.0,0.0,0.0,0.0,0.0,0.0,0.0,0.0,0.0,0.0,0.0,0.0,0.0,0.0,0.0,0.0,0.0,0.0,0.0,0.0,0.0,0.1685,0.2667,0.3736,0.4776,0.5423,0.5881,0.604,0.6441,0.6881,0.7393,0.7469,0.7575,0.787,0.8162,0.0,0.0,0.0,0.0,0.0,0.0,0.0,0.0,0.0,0.0,0.0,0.0,0.0,0.0,0.0,0.0,0.0,0.0,0.0,0.0,0.0,0.0,0.0,0.0,0.0,0.0,0.0,0.0,-1.5054,-1.5995,-1.5843,-1.5245,-1.611,-1.6299,-1.6102,-1.5863,-1.5753,-1.5627,-1.5178,-1.4036,-1.2491,-1.0887,-0.9001,0.0,0.0,0.0,0.0,0.0,0.0,0.0,0.0,0.0,0.6494,0.6754,0.7602,0.829,0.829,0.8477,0.8637,0.8637,0.8444,0.8243,0.813,0.7689,0.702,0.5985,0.584,0.5414,0.417,0.3979,0.3883,0.3761,0.2765,0.2035,0.1834,0.0768,0.014,0.0,0.0,0.0,0.0,0.0,0.0,0.0,0.0,0.0,0.0,0.0,0.0,0.0,0.0,0.0,0.0,0.0,0.0,0.0,0.0,0.0,0.0,0.0,0.0,0.0,0.1685,0.2528,0.3411,0.4252,0.503,0.5549,0.5576,0.5826,0.6248,0.6888,0.6986,0.7223,0.7827,0.8037,0.8476,0.0,0.0,0.0,0.0,0.0,0.0,0.0,0.0,0.0,0.0,0.0,0.0,0.0,0.0,0.0,0.0,0.0,0.0,0.0,0.0,0.0,0.0,0.0,0.0,0.0,0.0,0.0,-1.4817,-1.5583,-1.5624,-1.5385,-1.6138,-1.6361,-1.6328,-1.672,-1.662,-1.6266,-1.5441,-1.4111,-1.2545,-1.0875,0.0,-0.7264,-0.5009,-0.1923,0.0794,0.1594,0.3087,0.4447,0.0,0.0,0.6635,0.6783,0.7433,0.7976,0.7976,0.7961,0.7981,0.7981,0.7955,0.7789,0.7248,0.7114,0.6639,0.5515,0.5397,0.5115,0.4409,0.3932,0.3622,0.3605,0.301,0.2375,0.183,0.1157,0.057,0.0,0.0,0.0,0.0,0.0,0.0,0.0,0.0,0.0,0.0,0.0,0.0,0.0,0.0,0.0,0.0,0.0,0.0,0.0,0.0,0.0,0.0,0.0,0.0,0.0,0.1689,0.2505,0.3208,0.3536,0.4392,0.5088,0.5242,0.5488,0.5932,0.6638,0.6722,0.6983,0.765,0.8288,0.9047,0.9937,0.0,0.0,0.0,0.0,0.0,0.0,0.0,0.0,0.0,0.0,0.0,0.0,0.0,0.0,0.0,0.0,0.0,0.0,0.0,0.0,0.0,0.0,0.0,0.0,0.0,0.0,-1.5074,-1.5163,-1.5294,-1.5565,-1.6687,-1.707,0.0,0.0,-1.6315,-1.5718,-1.4533,-1.328,-1.1845,-0.9799,-0.8042,0.0,-0.2761,-0.026,0.1558,0.0,0.3635,0.4965,0.5221,0.6231,0.7185,0.7418,0.7678,0.7882,0.7882,0.8153,0.8388,0.0,0.8303,0.8091,0.7615,0.7168,0.6605,0.5919,0.5647,0.5148,0.413,0.3841,0.36,0.3314,0.2839,0.2323,0.1723,0.1167,0.0605,0.0,0.0,0.0,0.0,0.0,0.0,0.0,0.0,0.0,0.0,0.0,0.0,0.0,0.0,0.0,0.0,0.0,0.0,0.0,0.0,0.0,0.0,0.0,0.0,0.0,0.1683,0.2372,0.2874,0.2981,0.3702,0.4432,0.4914,0.5155,0.5571,0.6381,0.6497,0.6803,0.7649,0.8239,0.8953,0.9903,1.0579,1.062,0.0,0.0,0.0,0.0,0.0,0.0,0.0,0.0,0.0,0.0,0.0,0.0,0.0,0.0,0.0,0.0,0.0,0.0,0.0,0.0,0.0,0.0,0.0,0.0,-1.5011,-1.4881,-1.5048,-1.5548,-1.6996,-1.7562,0.0,0.0,-1.6408,-1.594,-1.3948,-1.2908,-1.1837,-0.8961,-0.6501,-0.403,-0.0854,0.1066,0.0,0.271,0.4007,0.528,0.568,0.6441,0.7161,0.7521,0.7702,0.7774,0.776,0.8171,0.855,0.8685,0.8519,0.8214,0.7849,0.713,0.6549,0.6278,0.5914,0.5335,0.4356,0.4056,0.3754,0.332,0.2936,0.2472,0.1888,0.1399,0.0862,0.0281,0.0094,0.0,0.0,0.0,0.0,0.0,0.0,0.0,0.0,0.0,0.0,0.0,0.0,0.0,0.0,0.0,0.0,0.0,0.0,0.0,0.0,0.0,0.0,0.0,0.1683,0.203,0.2324,0.2654,0.2955,0.35,0.4547,0.4726,0.5078,0.6082,0.6206,0.6684,0.7946,0.7582,0.772,0.8837,0.9327,0.9385,0.8967,0.9854,0.0,0.0,0.0,0.0,0.0,0.0,0.0,0.0,0.0,0.0,0.0,0.0,0.0,0.0,0.0,0.0,0.0,0.0,0.0,0.0,0.0,0.0,-1.4354,-1.4746,-1.4941,-1.5211,-1.6765,0.0,0.0,0.0,-1.7417,-1.7707,-1.4209,-1.3492,0.0,-0.8934,-0.4638,0.0,0.0,0.0,0.3241,0.3124,0.3996,0.5089,0.5738,0.5906,0.6129,0.6702,0.7155,0.7402,0.7409,0.7749,0.8179,0.861,0.8316,0.7918,0.7649,0.685,0.6316,0.6316,0.593,0.5634,0.0,0.4685,0.4088,0.3795,0.3464,0.3057,0.2514,0.2008,0.1475,0.0897,0.0315,0.0,0.0,0.0,0.0,0.0,0.0,0.0,0.0,0.0,0.0,0.0,0.0,0.0,0.0,0.0,0.0,0.0,0.0,0.0,0.0,0.0,0.0,0.0,0.1594,0.1876,0.2022,0.2324,0.2783,0.3338,0.4065,0.4317,0.4745,0.5611,0.6165,0.0,0.0,0.0,0.0,0.0,0.9222,0.9405,0.9626,0.957,0.0,0.0,0.0,0.0,0.0,0.0,0.0,0.0,0.0,0.0,0.0,0.0,0.0,0.0,0.0,0.0,0.0,0.0,0.0,0.0,0.0,0.0,-1.363,-1.3484,-1.3227,-1.2942,0.0,0.0,0.0,0.0,0.0,-1.4968,-1.2832,0.0,0.0,-0.4033,0.0,0.0549,0.2884,0.0,0.3966,0.462,0.536,0.6039,0.6236,0.6593,0.7006,0.7446,0.7968,0.8392,0.8636,0.9112,0.9429,0.93,0.8922,0.843,0.7805,0.7198,0.6847,0.6827,0.6906,0.0,0.0,0.0,0.0,0.397,0.3541,0.3057,0.2514,0.2051,0.1518,0.094,0.0314,0.0,0.0,0.0412,0.0412,0.0,0.0,0.0,0.0,0.0,0.0,0.0,0.0,0.0,0.0,0.0,0.0,0.0,0.0,0.0,0.0,0.0,0.0,0.0,0.1274,0.1658,0.1876,0.2154,0.2611,0.0,0.0,0.0,0.0,0.0,0.0,0.0,0.0,0.0,0.0,0.0,0.0,0.8932,0.9357,0.0,0.0,0.0,0.0,0.0,0.0,0.0,0.0,0.0,0.0,0.0,0.0,0.0,0.0,0.0,0.0,0.0,0.0,0.0,0.0,0.0,0.0,0.0,-1.2302,-1.1596,-1.1211,0.0,0.0,0.0,0.0,0.0,0.0,0.0,0.0,0.0,0.0,0.0,0.22,0.3467,0.5439,0.5681,0.5459,0.5759,0.6346,0.6853,0.6835,0.7423,0.8045,0.8261,0.8896,0.9406,0.9447,0.9874,1.0149,0.9827,0.9429,0.8987,0.8474,0.7778,0.74,0.7646,0.7645,0.767,0.0,0.0,0.0,0.4585,0.4275,0.3814,0.3137,0.2654,0.2138,0.1563,0.0939,0.0627,0.0627,0.1029,0.094,0.0314,0.0314,0.0225,0.0,0.0,0.0,0.0,0.0,0.0,0.0,0.0,0.0,0.0,0.0,0.0,0.0,0.0,0.0,0.0,0.0803,0.1388,0.1883,0.0,0.0,0.0,0.0,0.0,0.0,0.0,0.0,0.0,0.0,0.0,0.0,0.0,0.0,0.0,0.8245,0.0,0.0,0.0,0.0,0.0,0.7837,0.8046,0.0,0.0,0.0,0.0,0.0,0.0,0.0,0.0,0.0,0.0,0.0,0.0,0.0,0.0,0.0,0.0,-1.0384,-0.9272,0.0,0.0,0.0,0.0,0.0,0.0,0.0,0.0,0.0,0.0,0.0,0.0,0.0,0.7389,0.7354,0.7534,0.7509,0.6629,0.7024,0.7583,0.7501,0.834,0.9101,0.9101,0.9906,1.0489,0.9994,0.0,1.0383,1.0253,0.9864,0.9563,0.9507,0.8504,0.8048,0.0,0.0,0.0,0.0,0.0,0.0,0.5757,0.0,0.5137,0.4313,0.3773,0.3284,0.276,0.214,0.1786,0.1786,0.1786,0.1518,0.0984,0.094,0.0583,0.0045,0.0,0.0,0.0,0.0,0.0,0.0,0.0,0.0,0.0,0.0,0.0,0.0,0.0,0.0,0.0,0.0,0.0,0.0,0.0,0.0,0.0,0.0,0.0,0.0,0.0,0.0,0.0,0.0,0.0,0.0,0.0,0.0,0.0,0.0,0.0,0.0,0.0,0.0,0.0,0.0,0.0,0.0,0.0,0.0,0.0,0.0,0.0,0.0,0.0,0.0,0.0,0.0,0.0,0.0,0.0,0.0,0.0,-0.8084,0.0,0.0,0.0,0.0,0.0,0.0,0.0,0.0,0.0,0.0,0.3441,0.6331,0.0,0.0,0.7576,0.9097,0.8806,0.807,0.8075,0.8581,0.8981,0.8668,0.9629,1.0577,1.0706,1.1622,1.2481,1.2646,1.2513,0.0,1.193,1.1237,0.0,0.9687,0.9326,0.0,0.9821,0.0,0.931,0.9892,0.9525,0.0,0.0,0.6508,0.5449,0.5024,0.405,0.3456,0.3281,0.2315,0.1786,0.1786,0.1786,0.1962,0.2228,0.134,0.0806,0.0672,0.0225,0.0,0.0,0.0,0.0,0.0,0.0,0.0,0.0,0.0,0.0,0.0,0.0,0.0,0.0,0.0,0.0,0.0,0.0,0.0,0.0,0.0,0.0,0.0,0.0,0.0,0.0,0.0,0.0,0.0,0.0,0.0,0.0,0.0,0.0,0.0,0.0,0.0,0.0,0.0,0.0,0.0,0.0,0.0,0.0,0.0,0.0,0.0,0.0,0.0,0.0,0.0,0.0,0.0,0.0,0.0,0.0,0.0,0.0,0.0,0.0,0.0,0.0,0.0,0.0,0.0,0.4785,0.5905,0.7428,0.9172,1.1117,0.0,0.9725,1.0451,0.9929,0.9129,0.897,0.952,1.0088,0.9959,1.1278,1.2594,1.2756,1.3612,1.4285,1.4168,1.4068,0.0,0.0,0.0,0.0,1.1277,1.0803,1.0623,0.0,1.0521,0.0,1.112,1.0794,1.0311,0.0,0.7896,0.6603,0.6081,0.4938,0.416,0.3898,0.3025,0.2591,0.2591,0.2591,0.2632,0.2672,0.2008,0.1563,0.1297,0.094,0.0627,0.0403,0.0,0.0493,0.0,0.0269,0.0224,0.0,0.0,0.0,0.0,0.0,0.0,0.0,0.0,0.0,0.0,0.0,0.0,0.0,0.0,0.0,0.0,0.5204,0.5585,0.0,0.0,0.0,0.0,0.0,0.0,0.0,0.0,0.0,0.0,0.0,0.0,0.0,0.0,0.0,0.0,0.0,0.0,0.0,0.0,0.0,0.0,0.0,0.0,0.0,0.0,0.0,0.0,0.0,0.0,0.0,0.0,0.0,0.0,0.0,0.0,0.0,0.0,0.0,0.9563,0.8443,0.9537,1.0456,1.1124,1.112,1.1732,1.2209,1.1267,1.0657,1.0177,0.9613,1.0235,1.1061,1.1416,1.3135,1.471,1.493,0.0,1.59,1.5196,1.5199,1.5168,1.4621,0.0,1.3805,1.3347,1.2522,1.1941,1.1883,1.1499,1.1559,1.2339,1.184,1.1295,1.0864,0.9384,0.8052,0.7175,0.6027,0.5087,0.4434,0.3965,0.3667,0.3581,0.3581,0.335,0.2807,0.2719,0.2406,0.1919,0.183,0.1518,0.1029,0.0,0.0,0.0269,0.0716,0.0583,0.0135,0.0135,0.009,0.0,0.009,0.009,0.0,0.0,0.0,0.0,0.0,0.0,0.0,0.0,0.0,0.0,0.0,0.0,0.0,0.0,0.0,0.0,0.0,0.0,0.0,0.0,0.0,0.0,0.0,0.0,0.0,0.0,0.0,0.0,0.0,0.0,0.0,0.0,0.0,0.0,0.0,0.0,0.0,0.0,0.0,0.0,0.0,0.0,0.0,0.0,0.0,0.0,0.0,0.0,0.0,0.0,0.0,0.9206,0.8803,1.1281,1.1658,1.1255,1.1707,1.1603,1.1234,1.0666,1.0183,0.9995,1.0679,1.1367,1.2169,1.3311,1.4777,0.0,0.0,1.6804,1.7103,1.7019,1.646,1.5979,1.5749,1.5182,1.4509,1.3718,1.3477,1.3215,0.0,1.238,1.2183,0.0,0.0,0.0,0.0,0.0,0.8902,0.7807,0.6641,0.5524,0.443,0.4303,0.4049,0.3626,0.3581,0.3534,0.3442,0.2943,0.263,0.2539,0.2006,0.1741,0.1652,0.1741,0.0,0.1474,0.1073,0.0851,0.0761,0.0761,0.0448,0.0045,0.0538,0.0448,0.0,0.0,0.0,0.0,0.0,0.0,0.0,0.0,0.0,0.0,0.0,0.6153,0.6359,0.0,0.0,0.0,0.0,0.0,0.0,0.0,0.0,0.0,0.0,0.0,0.0,0.0,0.0,0.0,0.0,0.0,0.0,0.0,0.0,0.0,0.0,0.0,0.0,0.0,0.0,0.0,0.0,0.0,0.0,0.0,0.0,0.0,0.0,0.0,0.0,0.0,0.0,1.0497,1.0553,1.2075,1.2052,1.1499,1.1675,1.1436,1.1003,1.061,1.0151,0.9973,1.0911,1.1758,1.2822,1.4583,0.0,0.0,0.0,1.8179,1.8302,1.8206,1.7895,0.0,1.7576,1.6891,1.6259,1.598,1.5064,0.0,1.4315,1.3784,1.346,0.0,0.0,0.0,0.0,0.0,0.9633,0.8152,0.6788,0.5556,0.4432,0.4573,0.4548,0.4261,0.4396,0.4312,0.4005,0.3734,0.3426,0.317,0.2857,0.2544,0.2273,0.2588,0.0,0.1786,0.183,0.1652,0.1385,0.1385,0.1207,0.094,0.0895,0.0717,0.0405,0.0,0.0,0.0,0.0,0.0,0.0,0.0,0.5815,0.5968,0.6875,0.6659,0.6899,0.8226,0.8363,0.0,0.0,0.0,0.0,0.0,0.0,0.0,0.0,0.0,0.0,0.0,0.0,0.0,0.0,0.0,0.0,0.0,0.0,0.0,0.0,0.0,0.0,0.0,0.0,0.0,0.0,0.0,0.0,0.0,0.0,0.0,0.0,0.0,0.0,0.0,0.0,1.1908,1.2247,1.2698,1.2586,1.2201,1.1848,1.163,1.137,1.0688,1.0215,1.0132,1.1101,1.1926,1.3169,1.563,1.6882,0.0,0.0,1.9294,1.9243,1.9047,1.902,1.8997,0.0,1.8411,1.8022,1.8069,1.6891,1.5994,0.0,1.5326,0.0,0.0,0.0,0.0,0.0,0.0,0.0,0.8227,0.6918,0.5788,0.4894,0.5042,0.5084,0.501,0.5146,0.5,0.4609,0.4609,0.4308,0.3751,0.3751,0.3435,0.2898,0.3398,0.0,0.0,0.2541,0.2406,0.2006,0.2006,0.1919,0.1739,0.1429,0.121,0.1034,0.0,0.0,0.0,0.0,0.0,0.0,0.0,0.5888,0.6171,0.6277,0.6776,0.7392,0.813,0.8489,0.0,0.0,0.0,0.0,0.0,0.0,0.0,0.0,0.0,0.0,0.0,0.0,0.0,0.0,0.0,0.0,0.0,0.0,0.0,0.0,0.0,0.0,0.0,0.0,0.0,0.0,0.0,0.0,0.0,0.0,0.0,0.0,0.0,0.0,0.0,0.0,0.0,1.2861,1.3669,1.399,1.3867,1.28,0.0,0.0,1.0633,1.0192,1.0555,1.1782,1.2167,1.3152,1.6648,0.0,1.8119,1.9616,1.9777,1.9673,1.9698,1.9318,0.0,0.0,0.0,0.0,1.8368,1.8752,1.8501,1.6879,0.0,0.0,0.0,0.0,0.0,0.0,0.0,0.0,0.7983,0.7506,0.697,0.6318,0.5992,0.5679,0.5431,0.5111,0.5022,0.5216,0.5216,0.4913,0.4303,0.4303,0.4049,0.3534,0.3578,0.0,0.0,0.2898,0.2672,0.2627,0.2627,0.2273,0.1873,0.2361,0.2284,0.1803,0.0,0.0,0.0,0.0,0.0,0.0,0.0,0.6335,0.6438,0.713,0.7348,0.7538,0.781,0.8413,0.8949,0.0,0.0,0.0,0.0,0.0,0.0,0.0,0.0,0.0,0.0,0.0,0.0,0.0,0.0,0.0,0.0,0.0,0.0,0.0,0.0,0.0,0.0,0.0,0.0,0.0,0.0,0.0,0.0,0.0,0.0,0.0,0.0,0.0,0.0,0.0,0.0,0.0,1.4449,1.5071,0.0,0.0,1.314,1.2565,1.2005,1.1387,1.1188,1.2375,1.3104,1.424,1.6926,0.0,1.8717,1.9988,2.0046,1.99,1.9972,1.9711,1.9468,0.0,1.924,1.9345,1.9972,1.9672,1.9332,1.9235,1.8467,0.0,0.0,0.0,0.0,0.0,0.0,0.0,0.9674,0.852,0.7553,0.6827,0.7033,0.6914,0.6364,0.6883,0.6901,0.6431,0.668,0.6493,0.5885,0.5885,0.5433,0.4604,0.4604,0.0,0.0,0.335,0.3262,0.3262,0.3262,0.3081,0.2868,0.2845,0.2693,0.2481,0.0,0.0,0.0,0.0,0.0,0.0,0.6884,0.6799,0.6848,0.7562,0.7724,0.7724,0.7605,0.8151,0.8639,0.8926,0.0,0.0,0.0,0.0,0.0,0.0,0.0,0.0,0.0,0.0,0.0,0.0,0.0,0.0,0.0,0.0,0.0,0.0,0.0,0.0,0.0,0.0,0.0,0.0,0.0,0.0,0.0,0.0,0.0,0.0,0.0,0.0,0.0,0.0,0.0,0.0,0.0,0.0,0.0,0.0,1.4142,1.3513,1.3204,1.2517,1.2148,1.3061,1.3847,1.4984,0.0,1.835,1.9115,2.0168,2.0228,2.0094,2.0146,2.003,1.9931,0.0,1.9913,2.0307,2.1246,2.1023,2.0888,0.0,0.0,0.0,0.0,0.0,0.0,0.0,0.0,0.0,0.0,0.9722,0.8464,0.756,0.787,0.7847,0.7414,0.8105,0.816,0.7625,0.7927,0.7747,0.7176,0.7176,0.6642,0.5775,0.0,0.0,0.0,0.4092,0.3924,0.3585,0.3626,0.3643,0.3611,0.3351,0.3251,0.3207,0.0,0.0,0.0,0.0,0.0,0.0,0.0,0.7188,0.7385,0.7143,0.7693,0.7966,0.7635,0.7605,0.7694,0.79,0.0,0.0,0.0,0.0,0.0,0.0,0.0,0.0,0.0,0.0,0.0,0.0,0.0,0.0,0.0,0.0,0.0,0.0,0.0,0.0,0.0,0.0,0.0,0.0,0.0,0.0,0.0,0.0,0.0,0.0,0.0,0.0,0.0,0.0,0.0,0.0,0.0,0.0,0.0,0.0,1.5893,1.5753,1.39,1.3396,1.3478,1.3899,1.416,1.5053,1.7936,1.875,1.9167,2.0102,2.0293,2.0291,2.0297,2.0294,2.0233,2.0031,2.1384,2.2305,2.1865,2.3212,0.0,0.0,0.0,0.0,0.0,0.0,0.0,0.0,0.0,0.0,0.0,1.111,0.9881,0.8805,0.8396,0.8311,0.8593,0.827,0.8264,0.8587,0.8644,0.8366,0.7788,0.7788,0.7437,0.0,0.0,0.0,0.0,0.5283,0.4604,0.3595,0.3734,0.3788,0.3795,0.3955,0.4087,0.4077,0.0,0.0,0.0,0.0,0.0,0.0,0.0,0.765,0.7721,0.7962,0.8185,0.8469,0.8856,0.8326,0.8193,0.8802,0.0,0.0,0.0,0.0,0.0,0.0,0.0,0.0,0.0,0.0,0.0,0.0,0.0,0.0,0.0,0.0,0.0,0.0,0.0,0.0,0.0,0.0,0.0,0.0,0.0,0.0,0.0,0.0,0.0,0.0,0.0,0.0,0.0,0.0,0.0,0.0,0.0,0.0,0.0,1.6287,1.6276,1.6055,1.5466,1.5257,1.5245,1.551,1.6229,1.72,1.8332,1.9145,1.9785,2.0266,2.0332,2.0312,2.0352,2.0324,2.0455,2.0952,0.0,0.0,0.0,0.0,0.0,0.0,0.0,0.0,0.0,0.0,0.0,0.0,0.0,0.0,0.0,1.1896,1.0698,0.9508,0.9401,0.9162,0.8735,0.9214,0.9419,0.9274,0.9611,0.9707,0.9531,0.9856,0.0,0.0,0.0,0.0,0.0,0.5987,0.5615,0.5298,0.5133,0.5079,0.5065,0.4927,0.4911,0.4865,0.0,0.0,0.0,0.0,0.0,0.0,0.0,0.8224,0.8224,0.8518,0.8526,0.8653,0.9032,0.856,0.8482,0.9157,0.0,0.0,0.0,0.0,0.0,0.0,0.0,0.0,0.0,0.0,0.0,0.0,0.0,0.0,0.0,0.0,0.0,0.0,0.0,0.0,0.0,0.0,0.0,0.0,0.0,0.0,0.8896,0.0,0.0,0.0,0.0,0.0,0.0,0.0,0.0,0.0,0.0,0.0,0.0,0.0,1.6775,1.6648,1.6689,1.6624,1.6624,1.6922,1.7595,1.8329,1.8985,1.9383,1.9769,2.0283,2.0116,2.0075,2.0787,2.0575,2.0682,2.1852,2.2018,0.0,0.0,0.0,0.0,0.0,0.0,0.0,0.0,0.0,0.0,0.0,0.0,0.0,0.0,1.2797,1.1776,1.1016,1.0708,1.0472,1.0315,1.0853,1.1021,1.0798,1.1129,1.1143,1.0888,1.1169,0.0,0.0,0.0,0.0,0.0,0.7517,0.7141,0.6888,0.6627,0.6422,0.6303,0.6085,0.5935,0.5679,0.0,0.0,0.0,0.0,0.0,0.0,0.0,0.0,0.0,0.0,0.8773,0.8669,0.8544,0.8457,0.8623,0.0,0.0,0.0,0.0,0.0,0.0,0.0,0.0,0.0,0.0,0.0,0.0,0.0,0.8127,0.8098,0.8418,0.0,0.0,0.0,0.0,0.0,0.0,0.0,0.0,0.0,0.0,1.0111,0.0,0.0,0.0,0.0,0.0,0.0,0.0,0.0,0.0,0.0,0.0,0.0,0.0,0.0,0.0,0.0,0.0,1.7558,1.7625,1.8064,1.8254,1.864,1.9754,1.9528,0.0,2.021,1.9768,1.9723,2.1473,2.1037,2.0989,2.272,0.0,0.0,0.0,0.0,0.0,0.0,0.0,0.0,0.0,0.0,0.0,0.0,0.0,0.0,0.0,1.3775,1.3098,1.3098,1.23,1.2203,1.2855,1.2893,1.2939,1.2944,1.2987,1.2651,1.2008,1.1984,0.0,0.0,0.0,0.0,0.0,0.981,0.9194,0.845,0.8249,0.7936,0.7604,0.7459,0.7095,0.6584,0.0,0.0,0.0,0.0,0.0,0.0,0.0,0.0,0.0,0.0,0.0,0.9195,0.9718,0.9093,0.0,0.0,0.0,0.0,0.0,0.0,0.0,0.0,0.0,0.0,0.0,0.0,0.0,0.7537,0.7284,0.7355,0.7734,0.7502,0.0,0.0,0.0,0.0,0.0,0.0,0.0,0.0,1.0949,1.1219,0.0,0.0,0.0,0.0,1.0997,1.1168,0.0,0.0,0.0,0.0,0.0,0.0,0.0,0.0,1.6845,1.7975,1.813,0.0,1.7988,1.8761,1.8815,1.8906,0.0,1.9988,2.0081,2.0336,0.0,2.0502,2.1591,2.1611,2.1997,0.0,0.0,0.0,0.0,0.0,0.0,0.0,0.0,0.0,0.0,0.0,0.0,0.0,0.0,0.0,0.0,1.4296,1.408,1.408,1.4504,1.4314,1.3429,1.3973,1.4255,1.4232,1.4113,1.3954,1.3799,1.4008,0.0,0.0,0.0,0.0,1.1487,1.2696,1.2039,1.0354,1.1214,1.0767,0.9673,0.9252,0.8751,0.8068,0.0,0.0,0.0,0.0,0.0,0.0,0.0,0.0,0.0,0.0,0.0,0.0,0.0,0.0,0.0,0.0,0.0,0.0,0.0,0.0,0.0,0.0,0.0,0.0,0.0,0.0,0.0,0.0,0.0,0.7669,0.0,0.0,0.0,0.0,0.0,0.0,0.0,0.0,0.0,0.0,1.1549,0.0,0.0,0.0,0.0,0.0,1.1034,1.0928,0.0,1.1114,1.1668,1.2352,0.0,0.0,0.0,0.0,1.691,1.836,1.8415,1.8825,1.9378,1.9999,2.0044,2.0088,2.0606,0.0,0.0,0.0,0.0,0.0,0.0,0.0,0.0,0.0,2.454,0.0,0.0,0.0,0.0,0.0,0.0,0.0,0.0,0.0,0.0,0.0,0.0,0.0,0.0,1.4851,1.4812,1.4812,1.5965,1.6043,1.4942,1.5728,1.6062,1.5935,1.5726,1.5442,1.5071,1.5094,1.4758,0.0,0.0,0.0,1.3539,1.4292,1.4125,1.3504,1.3927,1.3292,1.2108,1.2045,1.1189,0.9889,0.0,0.0,0.0,0.0,0.0,0.0,0.0,0.0,0.0,0.0,0.0,0.0,0.0,0.0,0.0,0.0,0.0,0.0,0.0,0.0,0.0,0.0,0.0,0.0,0.0,0.0,0.0,0.0,0.0,0.0,0.0,0.0,0.0,0.0,0.0,0.0,0.0,0.0,0.0,0.0,1.1947,0.0,0.0,0.0,0.0,0.0,0.0,0.0,0.0,1.107,1.1479,1.1963,1.2654,0.0,0.0,0.0,0.0,0.0,1.8669,1.9887,2.1092,2.1105,2.112,2.1224,2.1533,0.0,0.0,0.0,0.0,0.0,0.0,2.3336,0.0,0.0,0.0,0.0,0.0,0.0,0.0,0.0,0.0,0.0,0.0,0.0,0.0,0.0,0.0,0.0,0.0,1.5303,1.5305,1.5305,1.6678,1.7164,1.6627,1.7634,1.8015,1.7788,1.7576,1.7115,1.6467,1.6187,1.5988,0.0,0.0,0.0,1.5725,1.5802,1.6127,1.6586,1.6576,1.5823,1.4719,1.488,1.3758,1.1963,0.0,0.0,0.0,0.0,0.0,0.0,0.0,0.0,0.0,0.0,0.0,0.0,0.0,0.0,0.0,0.0,0.0,0.0,0.0,0.0,0.0,0.0,0.0,0.0,0.0,0.0,0.0,0.0,0.0,0.0,0.894,0.8348,0.8798,0.0,0.0,0.0,0.0,0.0,0.0,1.1953,1.2374,0.0,0.0,0.0,0.0,0.0,0.0,0.0,0.0,0.9752,1.0812,1.2084,1.2212,0.0,0.0,0.0,0.0,0.0,1.9431,2.1091,2.2058,2.0566,2.0326,2.065,2.1423,0.0,0.0,0.0,0.0,0.0,0.0,0.0,0.0,0.0,0.0,0.0,0.0,0.0,0.0,0.0,0.0,0.0,0.0,0.0,0.0,0.0,0.0,0.0,0.0,1.5296,1.5305,1.5305,1.6149,1.6779,1.7164,1.8827,1.9629,1.9602,1.9333,1.9148,1.9013,1.8756,1.8287,0.0,0.0,1.7892,1.688,1.949,1.9184,1.727,1.9274,1.8803,1.6995,1.6167,1.5344,1.4169,0.0,0.0,0.0,0.0,0.0,0.0,0.0,0.0,0.0,0.0,0.0,0.0,0.0,0.0,0.0,0.0,0.0,0.0,0.0,0.0,0.0,0.0,0.0,0.0,0.0,0.0,0.0,0.0,0.0,0.9134,0.8729,0.9124,0.9875,1.0931,0.0,0.0,0.0,0.0,0.0,1.2549,0.0,0.0,0.0,0.0,0.0,0.0,0.0,0.0,0.0,0.0,1.0246,1.1076,1.1986,0.0,0.0,0.0,0.0,0.0,1.8042,1.978,2.1256,2.0412,2.1357,2.2567,2.2968,0.0,0.0,0.0,0.0,0.0,0.0,0.0,0.0,0.0,0.0,0.0,0.0,0.0,0.0,0.0,0.0,0.0,0.0,0.0,0.0,0.0,0.0,0.0,0.0,0.0,1.4975,1.4975,1.5651,1.6157,1.6424,1.8269,1.9334,1.962,1.9247,1.9059,1.9055,1.889,1.8637,1.8346,0.0,1.8802,1.8269,1.9701,2.0021,1.9695,2.0793,2.0459,1.9098,1.7301,1.6204,1.5326,0.0,0.0,0.0,0.0,0.0,0.0,0.0,0.0,0.0,0.0,0.0,0.0,0.0,0.0,0.0,0.0,0.0,0.0,0.0,0.0,0.0,0.0,0.0,0.0,0.0,0.0,0.0,0.9551,0.9565,0.9194,0.8483,0.9914,1.0849,0.0,0.0,0.0,0.0,0.0,0.0,1.3109,0.0,0.0,0.0,0.0,0.0,0.0,0.0,0.0,0.0,0.0,0.0,0.0,0.0,0.0,0.0,1.4532,1.6042,1.7437,1.7186,1.8725,2.0515,2.0931,2.2376,2.3828,2.423,0.0,0.0,0.0,0.0,0.0,0.0,0.0,0.0,0.0,0.0,0.0,0.0,0.0,0.0,0.0,0.0,0.0,0.0,0.0,0.0,0.0,0.0,0.0,0.0,0.0,1.468,1.468,1.5111,1.5424,1.5602,1.7197,1.8367,1.9101,1.8921,1.8822,1.8824,1.8729,1.8654,1.8672,1.9037,1.9206,1.9219,1.9535,2.0432,2.162,2.1953,2.1627,2.0796,1.8975,1.7675,1.665,0.0,0.0,0.0,0.0,0.0,0.0,0.0,0.0,0.0,0.0,0.0,0.0,0.0,0.0,0.0,0.0,0.0,0.0,0.0,0.0,0.0,0.0,0.0,0.0,0.0,1.1321,1.1362,0.9969,1.0012,0.9547,0.8624,1.009,1.0841,0.0,0.0,0.0,0.0,0.0,0.0,1.3824,1.381,0.0,0.0,0.0,0.0,0.0,0.0,0.0,0.0,0.0,0.0,0.0,0.0,0.0,1.3812,1.3876,1.5166,1.6929,1.8498,1.9689,2.0874,2.2491,2.243,0.0,2.4024,2.3726,0.0,2.5176,0.0,0.0,0.0,0.0,0.0,0.0,0.0,0.0,0.0,0.0,0.0,0.0,0.0,0.0,0.0,0.0,0.0,0.0,0.0,0.0,0.0,0.0,0.0,1.4615,1.4341,1.4567,1.5329,1.6079,1.7167,1.857,1.9213,1.9541,1.9513,1.9278,1.9153,1.9153,1.9183,1.9202,1.9306,2.0545,2.1278,2.1717,2.2966,2.2716,2.1636,2.1791,2.0694,1.8972,0.0,0.0,0.0,0.0,0.0,0.0,0.0,0.0,0.0,0.0,0.0,0.0,0.0,0.0,0.0,0.0,0.0,0.0,0.0,0.0,0.0,0.0,0.0,1.1983,0.9789,1.0641,1.0604,0.9571,0.9592,0.9666,0.9799,1.0808,0.0,0.0,0.0,0.0,0.0,0.0,0.0,0.0,1.4059,1.4229,0.0,0.0,0.0,0.0,0.0,0.0,0.0,0.0,1.0235,0.0,0.0,0.0,0.0,0.0,1.4815,1.5966,1.6617,1.8636,2.0719,2.1383,2.2086,0.0,0.0,2.453,2.4857,0.0,0.0,0.0,0.0,0.0,0.0,0.0,0.0,0.0,0.0,0.0,0.0,0.0,0.0,0.0,0.0,0.0,0.0,0.0,0.0,0.0,0.0,0.0,0.0,1.3796,1.3669,1.3688,1.3869,1.5193,1.6217,1.6958,1.7956,1.843,1.8412,1.823,1.8356,1.8705,1.8826,1.9107,1.9477,2.0004,2.0671,2.1501,2.3008,2.3419,2.3057,2.2424,2.1383,2.01,0.0,0.0,0.0,0.0,0.0,0.0,0.0,0.0,0.0,0.0,0.0,0.0,0.0,0.0,0.0,0.0,0.0,0.0,0.0,0.0,0.0,0.0,0.0,1.1794,1.0238,1.0309,1.0086,0.9488,0.9446,0.9699,1.0276,0.0,0.0,0.0,0.0,0.0,0.0,0.0,0.0,0.0,1.4407,1.4597,0.0,0.0,0.0,0.0,0.0,0.0,0.0,0.0,1.0925,0.0,0.0,0.0,0.0,0.0,0.0,1.5924,1.6477,1.8573,2.0723,2.1269,0.0,0.0,2.4219,2.4606,0.0,0.0,0.0,0.0,0.0,0.0,0.0,0.0,0.0,0.0,0.0,0.0,0.0,0.0,0.0,0.0,0.0,0.0,0.0,0.0,0.0,0.0,0.0,0.0,0.0,0.0,1.3227,1.3105,1.2887,1.4499,1.5415,1.5603,1.6417,1.7131,1.7676,1.7509,1.7659,1.8069,1.8197,1.8608,1.9159,1.9194,2.0205,2.1836,2.3223,2.398,2.4185,2.3362,2.2482,2.1496,0.0,0.0,0.0,0.0,0.0,0.0,0.0,0.0,0.0,0.0,0.0,0.0,0.0,0.0,0.0,0.0,0.0,0.0,0.0,0.0,0.0,0.0,0.0,1.1421,1.1295,1.0521,1.0039,0.9893,0.9775,0.971,0.9747,0.0,0.0,0.0,0.0,0.0,0.0,0.0,0.0,0.0,0.0,1.4916,1.4797,0.0,0.0,0.0,0.0,0.0,0.0,0.0,1.27,1.2555,0.0,0.0,0.0,0.0,1.4677,1.7099,1.8828,1.9941,2.1016,0.0,0.0,0.0,2.4219,2.373,0.0,0.0,0.0,0.0,0.0,0.0,0.0,0.0,0.0,0.0,0.0,0.0,0.0,0.0,0.0,0.0,0.0,0.0,0.0,0.0,0.0,0.0,0.0,0.0,0.0,0.0,1.3087,1.2869,1.261,1.3999,1.4703,1.4697,1.486,1.5883,1.7653,1.7382,1.728,1.728,1.728,1.7649,1.8222,1.8339,2.0133,2.2871,2.373,2.4413,2.4889,2.4899,2.4344,2.3431,0.0,0.0,0.0,0.0,0.0,0.0,0.0,0.0,0.0,0.0,0.0,0.0,0.0,0.0,0.0,0.0,0.0,0.0,0.0,0.0,0.0,0.0,0.0,0.0,0.0,0.0,1.0691,0.9893,0.9869,1.0132,0.0,0.0,0.0,1.1882,0.0,0.0,0.0,0.0,0.0,0.0,0.0,1.3686,1.4178,0.0,0.0,0.0,0.0,0.0,0.0,0.0,0.0,0.0,0.0,0.0,0.0,0.0,1.5967,1.8515,1.8418,1.9922,0.0,2.2129,0.0,0.0,0.0,0.0,0.0,0.0,0.0,0.0,0.0,0.0,0.0,0.0,0.0,0.0,0.0,0.0,0.0,0.0,0.0,0.0,0.0,0.0,0.0,0.0,0.0,0.0,0.0,0.0,0.0,0.0,1.2877,1.2729,1.2332,1.3722,1.4505,1.4719,1.552,1.5814,1.572,1.5401,1.5611,1.6269,1.6738,1.7422,1.8225,1.8603,1.974,2.1374,2.2515,2.3308,2.3879,2.4619,2.4351,2.3584,0.0,0.0,0.0,0.0,0.0,0.0,0.0,0.0,0.0,0.0,0.0,0.0,0.0,0.0,0.0,0.0,0.0,0.0,0.0,0.0,0.0,0.0,0.0,0.0,0.0,1.1055,1.1168,0.0,0.0,0.0,0.0,0.0,0.0,1.1539,0.0,0.0,0.0,0.0,0.0,0.0,0.0,1.3198,1.3901,0.0,0.0,0.0,0.0,0.0,0.0,0.0,0.0,0.0,0.0,0.0,0.0,1.5923,1.7843,1.9922,2.041,2.1445,0.0,2.2812,2.3144,2.3281,2.2793,0.0,0.0,0.0,0.0,0.0,0.0,0.0,0.0,0.0,0.0,0.0,0.0,0.0,0.0,0.0,0.0,0.0,0.0,0.0,0.0,0.0,0.0,0.0,0.0,0.0,0.0,0.0,1.2559,1.2368,1.1861,1.3195,1.3869,1.3919,1.4686,1.472,1.42,1.487,1.546,1.6044,1.683,1.7479,1.8039,1.8582,1.9507,2.0709,2.1802,2.2789,2.371,2.457,2.4612,2.4228,0.0,0.0,1.0038,1.0092,0.0,0.0,0.0,0.0,0.0,0.0,0.0,1.0293,0.0,0.0,0.0,1.0293,0.0,0.0,0.0,0.0,0.0,0.0,0.0,0.0,0.0,0.0,0.0,0.0,0.0,0.0,0.0,0.0,1.0958,1.0227,0.0,1.1277,0.0,0.0,0.0,0.0,1.2456,1.3029,1.3778,1.2998,0.0,0.0,0.0,0.0,0.0,0.0,0.0,0.0,0.0,0.0,0.0,1.841,1.9858,2.1211,2.3457,0.0,0.0,2.3945,2.3027,0.0,2.1894,0.0,0.0,0.0,0.0,0.0,0.0,0.0,0.0,0.0,0.0,0.0,0.0,0.0,0.0,0.0,0.0,0.0,0.0,0.0,0.0,0.0,0.0,0.0,0.0,0.0,0.0,1.2251,1.221,1.1924,1.1341,1.2575,1.3061,0.0,1.3076,1.323,1.3297,1.5213,1.616,1.6351,1.7238,1.7639,1.7707,1.8285,1.9251,2.0474,2.1335,2.2583,2.398,2.4596,2.4976,2.5127,0.0,0.0,1.009,1.0179,0.0,0.0,0.0,0.0,1.0293,1.0293,1.0252,1.023,1.023,1.0219,0.0,1.0229,1.0229,0.0,0.0,0.0,0.0,0.0,0.0,0.0,0.0,0.0,0.0,0.0,0.0,0.0,0.0,0.0,0.0,1.0202,0.0,1.0374,0.0,0.0,0.0,0.0,1.0583,1.1481,1.2807,1.2665,1.3555,0.0,0.0,0.0,0.0,0.0,0.0,0.0,1.5272,1.6691,1.8338,1.8225,1.9814,2.1582,2.1445,2.1289,0.0,0.0,2.2168,2.1894,2.1894,0.0,0.0,0.0,0.0,0.0,0.0,0.0,0.0,0.0,0.0,0.0,0.0,0.0,0.0,0.0,0.0,0.0,0.0,0.0,0.0,0.0,0.0,0.0,0.0,0.0,0.0,1.2514,1.2312,1.2045,1.1703,1.269,1.3168,0.0,1.3833,1.4187,1.4219,1.4306,1.505,1.6322,1.6797,1.7132,1.7405,1.7749,1.8218,1.8842,2.0179,2.1441,2.2661,2.3724,2.4578,2.5177,0.0,0.0,0.0,0.0,0.0,0.0,0.0,0.0,1.0251,1.0246,1.0219,1.0194,1.0194,1.0203,0.0,0.0,1.0157,1.0122,0.0,0.0,0.0,0.0,0.0,0.0,0.0,0.0,0.0,0.0,0.0,0.0,0.0,0.0,0.0,1.0154,0.0,1.0066,0.0,0.0,0.0,0.9949,0.9949,1.0722,1.1921,1.2347,1.3345,1.4588,1.5044,0.0,0.0,0.0,0.0,0.0,0.0,0.0,1.8656,1.9029,2.0406,2.1805,2.1835,0.0,0.0,2.1269,0.0,0.0,0.0,0.0,0.0,0.0,0.0,0.0,0.0,0.0,0.0,0.0,0.0,0.0,0.0,0.0,0.0,0.0,0.0,0.0,0.0,0.0,0.0,0.0,0.0,0.0,0.0,1.2684,1.2491,1.2235,1.1924,1.1645,1.137,1.199,1.2217,1.2058,1.3051,1.3776,1.4214,1.4365,1.4989,1.5982,1.6391,1.6756,1.7069,1.7368,1.7698,1.809,1.9406,2.0818,2.2208,2.3236,2.4347,2.5344,0.0,0.0,0.0,0.0,0.0,0.0,0.0,0.0,0.0,1.0197,1.0187,1.0181,1.0181,1.0169,1.013,0.0,0.0,0.0,0.9901,0.0,0.0,0.0,0.0,0.0,0.0,0.0,0.0,0.0,0.0,0.0,0.0,0.0,0.0,1.008,0.0,0.0,0.0,0.0,0.9944,1.0069,0.9926,1.0464,1.1424,1.2116,1.2985,1.3964,1.4805,1.5183,1.529,1.5303,0.0,0.0,0.0,0.0,1.8028,1.9762,2.0767,2.1503,2.2477,0.0,2.1407,2.0759,2.0467,0.0,0.0,0.0,0.0,0.0,0.0,0.0,0.0,0.0,0.0,0.0,0.0,0.0,0.0,0.0,0.0,0.0,0.0,0.0,0.0,0.0,0.0,0.0,0.0,0.0,1.2271,1.2169,1.2045,1.1876,1.1445,1.115,1.0968,1.1114,1.1039,1.0784,1.1787,1.2751,1.3689,1.4505,1.5108,1.5547,1.5916,1.6335,1.6732,1.7014,1.7288,1.7647,1.8728,2.0156,2.1712,2.2735,2.3987,2.5203,0.0,0.0,0.0,0.0,0.0,0.0,0.0,0.0,0.0,0.0,1.0144,1.0117,1.0117,1.0006,0.993,0.9919,0.9919,0.9914,0.0,0.0,0.0,0.0,0.0,0.0,0.0,0.0,0.0,0.0,0.0,0.0,0.0,0.0,0.0,0.0,0.0,0.0,0.0,0.0,0.0,1.0708,0.9997,1.0639,1.1995,1.2236,1.287,1.3776,1.4744,1.5187,1.5299,1.531,1.5307,0.0,0.0,0.0,0.0,1.8875,1.9483,1.9802,0.0,0.0,2.0588,0.0,1.9951,1.9364,0.0,0.0,0.0,0.0,0.0,0.0,0.0,0.0,0.0,0.0,0.0,0.0,0.0,0.0,0.0,0.0,0.0,0.0,0.0,0.0,0.0,0.0,0.0,0.0,1.2553,1.2051,1.1879,1.2128,1.137,1.1048,1.1227,1.0939,1.0756,1.0712,1.1102,1.178,1.2708,1.357,1.4415,1.5168,1.5241,1.568,1.6371,1.6409,1.6632,1.6986,1.7791,1.8708,1.9807,2.1662,2.2988,2.4009,0.0,0.0,0.0,0.0,0.0,0.0,0.0,0.0,0.0,0.0,0.0,0.9991,0.9991,0.9861,0.9807,0.985,0.9701,0.0,0.0,0.0,0.0,0.0,0.0,0.0,0.0,0.0,0.0,0.0,0.0,0.0,0.0,1.0269,1.0044,0.0,0.0,0.0,0.0,0.0,0.0,1.066,0.9897,1.0715,1.236,0.0,1.2872,1.4072,0.0,0.0,0.0,1.5226,1.5272,1.5365,1.5757,0.0,0.0,0.0,1.8425,0.0,2.0812,2.1508,2.1749,0.0,2.0869,2.0329,0.0,0.0,0.0,0.0,0.0,0.0,0.0,0.0,0.0,0.0,0.0,0.0,0.0,0.0,0.0,0.0,0.0,0.0,0.0,0.0,0.0,0.0,0.0,1.2276,1.2154,1.1909,1.1738,1.171,1.1187,1.0774,1.0465,1.0165,1.0326,1.0935,1.1045,1.1745,1.2908,1.3285,1.3941,1.479,1.5271,1.5681,1.6034,1.6219,1.6389,1.6591,1.7299,1.8327,1.9619,2.1126,2.2582,2.3918,0.0,0.0,0.0,0.0,0.0,0.0,0.0,0.0,0.0,0.0,0.0,0.9857,0.9838,0.0,0.0,0.0,0.9496,0.0,0.0,0.0,0.0,0.0,0.0,0.0,0.0,0.0,0.0,0.0,0.0,0.0,1.0048,1.0001,0.9932,0.0,0.9874,0.0,0.0,0.0,0.0,1.0843,1.0242,1.117,1.2884,1.2746,1.3437,1.4545,0.0,0.0,0.0,0.0,0.0,0.0,0.0,0.0,0.0,0.0,0.0,0.0,0.0,0.0,2.2511,2.2105,2.1787,2.1177,0.0,0.0,0.0,0.0,0.0,0.0,0.0,0.0,0.0,0.0,0.0,0.0,0.0,0.0,0.0,0.0,0.0,0.0,0.0,0.0,0.0,0.0,0.0,1.1854,1.179,1.1725,1.1601,1.1423,1.0987,1.0543,1.0083,0.9688,0.993,1.0743,1.0865,1.1676,1.3012,1.3138,1.3651,1.4531,1.5198,1.561,1.5827,1.6163,1.6301,1.6367,1.7035,1.8031,1.929,2.0768,2.2197,2.3592,0.0,0.0,0.0,0.0,0.0,0.0,0.0,0.0,0.0,0.0,0.0,0.9752,0.9621,0.9547,0.9456,0.9349,0.9304,0.0,0.0,0.0,0.0,0.0,0.0,0.0,0.0,0.0,0.0,0.0,0.0,0.0,0.9904,0.9906,0.9875,0.981,0.9802,1.0183,1.0774,0.0,0.0,1.1727,1.1503,1.235,1.3823,1.4557,1.4935,1.509,0.0,0.0,0.0,0.0,0.0,0.0,0.0,0.0,1.5531,0.0,0.0,0.0,0.0,2.101,0.0,2.2629,0.0,0.0,0.0,0.0,0.0,0.0,0.0,0.0,0.0,0.0,0.0,0.0,0.0,0.0,0.0,0.0,0.0,0.0,0.0,0.0,0.0,0.0,0.0,0.0,0.0,1.2081,1.1811,1.149,1.1468,1.1747,1.0902,1.0556,1.0849,0.9941,0.9609,0.9785,1.0231,1.1186,1.2544,1.2926,1.3621,1.4496,1.4566,1.5043,1.5827,1.6163,1.6301,1.6367,1.7035,1.7516,1.8095,2.0437,2.1649,2.2383,0.0,0.0,0.0,0.0,0.0,0.0,0.0,0.0,0.0,0.0,0.0,0.0,0.0,0.9313,0.9247,0.9303,0.0,0.0,0.0,0.0,0.0,0.0,0.0,0.0,0.0,0.0,0.0,0.0,0.0,0.9898,0.9901,0.9863,1.0098,1.0539,0.9942,1.0054,1.0692,1.0263,0.0,0.0,1.2102,1.3091,0.0,1.4813,1.5347,1.601,0.0,0.0,0.0,0.0,0.0,0.0,0.0,1.5713,1.547,1.6406,1.7829,0.0,0.0,0.0,0.0,2.2585,2.2343,0.0,0.0,0.0,0.0,0.0,0.0,0.0,0.0,0.0,0.0,0.0,0.0,0.0,0.0,0.0,0.0,0.0,0.0,0.0,0.0,0.0,0.0,0.0,0.0,0.0,1.1805,1.1681,1.1579,1.149,1.1159,1.0746,1.0196,0.9431,0.939,1.0038,1.0541,1.1494,1.2838,1.3362,1.4065,1.4876,1.4878,1.5225,1.5799,1.5926,1.6123,1.6355,1.6799,1.7263,1.7922,1.9681,2.0952,2.2039,0.0,0.0,0.0,1.3784,0.0,1.1895,1.1027,0.0,0.0,0.0,0.0,0.0,0.0,0.0,0.0,0.0,0.0,0.0,0.0,0.0,0.0,0.0,0.0,0.0,0.0,0.0,0.0,0.0,0.0,0.0,0.0,0.9787,1.0049,1.0531,0.9867,0.9959,0.0,0.0,0.0,1.2096,0.0,0.0,1.5133,0.0,1.6104,0.0,0.0,0.0,0.0,0.0,0.0,0.0,0.0,1.6106,1.5422,1.6054,1.7398,0.0,1.9314,0.0,0.0,0.0,0.0,0.0,0.0,0.0,0.0,0.0,0.0,0.0,0.0,0.0,0.0,0.0,0.0,0.0,0.0,0.0,0.0,0.0,0.0,0.0,0.0,0.0,0.0,0.0,0.0,0.0,1.1805,1.1805,1.1615,1.1173,1.1173,1.0675,0.9688,0.9349,0.9545,1.0224,1.0707,1.1499,1.2555,1.3269,1.3973,1.4654,1.4969,1.5359,1.5827,1.6039,1.6274,1.6501,1.6968,1.7446,1.8009,1.9213,2.0371,2.1509,1.3698,1.4167,1.4343,1.3617,1.2529,1.1544,1.0802,0.9896,0.0,0.0,0.0,0.0,0.0,0.0,0.0,0.0,0.0,0.0,0.0,0.0,0.0,0.0,0.0,0.0,0.0,0.0,0.0,0.0,0.0,0.0,0.0,0.0,0.9698,0.9691,0.955,0.9931,1.0627,0.0,1.0636,1.1514,0.0,1.4721,1.5236,0.0,0.0,0.0,1.6708,1.7187,0.0,1.7976,0.0,0.0,0.0,1.6494,1.5376,1.537,1.6561,0.0,0.0,0.0,0.0,0.0,0.0,0.0,0.0,0.0,0.0,0.0,0.0,0.0,0.0,0.0,0.0,0.0,0.0,0.0,0.0,0.0,0.0,0.0,0.0,0.0,0.0,0.0,0.0,0.0,0.0,1.1805,1.1805,1.1805,1.1527,1.0944,1.0897,1.0422,0.9449,0.9801,1.0061,1.0216,1.0611,1.1088,1.1665,1.2572,1.3254,1.3745,1.4673,1.5359,1.5826,1.6501,1.6789,1.6866,1.7519,1.7949,1.8274,1.9065,1.9842,2.0744,1.3112,1.376,1.3961,1.3074,1.2228,1.1359,1.0461,0.9543,0.0,0.0,0.0,0.0,0.0,0.0,0.0,0.0,0.0,0.0,0.0,0.0,0.0,0.0,0.0,0.0,0.0,0.0,0.0,0.0,0.0,0.0,0.0,0.0,0.0,0.0,0.9412,0.9425,0.9582,1.0,0.0,0.0,1.3261,1.4117,0.0,0.0,0.0,0.0,0.0,1.7195,1.791,0.0,1.8717,1.8698,0.0,0.0,0.0,1.7137,1.8329,0.0,1.8901,0.0,0.0,0.0,0.0,0.0,0.0,0.0,0.0,0.0,0.0,0.0,0.0,0.0,0.0,0.0,0.0,0.0,0.0,0.0,0.0,0.0,0.0,0.0,0.0,0.0,0.0,0.0,1.205,1.1805,1.1805,1.1805,1.1725,1.1549,1.1132,1.0777,1.0496,1.0109,1.008,1.0341,1.0839,1.1439,1.2121,1.283,1.3388,1.3826,1.4559,1.4961,1.5143,1.5811,1.6367,1.6815,1.7018,1.7432,1.7944,1.8387,1.9142,2.0191,1.2351,1.3208,1.3623,1.2768,1.1888,1.1013,1.0152,0.0,0.0,0.0,0.0,0.0,0.0,0.0,0.0,0.0,0.0,0.0,0.0,0.0,0.0,0.0,0.0,0.0,0.0,0.0,0.0,0.0,0.0,0.0,0.0,0.0,0.0,0.0,1.0245,1.0051,0.9604,1.0342,0.0,0.0,1.3159,0.0,0.0,1.5042,1.5446,0.0,0.0,0.0,1.7679,1.8317,1.8935,0.0,0.0,1.843,1.8343,1.7896,1.8996,0.0,0.0,0.0,0.0,0.0,0.0,0.0,0.0,2.0499,0.0,0.0,0.0,0.0,0.0,0.0,0.0,0.0,0.0,0.0,0.0,0.0,0.0,0.0,0.0,0.0,0.0,0.0,0.0,1.2676,1.2134,1.1805,1.1805,1.1805,1.1725,1.1601,1.1256,1.1001,1.0897,1.0496,1.0422,1.0619,1.093,1.1294,1.1755,1.2502,1.2956,1.3222,1.4038,1.4543,1.4837,1.5212,1.5929,1.6815,1.6952,1.7337,1.7833,1.8103,1.867,1.9535,0.0,1.2551,1.3229,1.2614,1.1645,1.0717,0.9954,0.0,0.0,0.0,0.0,0.0,0.0,0.0,0.0,0.0,0.0,0.0,0.0,0.0,0.0,0.0,0.7707,0.799,0.0,0.0,0.0,0.0,0.0,0.0,0.0,0.0,0.0,0.0,1.1341,1.1087,1.0232,1.1063,0.0,1.1104,1.3106,1.3628,0.0,0.0,1.4239,0.0,1.4242,1.546,1.7133,1.7703,1.8752,0.0,0.0,1.892,1.9476,1.8389,1.9352,0.0,0.0,1.9488,0.0,0.0,0.0,0.0,1.9903,2.0185,2.0246,0.0,0.0,0.0,0.0,0.0,0.0,0.0,0.0,0.0,0.0,0.0,0.0,0.0,0.0,0.0,0.0,1.3652,1.3206,1.2976,1.2306,1.188,1.1805,1.1805,1.1659,1.1363,1.1287,1.115,1.0944,1.0873,1.0873,1.0944,1.0944,1.0968,1.1043,1.1848,1.2245,1.2289,1.3258,1.4029,1.4637,1.4799,1.5628,1.6841,1.7126,1.7479,1.7833,1.8078,1.8351,1.8892,1.0868,1.1641,1.2307,1.2543,1.1914,1.1088,1.0255,0.0,0.0,0.0,0.0,0.0,0.0,0.0,0.0,0.0,0.0,0.0,0.0,0.0,0.0,0.0,0.7076,0.7349,0.0,0.0,0.0,0.0,0.0,0.0,0.0,0.0,0.0,0.0,1.0533,1.0342,1.0136,1.1528,0.0,1.1729,1.239,0.0,1.3528,1.3691,1.3798,1.3906,1.3888,1.4326,1.5222,1.7224,1.8408,1.9189,0.0,0.0,2.0352,2.084,0.0,2.297,2.2216,2.253,2.243,1.9754,0.0,0.0,1.8192,1.818,1.8713,0.0,0.0,0.0,0.0,0.0,0.0,0.0,0.0,0.0,0.0,0.0,0.0,0.0,0.0,0.0,0.0,1.4084,1.3983,1.3936,1.3098,1.2358,1.1835,1.1805,1.1768,1.1703,1.1233,1.1071,1.1219,1.0736,1.0736,1.1219,1.1219,1.1355,1.163,1.18,1.1896,1.1954,1.2687,1.319,1.3605,1.4754,1.5837,1.6815,1.6866,1.7264,1.7811,1.7878,1.8187,1.8836,0.9795,1.0799,1.1554,1.1327,1.1181,1.0715,0.0,0.0,0.0,0.0,0.0,0.0,0.0,0.0,0.0,0.0,0.0,0.0,0.0,0.0,0.0,0.6748,0.6748,0.7029,0.7636,0.7841,0.0,0.0,0.0,0.0,0.0,0.0,0.0,0.0,0.0,1.162,1.1231,0.0,1.2772,1.264,1.2655,0.0,1.2891,1.289,1.2651,1.2338,1.2494,1.2976,1.3891,1.611,1.7299,0.0,0.0,1.9846,2.0462,0.0,2.2021,2.3072,2.3203,2.3392,2.3202,2.1705,0.0,0.0,0.0,1.8346,1.8337,1.8642,0.0,0.0,0.0,0.0,0.0,0.0,0.0,0.0,0.0,0.0,0.0,0.0,0.0,0.0,0.0,1.486,1.4369,1.4035,1.3554,1.3002,1.2328,1.2284,1.2149,1.1805,1.1505,1.1415,1.1557,1.125,1.125,1.1557,1.1557,1.1637,1.1805,1.1805,1.1805,1.1805,1.2167,1.2648,1.3235,1.3953,1.5137,1.654,1.6922,1.7361,1.7811,1.7949,1.8249,1.88,0.8754,0.9953,1.0715,1.0106,1.0316,1.0132,0.0,0.0,0.0,0.0,0.0,0.0,0.0,0.0,0.0,0.0,0.0,0.0,0.0,0.0,0.0,0.6701,0.6721,0.6958,0.7427,0.7734,0.0,0.0,0.0,0.0,0.0,0.0,0.0,0.0,0.0,0.0,0.0,0.0,0.0,1.3379,0.0,1.2753,1.2249,1.2077,1.1499,1.0829,1.1111,1.1821,1.2895,1.4616,0.0,1.6575,1.7235,1.8586,0.0,0.0,0.0,0.0,0.0,0.0,0.0,0.0,0.0,2.0125,0.0,0.0,0.0,1.7633,0.0,0.0,0.0,0.0,0.0,0.0,0.0,0.0,0.0,0.0,0.0,0.0,0.0,0.0,0.0,1.5979,1.5037,1.4244,1.4199,1.384,1.3056,1.2876,1.2561,1.1999,1.1799,1.1725,1.1805,1.1725,1.1725,1.1805,1.1805,1.1805,1.1805,1.1856,1.1878,1.1876,1.194,1.2415,1.3177,1.3302,1.4443,1.6138,1.6842,1.7386,1.7833,1.804,1.833,1.8747,0.8273,0.9086,0.9629,0.994,1.0038,0.0,0.0,0.0,0.0,0.0,0.0,0.0,0.0,0.0,0.0,0.0,0.0,0.0,0.7243,0.0,0.0,0.7148,0.7137,0.717,0.7231,0.7902,0.0,0.0,0.0,0.0,0.0,0.0,1.2603,1.3446,1.2761,0.0,0.0,0.0,1.3396,0.0,1.3363,1.3034,0.0,1.1614,1.1096,1.08,1.0842,1.131,1.2035,0.0,1.3949,1.5156,0.0,1.7468,1.8732,0.0,0.0,0.0,0.0,0.0,0.0,0.0,2.0399,0.0,0.0,0.0,1.6922,1.5193,0.0,0.0,0.0,0.0,0.0,0.0,0.0,0.0,0.0,0.0,0.0,0.0,0.0,0.0,0.0,0.0,1.6877,1.5664,1.5574,1.5034,1.375,1.3107,1.2771,1.2696,1.1805,1.149,1.1805,1.1512,1.1512,1.1805,1.1805,1.1805,1.1805,1.2048,1.214,1.2169,1.2396,1.2697,1.3069,1.3727,1.4665,1.5701,1.6144,1.6936,1.7811,1.7816,1.8166,1.8728,0.7218,0.8222,0.8846,0.8544,0.0,0.0,0.8172,0.7793,0.0,0.0,0.0,0.0,0.0,0.0,0.0,0.0,0.0,0.7473,0.0,0.0,0.0,0.73,0.6854,0.69,0.7541,0.7932,0.8534,0.0,1.0338,0.0,0.0,0.0,1.3438,1.3901,1.4123,0.0,1.4073,0.0,1.4192,0.0,0.0,0.0,0.0,1.1757,1.0986,1.0073,0.9794,1.024,1.1075,0.0,1.2546,0.0,0.0,0.0,0.0,0.0,0.0,0.0,0.0,0.0,0.0,0.0,0.0,0.0,1.7157,0.0,1.7035,0.0,0.0,0.0,0.0,0.0,0.0,0.0,0.0,0.0,0.0,0.0,0.0,0.0,0.0,0.0,0.0,0.0,0.0,0.0,0.0,1.6323,1.5022,1.4704,1.4195,1.3391,1.2586,1.2245,1.2373,1.1852,1.1659,1.1805,1.1805,1.1805,1.1805,1.2091,1.2189,1.2214,1.2482,1.2748,1.303,1.3326,1.4039,1.5018,1.5624,1.6656,1.7833,1.7971,1.827,1.8676,0.6665,0.0,0.0,0.0,0.0,0.9296,0.7599,0.7416,0.7388,0.0,0.0,0.0,0.687,0.6713,0.0,0.0,0.7985,0.8108,0.0,0.0,0.7248,0.7821,0.6921,0.0,0.0,0.8241,0.8603,0.0,0.0,0.0,0.0,0.0,0.0,1.4139,0.0,1.5134,1.4619,0.0,0.0,1.348,1.3815,1.304,1.1644,1.127,1.0318,0.9163,0.8972,0.9364,1.0068,1.0606,1.1253,0.0,1.3697,0.0,0.0,0.0,0.0,0.0,2.0264,0.0,0.0,0.0,0.0,0.0,0.0,0.0,0.0,0.0,0.0,0.0,0.0,0.0,0.0,0.0,0.0,0.0,0.0,0.0,0.0,0.0,0.0,0.0,0.0,0.0,0.0,0.0,0.0,0.0,1.6317,1.6074,1.537,1.4109,1.3323,1.2917,1.2917,1.2316,1.2024,1.2024,1.2024,1.2018,1.2027,1.2298,1.2427,1.2429,1.2708,1.2931,1.3103,1.3103,1.366,1.4545,1.5088,1.6086,1.7274,1.7948,1.8231,1.8358,0.7056,0.7575,0.0,0.0,0.0,0.825,0.7359,0.7326,0.7271,0.0,0.0,0.0,0.0,0.0,0.0,0.0,0.0,0.952,0.952,0.0,0.853,0.8931,0.7613,0.7261,0.0,0.8983,0.9296,0.8987,0.0,0.0,0.0,0.0,0.0,0.0,0.0,1.4984,1.4796,1.4813,1.4346,1.3601,1.3603,1.2633,1.0975,0.0,0.8758,0.8213,0.8723,0.0,0.0,0.9337,1.0038,0.0,0.0,0.0,0.0,0.0,0.0,0.0,0.0,0.0,0.0,1.6851,0.0,0.0,0.0,0.0,1.6435,0.0,0.0,0.0,0.0,0.0,0.0,0.0,0.0,0.0,0.0,0.0,0.0,0.0,0.0,0.0,0.0,0.0,0.0,0.0,0.0,0.0,1.741,1.6737,1.588,1.4809,1.3733,1.3188,1.3188,1.2783,1.2572,1.2572,1.2572,1.2577,1.2585,1.2844,1.297,1.2987,1.3259,1.3379,1.3379,1.3379,1.3836,1.4494,1.4528,1.5003,1.5889,1.7569,1.7918,1.7684,0.0,0.0,0.0,0.0,0.0,0.8615,0.8378,0.8298,0.0,0.0,0.0,0.0,0.0,0.7491,0.7901,0.0,0.0,0.9607,0.9607,0.8775,0.0,0.0,0.0,0.7533,0.0,0.0,0.9273,0.9866,1.0768,0.0,0.0,0.0,0.0,0.0,0.0,1.595,0.0,0.0,0.0,0.0,0.0,1.2362,1.1132,0.0,0.0,0.8296,0.8364,0.8591,0.0,0.8772,0.914,0.9883,1.1278,1.1876,1.2472,1.4553,1.5227,0.0,0.0,0.0,1.5839,1.605,0.0,0.0,0.0,0.0,0.0,0.0,0.0,0.0,0.0,0.0,0.0,0.0,0.0,0.0,0.0,0.0,0.0,0.0,0.0,0.0,0.0,0.0,0.0,0.0,2.0286,0.0,0.0,1.8445,1.769,1.6874,1.5589,1.4701,1.4196,1.3626,1.3083,1.2602,1.2602,1.2596,1.2619,1.2879,1.3006,1.3006,1.3278,1.3396,1.3396,1.3396,1.3549,1.3819,1.431,1.436,1.4414,1.6661,1.7464,1.7648,0.7478,0.0,0.0,0.0,0.0,0.0,0.0,0.0,0.0,0.0,0.7988,0.0,0.7695,0.0,0.8028,0.0,0.9141,0.9367,0.9319,0.8673,0.0,0.9521,0.8123,0.0,0.0,0.0,0.9555,1.0223,0.0,1.1203,0.0,0.0,0.0,0.0,0.0,0.0,1.6244,0.0,1.5884,0.0,0.0,1.2277,0.0,0.0,0.8963,0.8481,0.0,0.8434,0.8661,0.8318,0.8518,0.9137,1.0317,1.0733,1.1168,1.3047,1.3479,1.3521,1.4332,1.4124,0.0,1.443,1.4105,0.0,1.4524,0.0,0.0,0.0,0.0,0.0,0.0,0.0,0.0,0.0,0.0,0.0,0.0,0.0,0.0,0.0,0.0,0.0,0.0,0.0,2.0332,2.0716,0.0,0.0,0.0,0.0,1.8727,1.7909,1.6629,1.5579,1.4838,1.4276,1.3615,1.2892,1.2892,1.288,1.2888,1.3097,1.3211,1.3224,1.3474,1.3591,1.3591,1.3591,1.3591,1.3642,1.4091,1.4005,1.3848,1.6011,1.7188,1.7866,0.0,0.0,0.0,0.0,0.848,0.0,0.0,0.0,0.8787,0.0,0.7988,0.7695,0.7695,0.7748,0.7963,0.8335,0.8755,0.8908,0.8814,0.857,0.0,0.0,0.8688,0.8896,1.0317,0.0,0.0,0.0,0.0,0.0,0.0,0.0,0.0,0.0,1.5035,0.0,1.5516,1.5991,1.5708,1.4836,1.3445,1.2375,1.1518,1.0679,0.9703,0.87,0.8501,0.8402,0.833,0.7944,0.8139,0.8559,0.853,0.935,1.0448,1.1119,1.1119,1.1091,1.2201,1.2097,1.174,1.2094,0.0,0.0,0.0,0.0,1.575,0.0,0.0,0.0,0.0,0.0,0.0,0.0,0.0,0.0,0.0,0.0,0.0,0.0,0.0,0.0,0.0,1.9381,2.0313,2.1404,2.1579,0.0,0.0,0.0,1.9104,1.8055,1.6889,1.5915,1.513,1.4708,1.4127,1.3396,1.3396,1.3396,1.3396,1.3551,1.3606,1.3606,1.3806,1.3913,1.3913,1.3913,1.3913,1.3913,1.3913,1.3913,1.4122,1.5717,1.7057,1.821,0.8366,0.923,0.9891,0.0,1.02,1.0136,0.0,0.0,0.0,0.0,0.8184,0.7686,0.7695,0.7704,0.7772,0.7871,0.8297,0.0,0.0,0.0,0.0,0.9536,0.8941,0.9277,1.0805,1.0418,0.0,1.1893,0.0,0.0,1.173,0.0,0.0,0.0,0.0,0.0,1.6785,1.6199,1.5379,1.4392,1.4168,1.3152,0.0,0.0,1.0511,0.9109,0.8749,0.8517,0.8356,0.8119,0.8019,0.8092,0.8637,0.8878,0.9153,1.0028,1.0324,1.0485,1.0919,1.1063,1.1221,1.171,1.1741,1.1809,0.0,0.0,0.0,0.0,0.0,0.0,0.0,0.0,0.0,0.0,0.0,0.0,0.0,0.0,0.0,0.0,0.0,0.0,0.0,1.828,1.9649,1.9942,2.1311,0.0,0.0,0.0,0.0,1.9486,1.8121,1.6764,1.5476,1.4828,1.4136,1.3396,1.3396,1.3396,1.3413,1.3541,1.3593,1.3606,1.3806,1.3913,1.3913,1.3913,1.3913,1.3913,1.3913,1.3997,1.4334,1.5929,1.707,1.7959,0.8829,0.0,0.0,1.1406,0.0,0.0,1.0633,0.0,0.0,0.9315,0.85,0.0,0.7725,0.753,0.7423,0.7423,0.7849,0.0,0.8334,0.0,0.0,0.8958,0.9071,0.9712,1.0968,1.0695,0.0,1.2415,0.0,0.0,1.1674,0.0,0.0,0.0,0.0,1.6422,0.0,1.6529,1.5671,1.4836,1.4611,0.0,0.0,1.1918,1.0851,0.9338,0.9069,0.8863,0.866,0.8376,0.8227,0.8229,0.8485,0.85,0.8546,0.8982,0.9134,0.9208,0.9508,0.9633,0.9844,1.0497,1.0548,1.0676,1.1602,1.1884,1.2366,0.0,0.0,0.0,0.0,0.0,0.0,0.0,0.0,0.0,0.0,0.0,0.0,0.0,0.0,0.0,1.5503,1.7884,1.9579,1.9667,2.0772,0.0,0.0,0.0,0.0,2.002,1.8579,1.7087,1.5625,1.5207,1.4449,1.3396,1.3396,1.3396,1.3413,1.3631,1.3726,1.3745,1.4051,1.4162,1.4162,1.4162,1.4162,1.4162,1.4162,1.4227,1.4483,1.5732,1.6682,1.7482,0.9249,0.0,0.0,0.0,0.0,0.0,0.0,1.0716,0.0,0.9526,0.0,0.8029,0.7548,0.7178,0.6982,0.707,0.0,0.7598,0.754,0.8087,0.8347,0.8248,0.9104,1.0001,1.0899,1.1025,0.0,0.0,0.0,0.0,0.0,0.0,0.0,0.0,0.0,0.0,0.0,1.6833,1.62,1.5643,1.4811,1.3545,1.2104,1.198,1.0949,0.954,0.942,0.9245,0.9037,0.8661,0.8612,0.8624,0.8259,0.8242,0.8322,0.8159,0.7956,0.7899,0.83,0.8288,0.8347,0.9083,0.9291,0.9686,1.1095,1.1468,1.1829,1.2828,1.4323,1.5656,0.0,0.0,0.0,0.0,0.0,0.0,0.0,0.0,0.0,0.0,0.0,0.0,0.0,1.8109,1.9695,1.9658,2.0199,0.0,0.0,0.0,0.0,2.0125,1.874,0.0,1.5721,0.0,1.4841,1.3462,1.3462,1.3479,1.3478,1.3793,1.3944,1.3969,1.435,1.4488,1.4488,1.4488,1.4488,1.4488,1.4488,1.4488,1.4579,1.5288,1.6059,1.6872,0.0,0.0,0.0,0.0,0.0,1.1714,1.0922,1.0297,0.955,0.8647,0.8106,0.7419,0.6406,0.624,0.6396,0.6901,0.71,0.0,0.0,0.0,0.0,0.8378,0.916,0.9891,1.0507,1.127,1.1907,0.0,1.2232,1.2145,0.0,0.0,0.0,0.0,0.0,0.0,1.741,1.6754,0.0,1.5623,1.4816,1.3569,1.2187,1.2151,1.1182,0.9812,0.9739,0.9456,0.9054,0.8827,0.8734,0.8658,0.8431,0.8265,0.8139,0.8111,0.7994,0.7958,0.83,0.8451,0.862,0.9027,0.9308,0.953,0.9827,1.0012,1.0422,1.1363,1.2436,1.3661,1.5231,0.0,0.0,0.0,0.0,0.0,0.0,0.0,0.0,0.0,0.0,0.0,0.0,0.0,1.9254,1.7937,0.0,0.0,0.0,0.0,0.0,0.0,1.9642,0.0,0.0,0.0,1.472,1.3813,1.3813,1.3821,1.3817,1.4058,1.415,1.4162,1.4399,1.4488,1.4488,1.4488,1.4488,1.4488,1.4488,1.4488,1.4524,1.4664,1.5215,1.6114,0.0,0.0,0.0,0.0,0.0,0.0,0.0,1.0344,0.0,0.9014,0.8301,0.7587,0.6909,0.6393,0.6254,0.6617,0.6914,0.7275,0.7666,0.8113,0.8259,0.8047,0.8821,0.0,1.0031,1.0945,1.1773,1.2513,1.2442,1.2396,0.0,0.0,0.0,0.0,0.0,1.7679,0.0,0.0,0.0,1.6361,1.5544,1.4046,1.2297,1.2311,1.1304,0.99,0.9822,0.9638,0.9394,0.9223,0.91,0.8993,0.8891,0.8801,0.8672,0.844,0.8326,0.83,0.845,0.8547,0.8727,0.9193,0.941,0.951,0.9599,0.9698,0.992,1.037,1.1249,1.2622,1.4879,1.672,0.0,0.0,0.0,0.0,0.0,0.0,0.0,0.0,0.0,0.0,0.0,0.0,0.0,0.0,0.0,0.0,0.0,0.0,0.0,0.0,0.0,0.0,0.0,0.0,0.0,1.3894,1.3892,1.3892,1.3894,1.369,1.3811,1.4183,1.3972,1.4114,1.4488,1.4488,1.4488,1.4488,1.4488,1.4488,1.4488,1.4488,1.4756,1.5252,0.0,1.2264,0.0,0.0,1.2503,0.0,1.1024,1.0466,0.994,0.9408,0.848,0.7739,0.7453,0.6648,0.6212,0.6395,0.6856,0.7317,0.7748,0.8178,0.8277,0.7945,0.8569,0.9193,0.981,1.0657,1.1566,0.0,1.256,0.0,0.0,0.0,1.4214,1.4944,0.0,0.0,0.0,0.0,1.7738,1.7041,1.6256,1.4528,1.2417,1.2425,1.1383,0.9933,0.9856,0.9811,0.9739,0.9626,0.9459,0.9328,0.93,0.9283,0.9153,0.8751,0.8641,0.8645,0.8645,0.869,0.8855,0.9369,0.9518,0.9573,0.968,0.9743,0.9787,0.9805,1.0605,1.2016,1.4325,1.5883,0.0,0.0,0.0,0.0,0.0,0.0,0.0,0.0,0.0,0.0,0.0,0.0,0.0,0.0,0.0,0.0,0.0,0.0,0.0,0.0,0.0,1.8832,1.67,0.0,1.5447,0.0,1.4029,1.3935,1.3757,1.3287,1.3401,1.398,1.3501,1.3758,1.4488,1.4488,1.4488,1.4488,1.4488,1.4488,1.4488,1.4488,1.4488,1.4579,0.0,0.0,0.0,0.0,0.0,0.0,0.0,1.0355,0.9639,0.8873,0.7957,0.7214,0.6832,0.6285,0.6073,0.6466,0.6969,0.7475,0.7944,0.8463,0.8744,0.8693,0.8831,0.9333,1.0223,1.082,1.1566,0.0,0.0,1.3138,0.0,0.0,1.5315,1.6969,0.0,0.0,0.0,1.8554,1.7894,1.7049,1.6357,1.4643,1.249,1.2485,1.1497,1.0078,1.0012,0.9977,0.9969,0.9882,0.9643,0.9375,0.9312,0.9179,0.8992,0.8819,0.879,0.8781,0.8781,0.8959,0.9195,0.944,0.9599,0.968,0.9698,0.9698,0.9724,0.9787,1.0605,1.1644,1.2745,1.3128,1.3754,0.0,0.0,0.0,0.0,0.0,0.0,0.0,0.0,0.0,0.0,0.0,0.0,0.0,0.0,0.0,0.0,0.0,0.0,2.1738,0.0,1.9393,1.7937,1.6485,1.5299,1.4446,1.4434,1.405,1.3347,1.3296,1.3314,1.3387,1.3317,1.3758,1.4488,1.4488,1.4488,1.4488,1.4488,1.4488,1.4488,1.4488,1.4488,1.4506,0.0,0.0,0.0,0.0,0.0,0.0,0.0,1.0081,0.9792,0.9466,0.8523,0.7784,0.745,0.6614,0.6192,0.6472,0.698,0.7503,0.7968,0.8733,0.905,0.8815,0.9046,0.9552,1.0273,1.0799,1.1648,0.0,0.0,0.0,0.0,0.0,0.0,0.0,0.0,1.861,1.9112,1.9107,1.8434,1.7323,1.7044,1.5527,1.3339,1.2812,1.1926,1.0868,1.0271,1.009,1.0098,0.9991,0.9837,0.9698,0.9661,0.9599,0.9492,0.9286,0.9214,0.9212,0.9226,0.9296,0.9445,0.968,0.9787,0.9814,0.9825,0.9825,0.983,0.9847,1.0204,1.0807,1.1756,1.24,1.3175,0.0,0.0,0.0,0.0,0.0,0.0,0.0,0.0,0.0,0.0,0.0,0.0,0.0,0.0,2.0007,2.1328,0.0,0.0,2.2535,0.0,1.9619,1.8107,1.6515,1.5306,1.4488,1.4004,1.3611,1.3262,1.2297,1.2113,1.2637,1.36,1.4205,1.4488,1.4488,1.4488,1.4488,1.4488,1.4488,1.4488,1.4488,1.4488,1.4488,1.2853,0.0,1.3054,0.0,1.1387,0.9905,0.9905,0.9905,0.9905,0.9905,0.9024,0.8244,0.7873,0.6936,0.6469,0.6864,0.7403,0.7967,0.8561,0.9278,0.9569,0.928,0.9423,0.0,1.0407,1.1011,1.1953,1.321,1.3893,0.0,0.0,1.5641,0.0,0.0,1.8276,1.877,1.9331,1.9594,1.8866,1.7512,1.7568,1.6143,1.3923,1.3337,1.2434,1.1413,1.0745,1.0377,1.0185,1.0083,1.0017,0.9952,0.9927,0.9925,0.9881,0.9656,0.9611,0.9644,0.9606,0.9601,0.9657,0.9857,0.9901,0.9905,0.9908,0.9897,0.9906,0.9957,0.9977,1.0214,1.0926,1.1598,1.2303,1.3123,0.0,0.0,0.0,0.0,0.0,0.0,2.0019,2.0531,1.9477,0.0,0.0,0.0,0.0,2.0597,2.1918,0.0,0.0,0.0,0.0,0.0,0.0,1.6151,1.5068,1.4488,1.3912,1.3537,1.3243,1.1875,1.1563,1.2187,1.3545,1.4279,1.4488,1.4488,1.4488,1.4488,1.4488,1.4488,1.4488,1.4488,1.4488,1.4488,1.2888,1.3012,1.3054,1.3163,1.1387,0.9905,0.9905,0.9905,0.9905,0.9905,0.9146,0.8359,0.7768,0.7037,0.6936,0.7819,0.8372,0.9062,0.9902,1.0231,1.0396,0.0,0.0,1.0082,1.0677,1.1621,1.256,1.3496,0.0,0.0,1.5516,1.6589,1.755,1.8409,1.8955,1.9331,1.9607,1.9878,1.9035,1.7512,1.7729,1.6264,1.4017,1.4064,1.3008,1.1504,1.1484,1.0929,1.0198,1.0197,1.0147,1.0096,1.0013,0.9995,0.9975,0.9839,0.9886,0.9971,0.9841,0.9848,0.9894,0.9894,0.9896,0.9898,0.9904,0.9893,0.9931,1.0074,1.0049,1.0037,1.0194,1.0214,1.0512,1.1385,0.0,0.0,0.0,0.0,0.0,0.0,1.7086,1.7549,2.0042,0.0,0.0,0.0,0.0,0.0,2.1971,0.0,0.0,2.0561,1.8981,0.0,1.6927,1.5313,1.4506,1.4488,1.4488,1.4077,1.3262,1.2472,1.2095,1.215,1.2968,1.3776,1.4488,1.4488,1.4488,1.4488,1.4488,1.4488,1.4488,1.4488,1.4488,1.4488,1.2119,1.2686,1.2683,1.1198,1.037,0.9905,0.9905,1.064,1.1205,1.1205,1.1598,1.1313,0.9844,0.8496,0.7982,0.0,0.9441,0.9972,0.0,1.0865,1.1218,1.1218,1.1101,1.1313,1.1917,1.2211,1.2817,1.3785,0.0,0.0,0.0,1.754,1.8198,1.8937,1.9118,1.9439,1.9882,1.9964,1.9107,1.7702,1.7776,1.6622,1.4822,1.4256,1.3691,1.3125,1.2539,1.1794,1.1086,1.1093,1.0675,1.0155,1.0146,1.0092,1.0073,1.0073,1.0097,1.0123,1.0073,1.0089,1.0097,1.0096,1.0098,1.0103,1.0096,1.0109,1.0122,1.0159,1.015,1.0144,1.0188,1.0199,1.0674,1.2148,1.2676,0.0,0.0,0.0,0.0,0.0,1.8201,1.9403,0.0,2.0823,0.0,0.0,0.0,0.0,0.0,0.0,0.0,0.0,1.8854,0.0,1.6908,1.5294,1.4488,1.4488,1.4046,1.3402,1.2622,1.2834,1.2913,1.2968,1.3765,1.4261,1.4488,1.4488,1.4488,1.4488,1.4488,1.4488,1.4488,1.4488,1.4488,1.4488,1.1211,1.2257,1.2497,1.0295,1.031,1.0616,1.0616,1.1296,1.1805,1.1805,1.2553,1.2773,1.1932,1.0494,0.0,0.9969,1.0435,1.0881,1.1197,1.1576,1.1782,1.1782,1.1782,1.1906,1.2164,0.0,0.0,1.3791,1.5129,1.6639,1.827,1.8426,1.8837,1.9416,1.9154,1.9239,1.9523,1.9273,1.8477,1.734,1.7354,1.6538,1.5234,1.4706,1.4281,1.3929,1.3379,1.2615,1.1881,1.1895,1.1509,1.093,1.0663,1.0531,1.0443,1.0258,1.0191,1.0205,1.0209,1.0191,1.0194,1.0194,1.0171,1.0166,1.0193,1.0209,1.0206,1.0191,1.0205,1.0217,1.0239,1.0485,1.1152,1.2598,1.3125,1.3828,1.5215,0.0,0.0,0.0,0.0,0.0,0.0,2.143,0.0,0.0,0.0,0.0,0.0,0.0,0.0,2.0672,1.8061,0.0,1.6079,1.5076,1.4589,1.4571,1.4195,1.3594,1.2793,1.3225,1.3392,1.3399,1.3906,1.4301,1.4578,1.4522,1.4533,1.4578,1.4522,1.4488,1.4488,1.4488,1.4488,1.4543,1.0452,1.1784,0.0,0.0,1.102,0.0,1.1805,1.1805,1.1826,1.1897,1.236,1.3003,1.381,1.2791,1.1893,1.15,0.0,0.0,0.0,1.2392,1.2222,1.2207,1.2222,1.2057,1.1769,1.2983,1.3656,1.3701,1.5957,1.7772,1.9124,1.9194,1.9448,1.9775,1.9087,1.8805,1.8777,1.808,1.734,1.659,1.6581,1.6066,1.531,1.5302,1.4786,1.4078,1.4078,1.3442,1.2609,1.2659,1.2502,1.2185,1.1475,1.1174,1.0967,1.0354,1.0174,1.018,1.0181,1.0182,1.0196,1.0184,1.0153,1.0117,1.0192,1.0191,1.0209,1.0204,1.0202,1.0226,1.0273,1.0957,1.1816,1.2734,1.3574,1.4394,1.5273,0.0,0.0,0.0,0.0,0.0,0.0,2.0905,2.1416,0.0,0.0,0.0,0.0,0.0,1.9382,1.8553,1.6768,1.5471,1.4717,1.4698,1.4727,1.4718,1.4841,1.4487,1.3705,1.3698,1.3664,1.3607,1.3607,1.4018,1.4707,1.4589,1.4592,1.4707,1.4578,1.4522,1.4522,1.4511,1.4511,1.4639,0.0,0.0,1.1966,1.1434,1.1601,1.1805,1.1805,1.1805,1.2092,1.2908,1.3344,1.3674,1.3885,1.3622,1.338,1.3288,1.3098,1.3071,1.3258,1.331,1.336,1.3468,1.3326,1.3277,1.3342,1.3667,1.4091,1.4672,1.6061,1.7251,1.8294,1.9119,1.967,1.9925,1.915,1.89,1.8969,1.815,1.7343,1.6607,1.654,1.6028,1.5307,1.529,1.5134,1.4914,1.4914,1.4295,1.3481,1.3505,1.2976,1.224,1.1911,1.1411,1.0824,1.0159,0.9974,0.9965,0.9974,1.0041,1.0113,1.0118,1.0156,1.0173,1.0197,1.0197,1.0198,1.02,1.0209,1.0192,1.0215,1.0953,1.1855,1.2695,1.3535,1.4394,1.5215,1.5898,0.0,0.0,1.8626,1.9961,2.138,2.1947,2.1925,0.0,0.0,0.0,0.0,1.7905,1.775,1.8707,1.6436,1.5098,1.4859,1.4841,1.4875,1.492,1.4911,1.4822,1.468,1.4614,1.4575,1.4567,1.4567,1.468,1.4841,1.4832,1.4813,1.4841,1.4832,1.4813,1.4785,1.4687,1.4656,1.4746,1.1281,1.1812,1.2174,1.2174,1.2329,1.2514,1.2738,1.2638,1.2858,1.3786,1.4056,1.4208,1.4349,1.4222,1.4185,1.4331,1.3953,1.3684,1.3684,1.3754,1.3815,1.3899,1.3846,1.3878,1.3991,1.4046,1.4497,1.5377,1.6323,1.7119,1.7779,1.8779,1.9354,1.9535,1.8299,1.8052,1.8494,1.7588,1.6738,1.6027,1.6362,1.5984,1.5212,1.5162,1.5125,1.5055,1.5055,1.4697,1.4208,1.4217,1.3803,1.3225,1.2742,1.2314,1.1858,1.112,1.0377,0.9819,0.9882,0.9958,1.0019,1.0048,1.0096,1.0169,1.0188,1.0205,1.02,1.0193,1.0206,1.0328,1.0721,1.184,1.2831,1.3273,1.4407,1.5263,1.5282,1.6058,0.0,1.7162,1.8367,1.9473,2.0277,2.0423,2.0269,1.9738,0.0,0.0,1.7741,1.6561,1.6465,1.7708,1.596,1.4985,1.4942,1.4942,1.4996,1.5088,1.5059,1.5059,1.5088,1.5052,1.5008,1.4942,1.4942,1.4942,1.4942,1.4902,1.4919,1.4942,1.4902,1.4904,1.4895,1.4813,1.4794,1.4954,1.1307,1.2,1.2638,1.2748,1.3005,1.3357,1.3792,1.368,1.3803,1.4469,1.4545,1.4624,1.4895,1.4651,1.4592,1.4875,1.4382,1.4051,1.406,1.4016,1.4034,1.406,1.4124,1.4186,1.4216,1.4353,1.4818,1.5683,1.6488,1.7094,1.7543,1.8395,1.8963,1.9207,1.7462,1.7202,1.8008,1.6955,1.6178,1.5718,1.6385,1.6157,1.5408,1.5229,1.5133,1.5069,1.4948,1.482,1.4706,1.4701,1.4591,1.4329,1.3616,1.329,1.305,1.239,1.1031,0.9826,0.9999,0.9968,0.9919,0.9984,1.0048,1.0113,1.0175,1.017,1.0188,1.0176,1.0282,1.0613,1.1341,1.2976,1.4143,1.4009,1.5558,1.6488,1.5599,0.0,1.6734,1.6682,1.7324,1.8049,1.8742,1.8133,1.7959,1.8573,1.7176,1.6542,0.0,1.5792,1.5343,1.6061,1.5395,1.5035,1.5035,1.5035,1.5088,1.5189,1.5189,1.5189,1.5189,1.5189,1.514,1.5035,1.5035,1.5035,1.5028,1.4976,1.4973,1.5021,1.4968,1.4955,1.4936,1.4919,1.4911,1.5138,1.1933,1.2332,1.2838,1.3354,1.3307,1.3291,1.3587,1.4047,1.4439,1.4785,1.4747,1.4757,1.495,1.4894,1.4847,1.4901,1.479,1.4753,1.4738,1.4592,1.4582,1.4747,1.4594,1.4597,1.4774,1.4841,1.4965,1.5113,1.5932,1.6783,1.7682,1.8455,1.9278,2.0048,1.8359,1.8097,1.8812,1.7186,1.6783,1.7253,1.7309,1.7195,1.6876,1.6193,1.5923,1.5814,1.5148,1.482,1.4696,1.4692,1.4488,1.4196,1.3906,1.3262,1.2613,1.2616,1.1443,1.0214,1.0619,1.0332,0.9915,0.9987,1.0048,1.0094,1.0113,1.0121,1.011,1.0117,1.0705,1.126,1.1401,1.3423,1.4834,1.4043,1.601,1.7316,1.6433,0.0,1.7536,1.7514,1.7638,1.7767,1.7895,1.7779,1.7472,1.6926,1.5965,1.5132,1.4516,1.4247,1.4142,1.4226,1.4839,1.5177,1.5177,1.5177,1.5183,1.5189,1.5189,1.5189,1.5189,1.5189,1.5183,1.5177,1.5177,1.5177,1.5171,1.5159,1.5165,1.5171,1.5159,1.5153,1.5146,1.5033,1.4985,1.5103,1.2821,1.2923,1.3175,1.3758,1.3859,1.3913,1.4107,1.4412,1.465,1.4785,1.4833,1.4945,1.5143,1.5075,1.5049,1.5106,1.5111,1.5111,1.5111,1.4929,1.4863,1.4945,1.4894,1.4959,1.5115,1.557,1.5586,1.5105,1.6855,1.7479,1.707,1.8358,1.9218,1.9608,1.8356,1.8279,1.9033,1.814,1.7658,1.7576,1.7919,1.7713,1.7158,1.6779,1.6592,1.6425,1.5614,1.5298,1.5157,1.4609,1.4329,1.4168,1.3965,1.3602,1.3275,1.3343,1.2034,1.0504,1.021,0.9994,0.985,0.9888,0.9944,0.9994,0.9994,0.9985,1.0005,1.0048,1.0748,1.1498,1.2007,1.4203,1.5661,1.4741,1.6752,0.0,0.0,1.6901,1.7369,1.6452,1.6772,1.6683,1.5734,1.5657,1.533,1.4508,1.4085,1.3676,1.3272,1.3253,1.3237,1.3204,1.4424,1.5133,1.5189,1.5189,1.5189,1.5189,1.5189,1.5189,1.5189,1.5189,1.5189,1.5189,1.5189,1.5189,1.5189,1.5189,1.5189,1.5189,1.5189,1.5189,1.5189,1.5133,1.5121,1.5286,1.3911,1.3724,1.3686,1.4156,1.4382,1.4553,1.4654,1.4701,1.4764,1.4797,1.4941,1.5081,1.5287,1.5206,1.5184,1.5286,1.5309,1.5298,1.5291,1.5151,1.5051,1.5046,1.529,1.5463,1.5586,1.6381,1.6462,1.5795,1.7764,1.8168,1.7139,1.8475,1.9208,1.9335,1.8449,1.85,1.9278,1.8903,1.8431,1.8022,1.8539,1.8298,1.759,1.7403,1.7259,1.7059,1.6263,1.5821,1.5506,1.4743,1.432,1.4105,1.3948,1.3905,1.3905,1.3956,1.2789,1.1204,1.0068,0.9887,0.9968,0.9824,0.985,0.9896,0.9896,0.9898,0.9914,0.9968,1.0822,1.1776,1.2516,1.473,1.617,1.5343,0.0,0.0,0.0,1.6619,1.6946,1.5657,1.5734,1.5368,1.4036,1.3728,1.3368,1.2757,1.2507,1.2392,1.2392,1.2392,1.2488,1.268,1.4022,1.4878,1.5189,1.5189,1.5189,1.5189,1.5189,1.5189,1.5189,1.5189,1.5189,1.5189,1.5189,1.5189,1.5189,1.5189,1.5189,1.5189,1.5189,1.5189,1.5209,1.5426,1.5503,1.5715,1.5252,1.4904,1.4608,1.4658,1.4766,1.4883,1.4874,1.487,1.4934,1.5043,1.5086,1.5156,1.5288,1.5291,1.5287,1.5305,1.5302,1.5295,1.529,1.5295,1.5259,1.5194,1.5952,1.6396,1.6404,1.7265,1.7669,1.7617,1.7802,1.8248,1.8915,1.9035,1.95,2.0164,1.9169,1.9182,1.9869,1.893,1.8887,1.9455,1.9497,1.9369,1.9066,1.8316,1.8015,1.7909,1.711,1.6224,1.5402,1.5346,1.4693,1.392,1.3905,1.3905,1.3939,1.4109,1.3682,1.2746,1.0995,1.0591,1.051,0.995,0.9847,0.9906,0.9906,0.9898,0.9891,0.9913,1.1193,1.2368,1.2496,1.4608,1.6074,1.5312,0.0,0.0,1.6542,1.6503,1.6542,1.6426,1.5036,1.4036,1.3915,1.3233,1.2757,1.27,1.1949,1.1502,1.1502,1.1502,1.1872,1.2661,1.3531,1.4376,1.5189,1.5189,1.5189,1.5189,1.5189,1.5189,1.5189,1.5189,1.5189,1.5189,1.5189,1.5189,1.5189,1.5189,1.5189,1.5189,1.5189,1.5189,1.5311,1.6118,1.6407,1.6522,1.5923,1.5783,1.5743,1.5754,1.5996,1.6149,1.5971,1.5497,1.5174,1.5224,1.5218,1.5233,1.5292,1.5307,1.5298,1.5297,1.5295,1.5299,1.5295,1.5777,1.6052,1.6062,1.6865,1.7317,1.7303,1.8169,1.8317,1.7738,1.882,1.9249,1.9058,1.9457,1.9826,2.0084,1.962,1.9585,1.985,1.9375,1.9247,1.9339,1.9259,1.9077,1.8818,1.8532,1.8415,1.8304,1.7506,1.6958,1.6474,1.5386,1.4773,1.4363,1.3765,1.3583,1.3614,1.3681,1.3614,1.3249,1.2198,1.136,1.0774,1.0547,1.0138,0.9779,0.9779,0.9779,0.9776,0.9828,1.0777,1.1763,1.233,1.4084,1.5345,1.5057,0.0,1.7039,1.57,1.6002,1.5981,1.4948,1.4276,1.3497,1.244,1.206,1.168,1.1137,1.0771,1.0598,1.0598,1.0598,1.097,1.1805,1.218,1.3017,1.4382,1.4382,1.467,1.5189,1.5189,1.5189,1.5189,1.5189,1.5189,1.5189,1.5189,1.5189,1.5189,1.5189,1.5189,1.5189,1.5189,1.5541,1.6042,1.6388,1.6811,1.7375,1.7018,1.6863,1.6808,1.6783,1.7051,1.7096,1.6646,1.605,1.5585,1.5332,1.5304,1.5303,1.5292,1.5293,1.5407,1.5641,1.568,1.5776,1.6043,1.6783,1.7148,1.6943,1.7733,1.8167,1.8108,1.9004,1.9115,1.8369,1.9592,1.9873,1.9254,1.9715,1.9935,1.9928,1.9805,1.9729,1.9731,1.9489,1.9317,1.913,1.8947,1.8753,1.861,1.859,1.8612,1.8526,1.7982,1.756,1.7117,1.5936,1.5351,1.5032,1.4381,1.4051,1.3899,1.3899,1.3814,1.36,1.3184,1.2336,1.1459,1.1007,1.0483,1.0012,0.9761,0.9698,0.9717,0.9761,1.0439,1.1229,1.1869,1.3142,1.4101,1.4109,1.5079,1.5428,1.4279,1.4688,1.469,1.3558,1.3242,1.2651,1.1502,1.1156,1.0733,1.0133,1.0082,1.007,1.007,1.007,1.0334,1.0914,1.1234,1.2079,1.3517,1.3767,1.4343,1.5189,1.5189,1.5189,1.5189,1.5189,1.5189,1.5189,1.5189,1.5189,1.5189,1.5189,1.5189,1.5189,1.5189,1.5734,1.6522,1.6772,1.7395,1.8241,1.8703,1.8166,1.7703,1.7635,1.7721,1.7519,1.6643,1.6518,1.622,1.5416,1.5315,1.5316,1.5326,1.5317,1.5637,1.6433,1.6503,1.6849,1.7657,1.8384,1.8463,1.7753,1.8549,1.8939,1.8811,1.9794,2.0131,1.9788,1.9931,1.9923,1.9807,1.9807,1.9811,1.979,1.9665,1.9606,1.9569,1.9177,1.9002,1.8971,1.8699,1.8585,1.8589,1.8596,1.8593,1.859,1.8582,1.7952,1.711,1.711,1.6573,1.5904,1.5904,1.5487,1.5002,1.5002,1.4486,1.3916,1.3894,1.3466,1.2673,1.1263,1.0911,1.0692,0.9887,0.9698,0.9698,0.9698,1.0333,1.0926,1.1076,1.1745,1.2308,1.2392,1.2406,1.2406,1.2406,1.2465,1.2521,1.2584,1.1873,1.1406,1.1387,1.0613,1.0094,1.0094,1.0048,0.9997,0.9997,0.9997,1.002,1.0094,1.0944,1.1814,1.268,1.3497,1.4343,1.5189,1.5189,1.5189,1.5189,1.5189,1.5189,1.5189,1.5189,1.5189,1.5189,1.5189,1.5189,1.5209,1.5209,1.5753,1.6619,1.7407,1.8261,1.9126,1.9143,1.9317,1.9348,1.8825,1.8729,1.8618,1.8361,1.782,1.732,1.7093,1.7001,1.6945,1.6857,1.685,1.69,1.7056,1.7066,1.7388,1.8203,1.8476,1.876,1.9152,1.9428,1.9541,1.9498,1.9798,1.9909,1.9793,1.9849,1.9843,1.9793,1.9699,1.9665,1.9662,1.9323,1.9183,1.9158,1.8852,1.8614,1.8431,1.8356,1.8211,1.804,1.8049,1.8058,1.8052,1.8051,1.7845,1.7502,1.6981,1.6663,1.6366,1.5854,1.5554,1.5312,1.4795,1.4589,1.4416,1.3839,1.3663,1.3436,1.2582,1.2068,1.1532,1.0729,1.0547,1.0383,0.9824,0.99,1.0239,1.085,1.1164,1.1514,1.2094,1.2187,1.2187,1.2187,1.2324,1.2196,1.1542,1.1388,1.1067,1.0413,1.0117,0.996,0.996,0.9944,0.9933,0.9933,0.9967,1.0001,1.002,1.0927,1.1814,1.268,1.3497,1.4343,1.5189,1.5189,1.5189,1.5189,1.5189,1.5189,1.5189,1.5189,1.5189,1.5189,1.5189,1.5561,1.6118,1.6118,1.6984,1.828,1.8523,1.9158,1.9946,1.9715,2.0019,2.0191,1.9717,1.9597,1.9469,1.9119,1.86,1.8127,1.7722,1.7641,1.7565,1.7444,1.7416,1.751,1.7748,1.8087,1.846,1.892,1.8938,1.9139,1.9587,1.9593,1.965,1.9713,1.977,1.9732,1.9601,1.9578,1.9552,1.9481,1.9282,1.9198,1.9216,1.9253,1.9115,1.8843,1.8878,1.861,1.8199,1.8093,1.7937,1.7811,1.7811,1.7811,1.7811,1.7811,1.7811,1.7738,1.7289,1.7143,1.7054,1.6625,1.6264,1.594,1.5486,1.5037,1.4572,1.4092,1.3939,1.3816,1.3458,1.2912,1.2244,1.1434,1.1314,1.1236,1.0754,1.0396,1.0315,1.0802,1.0636,1.059,1.1067,1.1149,1.1149,1.1149,1.1288,1.1157,1.058,1.0659,1.051,0.9955,0.9893,0.9881,0.9869,0.9875,0.9893,0.9893,0.9971,1.0006,1.0048,1.1258,1.2161,1.268,1.3849,1.467,1.5189,1.5189,1.5189,1.5189,1.5189,1.5189,1.5189,1.5189,1.5189,1.5189,1.5189,1.5715,1.6503,1.6503,1.7529,1.8992,1.9004,1.9561,2.0312,2.0309,2.0357,2.0366,2.0305,2.0301,2.0025,1.9203,1.9085,1.8751,1.7822,1.7709,1.7653,1.752,1.7517,1.778,1.8505,1.9298,1.9701,1.9582,1.9555,1.9471,1.9274,1.9243,1.9357,1.9592,1.9744,1.9679,1.9353,1.9335,1.9302,1.9196,1.8961,1.8838,1.8863,1.9525,1.9414,1.8796,1.9195,1.8946,1.824,1.8011,1.7862,1.7811,1.7811,1.7811,1.7811,1.7811,1.7811,1.7811,1.7811,1.7811,1.7811,1.7811,1.7339,1.6798,1.6712,1.575,1.4676,1.4607,1.4298,1.3972,1.397,1.3531,1.2895,1.2114,1.2079,1.2195,1.2112,1.1516,1.1022,1.1022,1.0406,0.9919,0.9919,0.9919,0.9882,0.9808,0.9872,0.9884,0.9803,0.9857,0.9881,0.9875,0.9875,0.9863,0.9798,0.9863,0.9887,0.9904,0.9957,1.002,1.0094,1.1795,1.27,1.27,1.4368,1.5189,1.5189,1.5189,1.5189,1.5189,1.5189,1.5189,1.5189,1.5189,1.5189,1.5189,1.5189,1.5753,1.6599,1.6599,1.7645,1.9126,1.9126,1.9619,2.0312,2.0386,2.0342,2.033,2.0294,2.0295,2.0177,1.9838,1.9782,1.9669,1.9336,1.9295,1.9258,1.9126,1.91,1.9104,1.9128,1.9313,1.9409,1.9365,1.9214,1.9119,1.9069,1.886,1.9039,1.9666,1.9902,1.9903,1.9626,2.017,2.0569,2.0785,2.0746,2.0717,2.0703,2.0668,2.0404,2.0,1.9904,1.943,1.8735,1.8697,1.8314,1.7811,1.7811,1.7811,1.7811,1.7811,1.7811,1.7811,1.7811,1.7811,1.7811,1.7811,1.7682,1.7451,1.6875,1.6469,1.6097,1.5513,1.4985,1.4606,1.4606,1.4271,1.3767,1.3111,1.3007,1.2855,1.2241,1.1967,1.1848,1.1846,1.1691,1.1581,1.1581,1.1581,1.1361,1.0728,1.0698,1.0495,0.9791,0.9789,0.9798,0.9747,0.9739,0.9761,0.9791,0.9811,0.9863,0.9967,0.9987,1.002,1.0094,1.1795,1.27,1.27,1.4368,1.5189,1.5189,1.5189,1.5189,1.5189,1.5189,1.5189,1.5189,1.5189,1.5189,1.5189,1.5189,1.608,1.7446,1.7446,1.8504,2.0023,2.0023,2.0139,2.0312,2.0352,2.025,2.0165,2.0165,2.0095,2.0031,1.9922,1.9893,1.9858,1.9713,1.9688,1.9643,1.9467,1.9471,1.9409,1.9305,1.9305,1.9259,1.9166,1.915,1.9084,1.9001,1.9201,1.9445,1.9697,2.04,2.0594,2.0223,2.0652,2.0868,2.0852,2.0727,2.0685,2.069,2.0917,2.0743,2.024,2.0465,2.012,1.9429,1.9416,1.8977,1.8314,1.8314,1.8116,1.7811,1.7811,1.7811,1.7811,1.7811,1.7811,1.7811,1.7811,1.7811,1.7721,1.7339,1.6981,1.6617,1.6234,1.5738,1.5327,1.532,1.4946,1.4433,1.3869,1.3803,1.3737,1.3327,1.2943,1.2665,1.268,1.2352,1.2095,1.2095,1.2095,1.182,1.1003,1.0926,1.0629,0.9798,0.9725,0.9732,0.9706,0.9698,0.9721,0.9747,0.9811,0.9875,0.9955,1.0001,1.0242,1.0714,1.2007,1.2873,1.3272,1.4561,1.5189,1.5189,1.5189,1.5189,1.5189,1.5189,1.5189,1.5189,1.5189,1.5189,1.5189,1.5189,1.6195,1.7702,1.7702,1.8773,2.0312,2.0312,2.0312,2.0312,2.0241,2.0097,1.9973,1.9973,1.988,1.9778,1.9774,1.9774,1.9713,1.9569,1.9541,1.9485,1.932,1.9259,1.9227,1.9178,1.9227,1.9237,1.9199,1.9317,1.9372,1.9327,1.9826,2.004,1.9956,2.0993,2.1298,2.0863,2.1048,2.1027,2.0787,2.0563,2.0459,2.0494,2.1153,2.1055,2.0449,2.1083,2.0933,2.0213,2.02,1.9747,1.9081,1.9087,1.8711,1.8189,1.8189,1.8099,1.7991,1.7991,1.7901,1.7811,1.7811,1.7811,1.7811,1.7811,1.7371,1.6902,1.6902,1.6509,1.6089,1.609,1.5641,1.5037,1.4483,1.438,1.4403,1.4451,1.3889,1.3412,1.3454,1.2887,1.2428,1.2458,1.2458,1.2194,1.1425,1.1315,1.0957,1.0029,0.979,0.9698,0.9698,0.9698,0.9761,0.9905,1.0043,1.0187,1.035,1.0479,1.0887,1.1603,1.2469,1.3233,1.3896,1.4766,1.5189,1.5189,1.5189,1.5189,1.5189,1.5189,1.5189,1.5189,1.5189,1.5189,1.5189,1.5189,1.6195,1.7702,1.7702,1.8773,2.0312,2.0312,2.0312,2.0312,2.0031,1.9922,1.9824,1.9824,1.9802,1.9762,1.963,1.9623,1.9569,1.9365,1.9335,1.932,1.9305,1.915,1.8948,1.8716,1.8913,1.9324,1.9993,1.979,1.9939,2.0613,2.0252,2.0313,2.0969,2.1376,2.1428,2.1139,2.1803,2.2209,2.24,2.24,2.2383,2.2348,2.2444,2.2302,2.2006,2.2119,2.1725,2.1042,2.1038,2.0559,1.9866,1.9854,1.9784,1.9693,1.9693,1.9292,1.875,1.875,1.8331,1.7811,1.7811,1.7811,1.7811,1.7811,1.7743,1.7659,1.7659,1.7245,1.6855,1.6851,1.6439,1.5844,1.5063,1.4423,1.4027,1.4196,1.4026,1.3868,1.4057,1.3845,1.3703,1.3894,1.3919,1.3696,1.3057,1.2986,1.2417,1.0912,1.0113,0.9698,0.9698,0.9698,1.0012,1.0774,1.0952,1.1339,1.2104,1.2284,1.2392,1.2526,1.331,1.3786,1.3896,1.4766,1.5189,1.5189,1.5189,1.5189,1.5189,1.5189,1.5189,1.5189,1.5189,1.5189,1.5189,1.5189,1.6195,1.7702,1.7702,1.8773,2.0312,2.0312,2.0312,2.0312,1.989,1.9786,1.9695,1.9695,1.9599,1.9504,1.9438,1.9423,1.9394,1.9305,1.9305,1.9305,1.9305,1.9632,1.9988,2.0355,2.0318,2.037,2.0577,2.0433,2.0406,2.0608,2.0756,2.1002,2.1345,2.1772,2.1932,2.1803,2.2283,2.25,2.249,2.2508,2.2508,2.249,2.249,2.2398,2.231,2.231,2.2107,2.1813,2.1821,2.134,2.0676,2.067,2.0382,2.0018,2.0018,1.9529,1.8896,1.8907,1.8392,1.7811,1.7811,1.7811,1.7811,1.7811,1.7811,1.7811,1.7811,1.7623,1.7446,1.7462,1.6953,1.6393,1.6024,1.5072,1.42,1.4061,1.3947,1.3941,1.4028,1.4051,1.411,1.4188,1.4295,1.4125,1.3398,1.3298,1.2876,1.1709,1.1251,1.1039,1.1039,1.1039,1.1204,1.1597,1.1698,1.1937,1.2305,1.2497,1.2817,1.3302,1.3706,1.4132,1.4613,1.5016,1.5189,1.5189,1.5189,1.5189,1.5189,1.5189,1.5189,1.5189,1.5189,1.5189,1.5189,1.5189,1.6195,1.7702,1.7702,1.8773,2.0312,2.0312,2.0312,2.0312]}]]